<?xml version="1.0" encoding="UTF-8" standalone="no" ?>
<gpx xmlns="http://www.topografix.com/GPX/1/1" xmlns:xsi="http://www.w3.org/2001/XMLSchema-instance" xsi:schemaLocation="http://www.topografix.com/GPX/1/1 http://www.topografix.com/GPX/1/1/gpx.xsd" version="1.1" creator="VisuGPX - https://www.visugpx.com">
  <metadata>
    <name>Boucle VAE St Cannat Vernègues</name>
  </metadata>
  <trk>
    <name><![CDATA[Boucle VAE St Cannat Vernègues_1]]></name>
    <extensions>
      <line xmlns="http://www.topografix.com/GPX/gpx_style/0/2">
        <color>0000FF</color>
        <width>4</width>
      </line>
    </extensions>
    <trkseg>
      <trkpt lat="43.62347" lon="5.29802">
        <ele>225.8</ele>
        <time>2021-04-25T06:35:56Z</time>
      </trkpt>
      <trkpt lat="43.6236" lon="5.29792">
        <ele>225.8</ele>
        <time>2021-04-25T06:36:07Z</time>
      </trkpt>
      <trkpt lat="43.62377" lon="5.29775">
        <ele>225.8</ele>
        <time>2021-04-25T06:36:14Z</time>
      </trkpt>
      <trkpt lat="43.62399" lon="5.29752">
        <ele>225.8</ele>
        <time>2021-04-25T06:36:23Z</time>
      </trkpt>
      <trkpt lat="43.62427" lon="5.29701">
        <ele>226</ele>
        <time>2021-04-25T06:36:36Z</time>
      </trkpt>
      <trkpt lat="43.62447" lon="5.29657">
        <ele>226</ele>
        <time>2021-04-25T06:36:46Z</time>
      </trkpt>
      <trkpt lat="43.62467" lon="5.29616">
        <ele>226</ele>
        <time>2021-04-25T06:36:55Z</time>
      </trkpt>
      <trkpt lat="43.62481" lon="5.29607">
        <ele>223.4</ele>
        <time>2021-04-25T06:36:59Z</time>
      </trkpt>
      <trkpt lat="43.62499" lon="5.29607">
        <ele>223.4</ele>
        <time>2021-04-25T06:37:03Z</time>
      </trkpt>
      <trkpt lat="43.62536" lon="5.29611">
        <ele>222.8</ele>
        <time>2021-04-25T06:37:11Z</time>
      </trkpt>
      <trkpt lat="43.62613" lon="5.29624">
        <ele>221.6</ele>
        <time>2021-04-25T06:37:29Z</time>
      </trkpt>
      <trkpt lat="43.62648" lon="5.29615">
        <ele>221</ele>
        <time>2021-04-25T06:37:37Z</time>
      </trkpt>
      <trkpt lat="43.62713" lon="5.29584">
        <ele>220.8</ele>
        <time>2021-04-25T06:37:53Z</time>
      </trkpt>
      <trkpt lat="43.62753" lon="5.29583">
        <ele>221.4</ele>
        <time>2021-04-25T06:38:03Z</time>
      </trkpt>
      <trkpt lat="43.62777" lon="5.29583">
        <ele>221.4</ele>
        <time>2021-04-25T06:38:09Z</time>
      </trkpt>
      <trkpt lat="43.62814" lon="5.29574">
        <ele>222</ele>
        <time>2021-04-25T06:38:18Z</time>
      </trkpt>
      <trkpt lat="43.62864" lon="5.29546">
        <ele>222.8</ele>
        <time>2021-04-25T06:38:31Z</time>
      </trkpt>
      <trkpt lat="43.62876" lon="5.29545">
        <ele>223.2</ele>
        <time>2021-04-25T06:38:34Z</time>
      </trkpt>
      <trkpt lat="43.62917" lon="5.29557">
        <ele>224</ele>
        <time>2021-04-25T06:38:44Z</time>
      </trkpt>
      <trkpt lat="43.62987" lon="5.2958">
        <ele>225</ele>
        <time>2021-04-25T06:39:01Z</time>
      </trkpt>
      <trkpt lat="43.62991" lon="5.29581">
        <ele>225.2</ele>
        <time>2021-04-25T06:39:02Z</time>
      </trkpt>
      <trkpt lat="43.63026" lon="5.29592">
        <ele>226</ele>
        <time>2021-04-25T06:39:10Z</time>
      </trkpt>
      <trkpt lat="43.6309" lon="5.29612">
        <ele>227.2</ele>
        <time>2021-04-25T06:39:25Z</time>
      </trkpt>
      <trkpt lat="43.63119" lon="5.29631">
        <ele>227.8</ele>
        <time>2021-04-25T06:39:32Z</time>
      </trkpt>
      <trkpt lat="43.63166" lon="5.29659">
        <ele>228.6</ele>
        <time>2021-04-25T06:39:44Z</time>
      </trkpt>
      <trkpt lat="43.63206" lon="5.29672">
        <ele>229.4</ele>
        <time>2021-04-25T06:39:54Z</time>
      </trkpt>
      <trkpt lat="43.63237" lon="5.29677">
        <ele>229.6</ele>
        <time>2021-04-25T06:40:01Z</time>
      </trkpt>
      <trkpt lat="43.63263" lon="5.29683">
        <ele>229.8</ele>
        <time>2021-04-25T06:40:06Z</time>
      </trkpt>
      <trkpt lat="43.63295" lon="5.29684">
        <ele>229.8</ele>
        <time>2021-04-25T06:40:11Z</time>
      </trkpt>
      <trkpt lat="43.63334" lon="5.29686">
        <ele>228.6</ele>
        <time>2021-04-25T06:40:16Z</time>
      </trkpt>
      <trkpt lat="43.63412" lon="5.29668">
        <ele>227.4</ele>
        <time>2021-04-25T06:40:26Z</time>
      </trkpt>
      <trkpt lat="43.63465" lon="5.29643">
        <ele>226.4</ele>
        <time>2021-04-25T06:40:36Z</time>
      </trkpt>
      <trkpt lat="43.63489" lon="5.29632">
        <ele>225.8</ele>
        <time>2021-04-25T06:40:41Z</time>
      </trkpt>
      <trkpt lat="43.63501" lon="5.29631">
        <ele>225.8</ele>
        <time>2021-04-25T06:40:43Z</time>
      </trkpt>
      <trkpt lat="43.63524" lon="5.29637">
        <ele>225.4</ele>
        <time>2021-04-25T06:40:47Z</time>
      </trkpt>
      <trkpt lat="43.63559" lon="5.29657">
        <ele>224.8</ele>
        <time>2021-04-25T06:40:54Z</time>
      </trkpt>
      <trkpt lat="43.63609" lon="5.29699">
        <ele>224.6</ele>
        <time>2021-04-25T06:41:06Z</time>
      </trkpt>
      <trkpt lat="43.63618" lon="5.29704">
        <ele>224.4</ele>
        <time>2021-04-25T06:41:08Z</time>
      </trkpt>
      <trkpt lat="43.63629" lon="5.29706">
        <ele>224.4</ele>
        <time>2021-04-25T06:41:10Z</time>
      </trkpt>
      <trkpt lat="43.63641" lon="5.29721">
        <ele>224.2</ele>
        <time>2021-04-25T06:41:13Z</time>
      </trkpt>
      <trkpt lat="43.63668" lon="5.29772">
        <ele>224</ele>
        <time>2021-04-25T06:41:22Z</time>
      </trkpt>
      <trkpt lat="43.63675" lon="5.29781">
        <ele>224</ele>
        <time>2021-04-25T06:41:24Z</time>
      </trkpt>
      <trkpt lat="43.63715" lon="5.29816">
        <ele>223.8</ele>
        <time>2021-04-25T06:41:33Z</time>
      </trkpt>
      <trkpt lat="43.63747" lon="5.29843">
        <ele>223.4</ele>
        <time>2021-04-25T06:41:41Z</time>
      </trkpt>
      <trkpt lat="43.6376" lon="5.29856">
        <ele>223.4</ele>
        <time>2021-04-25T06:41:45Z</time>
      </trkpt>
      <trkpt lat="43.63807" lon="5.299">
        <ele>224</ele>
        <time>2021-04-25T06:41:59Z</time>
      </trkpt>
      <trkpt lat="43.63862" lon="5.29929">
        <ele>225.2</ele>
        <time>2021-04-25T06:42:15Z</time>
      </trkpt>
      <trkpt lat="43.63885" lon="5.29924">
        <ele>225.8</ele>
        <time>2021-04-25T06:42:21Z</time>
      </trkpt>
      <trkpt lat="43.63937" lon="5.29912">
        <ele>227</ele>
        <time>2021-04-25T06:42:35Z</time>
      </trkpt>
      <trkpt lat="43.63989" lon="5.29916">
        <ele>228.4</ele>
        <time>2021-04-25T06:42:49Z</time>
      </trkpt>
      <trkpt lat="43.64021" lon="5.29934">
        <ele>230</ele>
        <time>2021-04-25T06:43:01Z</time>
      </trkpt>
      <trkpt lat="43.6404" lon="5.29953">
        <ele>231.2</ele>
        <time>2021-04-25T06:43:09Z</time>
      </trkpt>
      <trkpt lat="43.64061" lon="5.29992">
        <ele>233.4</ele>
        <time>2021-04-25T06:43:22Z</time>
      </trkpt>
      <trkpt lat="43.64085" lon="5.30029">
        <ele>235.2</ele>
        <time>2021-04-25T06:43:34Z</time>
      </trkpt>
      <trkpt lat="43.64097" lon="5.30045">
        <ele>236</ele>
        <time>2021-04-25T06:43:39Z</time>
      </trkpt>
      <trkpt lat="43.64123" lon="5.30083">
        <ele>237.4</ele>
        <time>2021-04-25T06:43:50Z</time>
      </trkpt>
      <trkpt lat="43.64134" lon="5.30116">
        <ele>238.4</ele>
        <time>2021-04-25T06:43:59Z</time>
      </trkpt>
      <trkpt lat="43.64135" lon="5.30123">
        <ele>238.6</ele>
        <time>2021-04-25T06:44:01Z</time>
      </trkpt>
      <trkpt lat="43.64137" lon="5.30144">
        <ele>239.2</ele>
        <time>2021-04-25T06:44:06Z</time>
      </trkpt>
      <trkpt lat="43.64137" lon="5.30176">
        <ele>240.2</ele>
        <time>2021-04-25T06:44:14Z</time>
      </trkpt>
      <trkpt lat="43.64143" lon="5.30202">
        <ele>240.8</ele>
        <time>2021-04-25T06:44:19Z</time>
      </trkpt>
      <trkpt lat="43.64155" lon="5.30277">
        <ele>243.2</ele>
        <time>2021-04-25T06:44:35Z</time>
      </trkpt>
      <trkpt lat="43.6416" lon="5.30316">
        <ele>244.2</ele>
        <time>2021-04-25T06:44:44Z</time>
      </trkpt>
      <trkpt lat="43.6416" lon="5.30327">
        <ele>244.6</ele>
        <time>2021-04-25T06:44:47Z</time>
      </trkpt>
      <trkpt lat="43.64166" lon="5.30363">
        <ele>245.4</ele>
        <time>2021-04-25T06:44:54Z</time>
      </trkpt>
      <trkpt lat="43.6418" lon="5.30388">
        <ele>246</ele>
        <time>2021-04-25T06:44:59Z</time>
      </trkpt>
      <trkpt lat="43.6419" lon="5.30407">
        <ele>246.4</ele>
        <time>2021-04-25T06:45:03Z</time>
      </trkpt>
      <trkpt lat="43.64192" lon="5.30444">
        <ele>247.2</ele>
        <time>2021-04-25T06:45:10Z</time>
      </trkpt>
      <trkpt lat="43.64195" lon="5.3052">
        <ele>249.4</ele>
        <time>2021-04-25T06:45:25Z</time>
      </trkpt>
      <trkpt lat="43.64196" lon="5.3055">
        <ele>250.4</ele>
        <time>2021-04-25T06:45:31Z</time>
      </trkpt>
      <trkpt lat="43.64215" lon="5.30587">
        <ele>252.4</ele>
        <time>2021-04-25T06:45:43Z</time>
      </trkpt>
      <trkpt lat="43.64251" lon="5.30622">
        <ele>255</ele>
        <time>2021-04-25T06:45:58Z</time>
      </trkpt>
      <trkpt lat="43.64267" lon="5.30642">
        <ele>256.6</ele>
        <time>2021-04-25T06:46:06Z</time>
      </trkpt>
      <trkpt lat="43.64292" lon="5.30646">
        <ele>258</ele>
        <time>2021-04-25T06:46:16Z</time>
      </trkpt>
      <trkpt lat="43.64321" lon="5.30658">
        <ele>259.4</ele>
        <time>2021-04-25T06:46:25Z</time>
      </trkpt>
      <trkpt lat="43.64326" lon="5.30658">
        <ele>259.4</ele>
        <time>2021-04-25T06:46:26Z</time>
      </trkpt>
      <trkpt lat="43.64346" lon="5.30656">
        <ele>259.8</ele>
        <time>2021-04-25T06:46:30Z</time>
      </trkpt>
      <trkpt lat="43.64356" lon="5.30655">
        <ele>260</ele>
        <time>2021-04-25T06:46:32Z</time>
      </trkpt>
      <trkpt lat="43.64366" lon="5.30657">
        <ele>260.2</ele>
        <time>2021-04-25T06:46:34Z</time>
      </trkpt>
      <trkpt lat="43.64383" lon="5.30653">
        <ele>260.2</ele>
        <time>2021-04-25T06:46:37Z</time>
      </trkpt>
      <trkpt lat="43.64407" lon="5.30659">
        <ele>260.2</ele>
        <time>2021-04-25T06:46:41Z</time>
      </trkpt>
      <trkpt lat="43.64416" lon="5.3066">
        <ele>260.2</ele>
        <time>2021-04-25T06:46:43Z</time>
      </trkpt>
      <trkpt lat="43.64441" lon="5.30644">
        <ele>260.2</ele>
        <time>2021-04-25T06:46:48Z</time>
      </trkpt>
      <trkpt lat="43.64448" lon="5.3063">
        <ele>260</ele>
        <time>2021-04-25T06:46:51Z</time>
      </trkpt>
      <trkpt lat="43.64449" lon="5.30624">
        <ele>260.8</ele>
        <time>2021-04-25T06:46:52Z</time>
      </trkpt>
      <trkpt lat="43.64453" lon="5.306">
        <ele>259.4</ele>
        <time>2021-04-25T06:46:56Z</time>
      </trkpt>
      <trkpt lat="43.64454" lon="5.30586">
        <ele>259.8</ele>
        <time>2021-04-25T06:46:59Z</time>
      </trkpt>
      <trkpt lat="43.64451" lon="5.30576">
        <ele>259.8</ele>
        <time>2021-04-25T06:47:01Z</time>
      </trkpt>
      <trkpt lat="43.64453" lon="5.30553">
        <ele>260</ele>
        <time>2021-04-25T06:47:06Z</time>
      </trkpt>
      <trkpt lat="43.64453" lon="5.30531">
        <ele>260</ele>
        <time>2021-04-25T06:47:10Z</time>
      </trkpt>
      <trkpt lat="43.64444" lon="5.30515">
        <ele>260.4</ele>
        <time>2021-04-25T06:47:14Z</time>
      </trkpt>
      <trkpt lat="43.64426" lon="5.30487">
        <ele>261</ele>
        <time>2021-04-25T06:47:22Z</time>
      </trkpt>
      <trkpt lat="43.64424" lon="5.30473">
        <ele>261.4</ele>
        <time>2021-04-25T06:47:25Z</time>
      </trkpt>
      <trkpt lat="43.64422" lon="5.30452">
        <ele>261.8</ele>
        <time>2021-04-25T06:47:29Z</time>
      </trkpt>
      <trkpt lat="43.64424" lon="5.30415">
        <ele>262.2</ele>
        <time>2021-04-25T06:47:35Z</time>
      </trkpt>
      <trkpt lat="43.64423" lon="5.3039">
        <ele>262.4</ele>
        <time>2021-04-25T06:47:38Z</time>
      </trkpt>
      <trkpt lat="43.64422" lon="5.30371">
        <ele>262.4</ele>
        <time>2021-04-25T06:47:40Z</time>
      </trkpt>
      <trkpt lat="43.64422" lon="5.30328">
        <ele>262.4</ele>
        <time>2021-04-25T06:47:44Z</time>
      </trkpt>
      <trkpt lat="43.64434" lon="5.30283">
        <ele>262.4</ele>
        <time>2021-04-25T06:47:49Z</time>
      </trkpt>
      <trkpt lat="43.6444" lon="5.30267">
        <ele>262.4</ele>
        <time>2021-04-25T06:47:51Z</time>
      </trkpt>
      <trkpt lat="43.6445" lon="5.30229">
        <ele>262.4</ele>
        <time>2021-04-25T06:47:56Z</time>
      </trkpt>
      <trkpt lat="43.64453" lon="5.30211">
        <ele>261.6</ele>
        <time>2021-04-25T06:47:58Z</time>
      </trkpt>
      <trkpt lat="43.64465" lon="5.30159">
        <ele>261.2</ele>
        <time>2021-04-25T06:48:03Z</time>
      </trkpt>
      <trkpt lat="43.64475" lon="5.30146">
        <ele>261</ele>
        <time>2021-04-25T06:48:05Z</time>
      </trkpt>
      <trkpt lat="43.6451" lon="5.30127">
        <ele>260.2</ele>
        <time>2021-04-25T06:48:10Z</time>
      </trkpt>
      <trkpt lat="43.64561" lon="5.3009">
        <ele>258</ele>
        <time>2021-04-25T06:48:17Z</time>
      </trkpt>
      <trkpt lat="43.64566" lon="5.30083">
        <ele>257.8</ele>
        <time>2021-04-25T06:48:18Z</time>
      </trkpt>
      <trkpt lat="43.64569" lon="5.30064">
        <ele>257.2</ele>
        <time>2021-04-25T06:48:20Z</time>
      </trkpt>
      <trkpt lat="43.64566" lon="5.30022">
        <ele>256</ele>
        <time>2021-04-25T06:48:25Z</time>
      </trkpt>
      <trkpt lat="43.64567" lon="5.29999">
        <ele>255.4</ele>
        <time>2021-04-25T06:48:28Z</time>
      </trkpt>
      <trkpt lat="43.64581" lon="5.29949">
        <ele>253.8</ele>
        <time>2021-04-25T06:48:36Z</time>
      </trkpt>
      <trkpt lat="43.64586" lon="5.29949">
        <ele>253.2</ele>
        <time>2021-04-25T06:48:39Z</time>
      </trkpt>
      <trkpt lat="43.64589" lon="5.29953">
        <ele>251.8</ele>
        <time>2021-04-25T06:48:45Z</time>
      </trkpt>
      <trkpt lat="43.64589" lon="5.29953">
        <ele>248</ele>
        <time>2021-04-25T06:49:11Z</time>
      </trkpt>
      <trkpt lat="43.64587" lon="5.29969">
        <ele>247.2</ele>
        <time>2021-04-25T06:49:16Z</time>
      </trkpt>
      <trkpt lat="43.6458" lon="5.29993">
        <ele>246.2</ele>
        <time>2021-04-25T06:49:22Z</time>
      </trkpt>
      <trkpt lat="43.64585" lon="5.30037">
        <ele>245</ele>
        <time>2021-04-25T06:49:31Z</time>
      </trkpt>
      <trkpt lat="43.64647" lon="5.30062">
        <ele>244.6</ele>
        <time>2021-04-25T06:49:43Z</time>
      </trkpt>
      <trkpt lat="43.64657" lon="5.30066">
        <ele>244.4</ele>
        <time>2021-04-25T06:49:45Z</time>
      </trkpt>
      <trkpt lat="43.64714" lon="5.30082">
        <ele>244.6</ele>
        <time>2021-04-25T06:49:57Z</time>
      </trkpt>
      <trkpt lat="43.64791" lon="5.301">
        <ele>244.4</ele>
        <time>2021-04-25T06:50:12Z</time>
      </trkpt>
      <trkpt lat="43.64829" lon="5.30108">
        <ele>244.6</ele>
        <time>2021-04-25T06:50:20Z</time>
      </trkpt>
      <trkpt lat="43.64862" lon="5.30118">
        <ele>244.8</ele>
        <time>2021-04-25T06:50:29Z</time>
      </trkpt>
      <trkpt lat="43.64862" lon="5.30154">
        <ele>245</ele>
        <time>2021-04-25T06:50:36Z</time>
      </trkpt>
      <trkpt lat="43.64861" lon="5.30199">
        <ele>245.2</ele>
        <time>2021-04-25T06:50:44Z</time>
      </trkpt>
      <trkpt lat="43.64855" lon="5.30283">
        <ele>246</ele>
        <time>2021-04-25T06:50:59Z</time>
      </trkpt>
      <trkpt lat="43.64849" lon="5.30372">
        <ele>246.8</ele>
        <time>2021-04-25T06:51:15Z</time>
      </trkpt>
      <trkpt lat="43.64846" lon="5.30423">
        <ele>247.4</ele>
        <time>2021-04-25T06:51:24Z</time>
      </trkpt>
      <trkpt lat="43.64836" lon="5.30529">
        <ele>248</ele>
        <time>2021-04-25T06:51:39Z</time>
      </trkpt>
      <trkpt lat="43.64826" lon="5.30633">
        <ele>248</ele>
        <time>2021-04-25T06:51:54Z</time>
      </trkpt>
      <trkpt lat="43.64826" lon="5.30639">
        <ele>248.2</ele>
        <time>2021-04-25T06:51:55Z</time>
      </trkpt>
      <trkpt lat="43.64829" lon="5.30686">
        <ele>248.4</ele>
        <time>2021-04-25T06:52:05Z</time>
      </trkpt>
      <trkpt lat="43.64827" lon="5.30722">
        <ele>248.6</ele>
        <time>2021-04-25T06:52:14Z</time>
      </trkpt>
      <trkpt lat="43.64827" lon="5.30752">
        <ele>249</ele>
        <time>2021-04-25T06:52:20Z</time>
      </trkpt>
      <trkpt lat="43.64832" lon="5.30763">
        <ele>249</ele>
        <time>2021-04-25T06:52:24Z</time>
      </trkpt>
      <trkpt lat="43.64857" lon="5.30768">
        <ele>249.4</ele>
        <time>2021-04-25T06:52:34Z</time>
      </trkpt>
      <trkpt lat="43.64872" lon="5.30758">
        <ele>249.8</ele>
        <time>2021-04-25T06:52:39Z</time>
      </trkpt>
      <trkpt lat="43.64905" lon="5.30747">
        <ele>250.8</ele>
        <time>2021-04-25T06:52:48Z</time>
      </trkpt>
      <trkpt lat="43.6493" lon="5.30744">
        <ele>251.6</ele>
        <time>2021-04-25T06:52:55Z</time>
      </trkpt>
      <trkpt lat="43.64936" lon="5.30747">
        <ele>252</ele>
        <time>2021-04-25T06:52:57Z</time>
      </trkpt>
      <trkpt lat="43.64942" lon="5.30758">
        <ele>252.4</ele>
        <time>2021-04-25T06:53:00Z</time>
      </trkpt>
      <trkpt lat="43.64939" lon="5.3077">
        <ele>252.8</ele>
        <time>2021-04-25T06:53:05Z</time>
      </trkpt>
      <trkpt lat="43.64937" lon="5.30777">
        <ele>253.2</ele>
        <time>2021-04-25T06:53:07Z</time>
      </trkpt>
      <trkpt lat="43.64931" lon="5.30819">
        <ele>254.2</ele>
        <time>2021-04-25T06:53:17Z</time>
      </trkpt>
      <trkpt lat="43.64928" lon="5.30866">
        <ele>255.2</ele>
        <time>2021-04-25T06:53:27Z</time>
      </trkpt>
      <trkpt lat="43.64931" lon="5.30877">
        <ele>255.6</ele>
        <time>2021-04-25T06:53:30Z</time>
      </trkpt>
      <trkpt lat="43.64939" lon="5.30881">
        <ele>255.8</ele>
        <time>2021-04-25T06:53:32Z</time>
      </trkpt>
      <trkpt lat="43.64961" lon="5.30885">
        <ele>256.6</ele>
        <time>2021-04-25T06:53:37Z</time>
      </trkpt>
      <trkpt lat="43.64976" lon="5.30888">
        <ele>257.2</ele>
        <time>2021-04-25T06:53:40Z</time>
      </trkpt>
      <trkpt lat="43.65038" lon="5.30902">
        <ele>258.4</ele>
        <time>2021-04-25T06:53:52Z</time>
      </trkpt>
      <trkpt lat="43.65108" lon="5.30917">
        <ele>259.8</ele>
        <time>2021-04-25T06:54:05Z</time>
      </trkpt>
      <trkpt lat="43.65138" lon="5.30922">
        <ele>260.6</ele>
        <time>2021-04-25T06:54:11Z</time>
      </trkpt>
      <trkpt lat="43.6515" lon="5.30918">
        <ele>261</ele>
        <time>2021-04-25T06:54:14Z</time>
      </trkpt>
      <trkpt lat="43.65155" lon="5.30907">
        <ele>261.2</ele>
        <time>2021-04-25T06:54:16Z</time>
      </trkpt>
      <trkpt lat="43.65164" lon="5.30881">
        <ele>261.6</ele>
        <time>2021-04-25T06:54:20Z</time>
      </trkpt>
      <trkpt lat="43.65169" lon="5.30878">
        <ele>261.6</ele>
        <time>2021-04-25T06:54:21Z</time>
      </trkpt>
      <trkpt lat="43.65185" lon="5.30878">
        <ele>262</ele>
        <time>2021-04-25T06:54:24Z</time>
      </trkpt>
      <trkpt lat="43.65207" lon="5.30882">
        <ele>262.2</ele>
        <time>2021-04-25T06:54:28Z</time>
      </trkpt>
      <trkpt lat="43.65212" lon="5.30879">
        <ele>262.2</ele>
        <time>2021-04-25T06:54:29Z</time>
      </trkpt>
      <trkpt lat="43.65229" lon="5.30871">
        <ele>262.2</ele>
        <time>2021-04-25T06:54:32Z</time>
      </trkpt>
      <trkpt lat="43.65243" lon="5.30869">
        <ele>262.4</ele>
        <time>2021-04-25T06:54:35Z</time>
      </trkpt>
      <trkpt lat="43.65253" lon="5.30868">
        <ele>262.4</ele>
        <time>2021-04-25T06:54:37Z</time>
      </trkpt>
      <trkpt lat="43.65271" lon="5.30862">
        <ele>262.6</ele>
        <time>2021-04-25T06:54:40Z</time>
      </trkpt>
      <trkpt lat="43.65287" lon="5.30862">
        <ele>262.8</ele>
        <time>2021-04-25T06:54:43Z</time>
      </trkpt>
      <trkpt lat="43.65303" lon="5.30856">
        <ele>263</ele>
        <time>2021-04-25T06:54:46Z</time>
      </trkpt>
      <trkpt lat="43.65318" lon="5.30842">
        <ele>263.4</ele>
        <time>2021-04-25T06:54:49Z</time>
      </trkpt>
      <trkpt lat="43.65331" lon="5.30824">
        <ele>263.4</ele>
        <time>2021-04-25T06:54:52Z</time>
      </trkpt>
      <trkpt lat="43.65335" lon="5.30817">
        <ele>263.4</ele>
        <time>2021-04-25T06:54:53Z</time>
      </trkpt>
      <trkpt lat="43.65357" lon="5.30762">
        <ele>263.6</ele>
        <time>2021-04-25T06:55:01Z</time>
      </trkpt>
      <trkpt lat="43.65381" lon="5.30691">
        <ele>263.4</ele>
        <time>2021-04-25T06:55:12Z</time>
      </trkpt>
      <trkpt lat="43.65383" lon="5.3069">
        <ele>263</ele>
        <time>2021-04-25T06:55:14Z</time>
      </trkpt>
      <trkpt lat="43.65398" lon="5.30694">
        <ele>262.8</ele>
        <time>2021-04-25T06:55:21Z</time>
      </trkpt>
      <trkpt lat="43.65418" lon="5.30698">
        <ele>262.8</ele>
        <time>2021-04-25T06:55:27Z</time>
      </trkpt>
      <trkpt lat="43.65424" lon="5.30694">
        <ele>263</ele>
        <time>2021-04-25T06:55:29Z</time>
      </trkpt>
      <trkpt lat="43.65432" lon="5.30681">
        <ele>262.6</ele>
        <time>2021-04-25T06:55:33Z</time>
      </trkpt>
      <trkpt lat="43.65447" lon="5.30674">
        <ele>262.8</ele>
        <time>2021-04-25T06:55:37Z</time>
      </trkpt>
      <trkpt lat="43.65452" lon="5.3068">
        <ele>262.6</ele>
        <time>2021-04-25T06:55:39Z</time>
      </trkpt>
      <trkpt lat="43.65461" lon="5.3071">
        <ele>262.6</ele>
        <time>2021-04-25T06:55:45Z</time>
      </trkpt>
      <trkpt lat="43.65469" lon="5.3073">
        <ele>262.6</ele>
        <time>2021-04-25T06:55:49Z</time>
      </trkpt>
      <trkpt lat="43.65483" lon="5.30755">
        <ele>262.6</ele>
        <time>2021-04-25T06:55:55Z</time>
      </trkpt>
      <trkpt lat="43.65484" lon="5.30799">
        <ele>262.6</ele>
        <time>2021-04-25T06:56:06Z</time>
      </trkpt>
      <trkpt lat="43.65471" lon="5.30839">
        <ele>263</ele>
        <time>2021-04-25T06:56:15Z</time>
      </trkpt>
      <trkpt lat="43.65469" lon="5.30871">
        <ele>263</ele>
        <time>2021-04-25T06:56:21Z</time>
      </trkpt>
      <trkpt lat="43.65466" lon="5.30925">
        <ele>263.2</ele>
        <time>2021-04-25T06:56:31Z</time>
      </trkpt>
      <trkpt lat="43.65465" lon="5.3098">
        <ele>263.4</ele>
        <time>2021-04-25T06:56:42Z</time>
      </trkpt>
      <trkpt lat="43.65466" lon="5.31009">
        <ele>263.6</ele>
        <time>2021-04-25T06:56:48Z</time>
      </trkpt>
      <trkpt lat="43.65461" lon="5.31061">
        <ele>264.2</ele>
        <time>2021-04-25T06:56:59Z</time>
      </trkpt>
      <trkpt lat="43.65457" lon="5.31126">
        <ele>264.8</ele>
        <time>2021-04-25T06:57:11Z</time>
      </trkpt>
      <trkpt lat="43.65458" lon="5.31154">
        <ele>265.2</ele>
        <time>2021-04-25T06:57:16Z</time>
      </trkpt>
      <trkpt lat="43.65457" lon="5.31213">
        <ele>266</ele>
        <time>2021-04-25T06:57:28Z</time>
      </trkpt>
      <trkpt lat="43.65459" lon="5.31247">
        <ele>266.2</ele>
        <time>2021-04-25T06:57:35Z</time>
      </trkpt>
      <trkpt lat="43.65462" lon="5.31249">
        <ele>266.4</ele>
        <time>2021-04-25T06:57:36Z</time>
      </trkpt>
      <trkpt lat="43.65478" lon="5.31254">
        <ele>266.6</ele>
        <time>2021-04-25T06:57:40Z</time>
      </trkpt>
      <trkpt lat="43.65517" lon="5.31278">
        <ele>268</ele>
        <time>2021-04-25T06:57:52Z</time>
      </trkpt>
      <trkpt lat="43.65526" lon="5.31295">
        <ele>268.4</ele>
        <time>2021-04-25T06:57:56Z</time>
      </trkpt>
      <trkpt lat="43.65548" lon="5.31348">
        <ele>269.2</ele>
        <time>2021-04-25T06:58:07Z</time>
      </trkpt>
      <trkpt lat="43.65578" lon="5.31385">
        <ele>270.2</ele>
        <time>2021-04-25T06:58:17Z</time>
      </trkpt>
      <trkpt lat="43.65586" lon="5.31391">
        <ele>270.4</ele>
        <time>2021-04-25T06:58:19Z</time>
      </trkpt>
      <trkpt lat="43.65649" lon="5.31439">
        <ele>271.8</ele>
        <time>2021-04-25T06:58:35Z</time>
      </trkpt>
      <trkpt lat="43.65681" lon="5.31446">
        <ele>272.4</ele>
        <time>2021-04-25T06:58:42Z</time>
      </trkpt>
      <trkpt lat="43.65709" lon="5.3145">
        <ele>272.8</ele>
        <time>2021-04-25T06:58:48Z</time>
      </trkpt>
      <trkpt lat="43.65713" lon="5.31449">
        <ele>273</ele>
        <time>2021-04-25T06:58:49Z</time>
      </trkpt>
      <trkpt lat="43.65736" lon="5.31439">
        <ele>273.4</ele>
        <time>2021-04-25T06:58:54Z</time>
      </trkpt>
      <trkpt lat="43.65767" lon="5.31441">
        <ele>273.8</ele>
        <time>2021-04-25T06:59:01Z</time>
      </trkpt>
      <trkpt lat="43.65776" lon="5.31443">
        <ele>274</ele>
        <time>2021-04-25T06:59:03Z</time>
      </trkpt>
      <trkpt lat="43.6579" lon="5.3144">
        <ele>274.4</ele>
        <time>2021-04-25T06:59:06Z</time>
      </trkpt>
      <trkpt lat="43.65799" lon="5.31434">
        <ele>274.6</ele>
        <time>2021-04-25T06:59:08Z</time>
      </trkpt>
      <trkpt lat="43.6581" lon="5.31421">
        <ele>275</ele>
        <time>2021-04-25T06:59:11Z</time>
      </trkpt>
      <trkpt lat="43.65827" lon="5.31419">
        <ele>275.2</ele>
        <time>2021-04-25T06:59:15Z</time>
      </trkpt>
      <trkpt lat="43.65838" lon="5.31429">
        <ele>275.6</ele>
        <time>2021-04-25T06:59:18Z</time>
      </trkpt>
      <trkpt lat="43.65841" lon="5.31435">
        <ele>275.6</ele>
        <time>2021-04-25T06:59:19Z</time>
      </trkpt>
      <trkpt lat="43.65852" lon="5.31448">
        <ele>275.8</ele>
        <time>2021-04-25T06:59:22Z</time>
      </trkpt>
      <trkpt lat="43.65866" lon="5.31453">
        <ele>276</ele>
        <time>2021-04-25T06:59:25Z</time>
      </trkpt>
      <trkpt lat="43.65871" lon="5.31454">
        <ele>276.2</ele>
        <time>2021-04-25T06:59:26Z</time>
      </trkpt>
      <trkpt lat="43.65921" lon="5.31449">
        <ele>277</ele>
        <time>2021-04-25T06:59:37Z</time>
      </trkpt>
      <trkpt lat="43.65945" lon="5.31455">
        <ele>277.6</ele>
        <time>2021-04-25T06:59:45Z</time>
      </trkpt>
      <trkpt lat="43.65946" lon="5.31459">
        <ele>277.6</ele>
        <time>2021-04-25T06:59:48Z</time>
      </trkpt>
      <trkpt lat="43.65954" lon="5.31462">
        <ele>277.8</ele>
        <time>2021-04-25T06:59:52Z</time>
      </trkpt>
      <trkpt lat="43.65963" lon="5.31461">
        <ele>277.8</ele>
        <time>2021-04-25T06:59:55Z</time>
      </trkpt>
      <trkpt lat="43.65968" lon="5.31462">
        <ele>278</ele>
        <time>2021-04-25T06:59:57Z</time>
      </trkpt>
      <trkpt lat="43.65975" lon="5.31463">
        <ele>277.8</ele>
        <time>2021-04-25T07:00:01Z</time>
      </trkpt>
      <trkpt lat="43.65984" lon="5.31461">
        <ele>278.2</ele>
        <time>2021-04-25T07:00:05Z</time>
      </trkpt>
      <trkpt lat="43.6599" lon="5.31459">
        <ele>278.2</ele>
        <time>2021-04-25T07:00:08Z</time>
      </trkpt>
      <trkpt lat="43.66003" lon="5.3143">
        <ele>278.2</ele>
        <time>2021-04-25T07:00:12Z</time>
      </trkpt>
      <trkpt lat="43.66009" lon="5.31428">
        <ele>278.4</ele>
        <time>2021-04-25T07:00:15Z</time>
      </trkpt>
      <trkpt lat="43.66011" lon="5.31429">
        <ele>278.2</ele>
        <time>2021-04-25T07:00:16Z</time>
      </trkpt>
      <trkpt lat="43.66025" lon="5.31446">
        <ele>278.4</ele>
        <time>2021-04-25T07:00:25Z</time>
      </trkpt>
      <trkpt lat="43.66042" lon="5.31453">
        <ele>277.8</ele>
        <time>2021-04-25T07:00:30Z</time>
      </trkpt>
      <trkpt lat="43.66053" lon="5.31459">
        <ele>278</ele>
        <time>2021-04-25T07:00:33Z</time>
      </trkpt>
      <trkpt lat="43.66062" lon="5.31468">
        <ele>277.8</ele>
        <time>2021-04-25T07:00:35Z</time>
      </trkpt>
      <trkpt lat="43.66101" lon="5.31524">
        <ele>277.2</ele>
        <time>2021-04-25T07:00:44Z</time>
      </trkpt>
      <trkpt lat="43.66111" lon="5.31532">
        <ele>277</ele>
        <time>2021-04-25T07:00:46Z</time>
      </trkpt>
      <trkpt lat="43.66134" lon="5.31535">
        <ele>277</ele>
        <time>2021-04-25T07:00:50Z</time>
      </trkpt>
      <trkpt lat="43.66154" lon="5.31535">
        <ele>276.8</ele>
        <time>2021-04-25T07:00:54Z</time>
      </trkpt>
      <trkpt lat="43.66168" lon="5.31538">
        <ele>277</ele>
        <time>2021-04-25T07:00:57Z</time>
      </trkpt>
      <trkpt lat="43.66219" lon="5.31549">
        <ele>277</ele>
        <time>2021-04-25T07:01:08Z</time>
      </trkpt>
      <trkpt lat="43.66242" lon="5.31548">
        <ele>276.8</ele>
        <time>2021-04-25T07:01:13Z</time>
      </trkpt>
      <trkpt lat="43.66265" lon="5.31538">
        <ele>277.2</ele>
        <time>2021-04-25T07:01:18Z</time>
      </trkpt>
      <trkpt lat="43.6628" lon="5.31523">
        <ele>277.6</ele>
        <time>2021-04-25T07:01:22Z</time>
      </trkpt>
      <trkpt lat="43.663" lon="5.31505">
        <ele>278</ele>
        <time>2021-04-25T07:01:28Z</time>
      </trkpt>
      <trkpt lat="43.66309" lon="5.31496">
        <ele>278.4</ele>
        <time>2021-04-25T07:01:32Z</time>
      </trkpt>
      <trkpt lat="43.66347" lon="5.31478">
        <ele>279.2</ele>
        <time>2021-04-25T07:01:42Z</time>
      </trkpt>
      <trkpt lat="43.66385" lon="5.31479">
        <ele>279.8</ele>
        <time>2021-04-25T07:01:50Z</time>
      </trkpt>
      <trkpt lat="43.66398" lon="5.31488">
        <ele>279.6</ele>
        <time>2021-04-25T07:01:53Z</time>
      </trkpt>
      <trkpt lat="43.66417" lon="5.31494">
        <ele>279.6</ele>
        <time>2021-04-25T07:01:57Z</time>
      </trkpt>
      <trkpt lat="43.66472" lon="5.31501">
        <ele>279.8</ele>
        <time>2021-04-25T07:02:09Z</time>
      </trkpt>
      <trkpt lat="43.6648" lon="5.31503">
        <ele>279.6</ele>
        <time>2021-04-25T07:02:11Z</time>
      </trkpt>
      <trkpt lat="43.66539" lon="5.31522">
        <ele>279.2</ele>
        <time>2021-04-25T07:02:24Z</time>
      </trkpt>
      <trkpt lat="43.66619" lon="5.31554">
        <ele>279.6</ele>
        <time>2021-04-25T07:02:42Z</time>
      </trkpt>
      <trkpt lat="43.66642" lon="5.31566">
        <ele>280</ele>
        <time>2021-04-25T07:02:48Z</time>
      </trkpt>
      <trkpt lat="43.66697" lon="5.31595">
        <ele>280.6</ele>
        <time>2021-04-25T07:03:02Z</time>
      </trkpt>
      <trkpt lat="43.66747" lon="5.31639">
        <ele>281.2</ele>
        <time>2021-04-25T07:03:18Z</time>
      </trkpt>
      <trkpt lat="43.66781" lon="5.31672">
        <ele>282.6</ele>
        <time>2021-04-25T07:03:30Z</time>
      </trkpt>
      <trkpt lat="43.66802" lon="5.31684">
        <ele>283</ele>
        <time>2021-04-25T07:03:36Z</time>
      </trkpt>
      <trkpt lat="43.6684" lon="5.31703">
        <ele>284.6</ele>
        <time>2021-04-25T07:03:49Z</time>
      </trkpt>
      <trkpt lat="43.66868" lon="5.31731">
        <ele>286.2</ele>
        <time>2021-04-25T07:04:00Z</time>
      </trkpt>
      <trkpt lat="43.66872" lon="5.31735">
        <ele>286.4</ele>
        <time>2021-04-25T07:04:02Z</time>
      </trkpt>
      <trkpt lat="43.66892" lon="5.3175">
        <ele>287.4</ele>
        <time>2021-04-25T07:04:10Z</time>
      </trkpt>
      <trkpt lat="43.66914" lon="5.31741">
        <ele>289.2</ele>
        <time>2021-04-25T07:04:19Z</time>
      </trkpt>
      <trkpt lat="43.6692" lon="5.31719">
        <ele>290.2</ele>
        <time>2021-04-25T07:04:24Z</time>
      </trkpt>
      <trkpt lat="43.66938" lon="5.31695">
        <ele>292</ele>
        <time>2021-04-25T07:04:32Z</time>
      </trkpt>
      <trkpt lat="43.66965" lon="5.31664">
        <ele>295</ele>
        <time>2021-04-25T07:04:43Z</time>
      </trkpt>
      <trkpt lat="43.66979" lon="5.31647">
        <ele>296.2</ele>
        <time>2021-04-25T07:04:48Z</time>
      </trkpt>
      <trkpt lat="43.67011" lon="5.31616">
        <ele>299.6</ele>
        <time>2021-04-25T07:05:01Z</time>
      </trkpt>
      <trkpt lat="43.67036" lon="5.31603">
        <ele>302.4</ele>
        <time>2021-04-25T07:05:10Z</time>
      </trkpt>
      <trkpt lat="43.67057" lon="5.3159">
        <ele>304.2</ele>
        <time>2021-04-25T07:05:16Z</time>
      </trkpt>
      <trkpt lat="43.67083" lon="5.31547">
        <ele>305.8</ele>
        <time>2021-04-25T07:05:27Z</time>
      </trkpt>
      <trkpt lat="43.67101" lon="5.31502">
        <ele>307.6</ele>
        <time>2021-04-25T07:05:38Z</time>
      </trkpt>
      <trkpt lat="43.67105" lon="5.31481">
        <ele>308.4</ele>
        <time>2021-04-25T07:05:43Z</time>
      </trkpt>
      <trkpt lat="43.67107" lon="5.31445">
        <ele>309.6</ele>
        <time>2021-04-25T07:05:51Z</time>
      </trkpt>
      <trkpt lat="43.67122" lon="5.31413">
        <ele>311</ele>
        <time>2021-04-25T07:05:59Z</time>
      </trkpt>
      <trkpt lat="43.67132" lon="5.31394">
        <ele>311.8</ele>
        <time>2021-04-25T07:06:04Z</time>
      </trkpt>
      <trkpt lat="43.67156" lon="5.31343">
        <ele>313.4</ele>
        <time>2021-04-25T07:06:16Z</time>
      </trkpt>
      <trkpt lat="43.67178" lon="5.31299">
        <ele>315.2</ele>
        <time>2021-04-25T07:06:27Z</time>
      </trkpt>
      <trkpt lat="43.67188" lon="5.3128">
        <ele>315.6</ele>
        <time>2021-04-25T07:06:31Z</time>
      </trkpt>
      <trkpt lat="43.67195" lon="5.31258">
        <ele>316.4</ele>
        <time>2021-04-25T07:06:36Z</time>
      </trkpt>
      <trkpt lat="43.67192" lon="5.31249">
        <ele>317</ele>
        <time>2021-04-25T07:06:39Z</time>
      </trkpt>
      <trkpt lat="43.67189" lon="5.31243">
        <ele>317.2</ele>
        <time>2021-04-25T07:06:41Z</time>
      </trkpt>
      <trkpt lat="43.67188" lon="5.31232">
        <ele>318</ele>
        <time>2021-04-25T07:06:45Z</time>
      </trkpt>
      <trkpt lat="43.67188" lon="5.31222">
        <ele>318.4</ele>
        <time>2021-04-25T07:06:48Z</time>
      </trkpt>
      <trkpt lat="43.67192" lon="5.31214">
        <ele>318.8</ele>
        <time>2021-04-25T07:06:50Z</time>
      </trkpt>
      <trkpt lat="43.67203" lon="5.31163">
        <ele>320.2</ele>
        <time>2021-04-25T07:07:01Z</time>
      </trkpt>
      <trkpt lat="43.67217" lon="5.31126">
        <ele>321.2</ele>
        <time>2021-04-25T07:07:10Z</time>
      </trkpt>
      <trkpt lat="43.67231" lon="5.31107">
        <ele>322.4</ele>
        <time>2021-04-25T07:07:16Z</time>
      </trkpt>
      <trkpt lat="43.67261" lon="5.31088">
        <ele>324.4</ele>
        <time>2021-04-25T07:07:27Z</time>
      </trkpt>
      <trkpt lat="43.67293" lon="5.31078">
        <ele>325.6</ele>
        <time>2021-04-25T07:07:36Z</time>
      </trkpt>
      <trkpt lat="43.67302" lon="5.31076">
        <ele>325.8</ele>
        <time>2021-04-25T07:07:38Z</time>
      </trkpt>
      <trkpt lat="43.67332" lon="5.3107">
        <ele>326.6</ele>
        <time>2021-04-25T07:07:46Z</time>
      </trkpt>
      <trkpt lat="43.67377" lon="5.31061">
        <ele>328</ele>
        <time>2021-04-25T07:07:58Z</time>
      </trkpt>
      <trkpt lat="43.67386" lon="5.31063">
        <ele>328.2</ele>
        <time>2021-04-25T07:08:00Z</time>
      </trkpt>
      <trkpt lat="43.67415" lon="5.31068">
        <ele>328.6</ele>
        <time>2021-04-25T07:08:06Z</time>
      </trkpt>
      <trkpt lat="43.67435" lon="5.31078">
        <ele>328.6</ele>
        <time>2021-04-25T07:08:09Z</time>
      </trkpt>
      <trkpt lat="43.67443" lon="5.31084">
        <ele>328.6</ele>
        <time>2021-04-25T07:08:12Z</time>
      </trkpt>
      <trkpt lat="43.67444" lon="5.31103">
        <ele>328.4</ele>
        <time>2021-04-25T07:08:19Z</time>
      </trkpt>
      <trkpt lat="43.67459" lon="5.31114">
        <ele>327.8</ele>
        <time>2021-04-25T07:08:24Z</time>
      </trkpt>
      <trkpt lat="43.67463" lon="5.31111">
        <ele>327.6</ele>
        <time>2021-04-25T07:08:25Z</time>
      </trkpt>
      <trkpt lat="43.67478" lon="5.31083">
        <ele>326.4</ele>
        <time>2021-04-25T07:08:33Z</time>
      </trkpt>
      <trkpt lat="43.67491" lon="5.31077">
        <ele>325.8</ele>
        <time>2021-04-25T07:08:38Z</time>
      </trkpt>
      <trkpt lat="43.67494" lon="5.31076">
        <ele>325.4</ele>
        <time>2021-04-25T07:08:40Z</time>
      </trkpt>
      <trkpt lat="43.67496" lon="5.31077">
        <ele>325</ele>
        <time>2021-04-25T07:08:43Z</time>
      </trkpt>
      <trkpt lat="43.67497" lon="5.31083">
        <ele>324.2</ele>
        <time>2021-04-25T07:08:46Z</time>
      </trkpt>
      <trkpt lat="43.6751" lon="5.31094">
        <ele>322.6</ele>
        <time>2021-04-25T07:08:51Z</time>
      </trkpt>
      <trkpt lat="43.67513" lon="5.31098">
        <ele>322.2</ele>
        <time>2021-04-25T07:08:52Z</time>
      </trkpt>
      <trkpt lat="43.67527" lon="5.31106">
        <ele>321</ele>
        <time>2021-04-25T07:08:55Z</time>
      </trkpt>
      <trkpt lat="43.67556" lon="5.31108">
        <ele>318.8</ele>
        <time>2021-04-25T07:09:00Z</time>
      </trkpt>
      <trkpt lat="43.67569" lon="5.31102">
        <ele>317.8</ele>
        <time>2021-04-25T07:09:02Z</time>
      </trkpt>
      <trkpt lat="43.67583" lon="5.31105">
        <ele>317</ele>
        <time>2021-04-25T07:09:04Z</time>
      </trkpt>
      <trkpt lat="43.67615" lon="5.31092">
        <ele>314.6</ele>
        <time>2021-04-25T07:09:09Z</time>
      </trkpt>
      <trkpt lat="43.6762" lon="5.31088">
        <ele>314.4</ele>
        <time>2021-04-25T07:09:10Z</time>
      </trkpt>
      <trkpt lat="43.67638" lon="5.31077">
        <ele>313.2</ele>
        <time>2021-04-25T07:09:14Z</time>
      </trkpt>
      <trkpt lat="43.67665" lon="5.31057">
        <ele>310.4</ele>
        <time>2021-04-25T07:09:25Z</time>
      </trkpt>
      <trkpt lat="43.67682" lon="5.31042">
        <ele>309</ele>
        <time>2021-04-25T07:09:32Z</time>
      </trkpt>
      <trkpt lat="43.67695" lon="5.31005">
        <ele>306.4</ele>
        <time>2021-04-25T07:09:43Z</time>
      </trkpt>
      <trkpt lat="43.67708" lon="5.30959">
        <ele>303.6</ele>
        <time>2021-04-25T07:09:55Z</time>
      </trkpt>
      <trkpt lat="43.67711" lon="5.30928">
        <ele>302.4</ele>
        <time>2021-04-25T07:10:02Z</time>
      </trkpt>
      <trkpt lat="43.67708" lon="5.30866">
        <ele>301</ele>
        <time>2021-04-25T07:10:14Z</time>
      </trkpt>
      <trkpt lat="43.67707" lon="5.30815">
        <ele>300.6</ele>
        <time>2021-04-25T07:10:24Z</time>
      </trkpt>
      <trkpt lat="43.67708" lon="5.30786">
        <ele>300.4</ele>
        <time>2021-04-25T07:10:30Z</time>
      </trkpt>
      <trkpt lat="43.67722" lon="5.30736">
        <ele>299.8</ele>
        <time>2021-04-25T07:10:42Z</time>
      </trkpt>
      <trkpt lat="43.67732" lon="5.30708">
        <ele>300</ele>
        <time>2021-04-25T07:10:50Z</time>
      </trkpt>
      <trkpt lat="43.67735" lon="5.30707">
        <ele>300</ele>
        <time>2021-04-25T07:10:51Z</time>
      </trkpt>
      <trkpt lat="43.67757" lon="5.30701">
        <ele>300.8</ele>
        <time>2021-04-25T07:10:57Z</time>
      </trkpt>
      <trkpt lat="43.67773" lon="5.30698">
        <ele>300.4</ele>
        <time>2021-04-25T07:11:01Z</time>
      </trkpt>
      <trkpt lat="43.67783" lon="5.30711">
        <ele>300.8</ele>
        <time>2021-04-25T07:11:05Z</time>
      </trkpt>
      <trkpt lat="43.67801" lon="5.30746">
        <ele>301.8</ele>
        <time>2021-04-25T07:11:15Z</time>
      </trkpt>
      <trkpt lat="43.67814" lon="5.30769">
        <ele>303</ele>
        <time>2021-04-25T07:11:23Z</time>
      </trkpt>
      <trkpt lat="43.67819" lon="5.30769">
        <ele>303.2</ele>
        <time>2021-04-25T07:11:25Z</time>
      </trkpt>
      <trkpt lat="43.6784" lon="5.30754">
        <ele>304.6</ele>
        <time>2021-04-25T07:11:34Z</time>
      </trkpt>
      <trkpt lat="43.67844" lon="5.30727">
        <ele>306.2</ele>
        <time>2021-04-25T07:11:44Z</time>
      </trkpt>
      <trkpt lat="43.67846" lon="5.30725">
        <ele>306.2</ele>
        <time>2021-04-25T07:11:46Z</time>
      </trkpt>
      <trkpt lat="43.67863" lon="5.30735">
        <ele>307.4</ele>
        <time>2021-04-25T07:11:55Z</time>
      </trkpt>
      <trkpt lat="43.67871" lon="5.30745">
        <ele>308.2</ele>
        <time>2021-04-25T07:11:59Z</time>
      </trkpt>
      <trkpt lat="43.6788" lon="5.3076">
        <ele>309.2</ele>
        <time>2021-04-25T07:12:04Z</time>
      </trkpt>
      <trkpt lat="43.67893" lon="5.30783">
        <ele>310.6</ele>
        <time>2021-04-25T07:12:14Z</time>
      </trkpt>
      <trkpt lat="43.67897" lon="5.30791">
        <ele>312</ele>
        <time>2021-04-25T07:12:27Z</time>
      </trkpt>
      <trkpt lat="43.67907" lon="5.30805">
        <ele>312.2</ele>
        <time>2021-04-25T07:12:32Z</time>
      </trkpt>
      <trkpt lat="43.67932" lon="5.30835">
        <ele>312.6</ele>
        <time>2021-04-25T07:12:40Z</time>
      </trkpt>
      <trkpt lat="43.67944" lon="5.30846">
        <ele>312.8</ele>
        <time>2021-04-25T07:12:43Z</time>
      </trkpt>
      <trkpt lat="43.67953" lon="5.30854">
        <ele>312.8</ele>
        <time>2021-04-25T07:12:45Z</time>
      </trkpt>
      <trkpt lat="43.6797" lon="5.30877">
        <ele>313</ele>
        <time>2021-04-25T07:12:50Z</time>
      </trkpt>
      <trkpt lat="43.67981" lon="5.30885">
        <ele>313.2</ele>
        <time>2021-04-25T07:12:52Z</time>
      </trkpt>
      <trkpt lat="43.6799" lon="5.30898">
        <ele>313.2</ele>
        <time>2021-04-25T07:12:54Z</time>
      </trkpt>
      <trkpt lat="43.68003" lon="5.30911">
        <ele>313.2</ele>
        <time>2021-04-25T07:12:57Z</time>
      </trkpt>
      <trkpt lat="43.68034" lon="5.30925">
        <ele>313.2</ele>
        <time>2021-04-25T07:13:04Z</time>
      </trkpt>
      <trkpt lat="43.68044" lon="5.30927">
        <ele>313.2</ele>
        <time>2021-04-25T07:13:06Z</time>
      </trkpt>
      <trkpt lat="43.68071" lon="5.30941">
        <ele>313.2</ele>
        <time>2021-04-25T07:13:11Z</time>
      </trkpt>
      <trkpt lat="43.68114" lon="5.30968">
        <ele>311.8</ele>
        <time>2021-04-25T07:13:18Z</time>
      </trkpt>
      <trkpt lat="43.68118" lon="5.30965">
        <ele>311</ele>
        <time>2021-04-25T07:13:21Z</time>
      </trkpt>
      <trkpt lat="43.68121" lon="5.30961">
        <ele>310.4</ele>
        <time>2021-04-25T07:13:24Z</time>
      </trkpt>
      <trkpt lat="43.68122" lon="5.30948">
        <ele>309.6</ele>
        <time>2021-04-25T07:13:29Z</time>
      </trkpt>
      <trkpt lat="43.68131" lon="5.30923">
        <ele>309</ele>
        <time>2021-04-25T07:13:36Z</time>
      </trkpt>
      <trkpt lat="43.68135" lon="5.30904">
        <ele>308.4</ele>
        <time>2021-04-25T07:13:42Z</time>
      </trkpt>
      <trkpt lat="43.6814" lon="5.30875">
        <ele>307</ele>
        <time>2021-04-25T07:13:52Z</time>
      </trkpt>
      <trkpt lat="43.68157" lon="5.3085">
        <ele>306</ele>
        <time>2021-04-25T07:13:59Z</time>
      </trkpt>
      <trkpt lat="43.6816" lon="5.30846">
        <ele>305.6</ele>
        <time>2021-04-25T07:14:00Z</time>
      </trkpt>
      <trkpt lat="43.6818" lon="5.30825">
        <ele>304.6</ele>
        <time>2021-04-25T07:14:05Z</time>
      </trkpt>
      <trkpt lat="43.68189" lon="5.30816">
        <ele>304.2</ele>
        <time>2021-04-25T07:14:08Z</time>
      </trkpt>
      <trkpt lat="43.68196" lon="5.30802">
        <ele>303.4</ele>
        <time>2021-04-25T07:14:12Z</time>
      </trkpt>
      <trkpt lat="43.68225" lon="5.30779">
        <ele>302.4</ele>
        <time>2021-04-25T07:14:23Z</time>
      </trkpt>
      <trkpt lat="43.68244" lon="5.30763">
        <ele>301.6</ele>
        <time>2021-04-25T07:14:31Z</time>
      </trkpt>
      <trkpt lat="43.68246" lon="5.30762">
        <ele>301.6</ele>
        <time>2021-04-25T07:14:32Z</time>
      </trkpt>
      <trkpt lat="43.68272" lon="5.30741">
        <ele>302.4</ele>
        <time>2021-04-25T07:14:43Z</time>
      </trkpt>
      <trkpt lat="43.68293" lon="5.30717">
        <ele>303.2</ele>
        <time>2021-04-25T07:14:52Z</time>
      </trkpt>
      <trkpt lat="43.68306" lon="5.30701">
        <ele>304.2</ele>
        <time>2021-04-25T07:14:58Z</time>
      </trkpt>
      <trkpt lat="43.68336" lon="5.30676">
        <ele>306.2</ele>
        <time>2021-04-25T07:15:10Z</time>
      </trkpt>
      <trkpt lat="43.68364" lon="5.3064">
        <ele>308.2</ele>
        <time>2021-04-25T07:15:22Z</time>
      </trkpt>
      <trkpt lat="43.68376" lon="5.30628">
        <ele>309.2</ele>
        <time>2021-04-25T07:15:27Z</time>
      </trkpt>
      <trkpt lat="43.68399" lon="5.30618">
        <ele>311</ele>
        <time>2021-04-25T07:15:36Z</time>
      </trkpt>
      <trkpt lat="43.68423" lon="5.30604">
        <ele>313.8</ele>
        <time>2021-04-25T07:15:47Z</time>
      </trkpt>
      <trkpt lat="43.68434" lon="5.30598">
        <ele>315.2</ele>
        <time>2021-04-25T07:15:53Z</time>
      </trkpt>
      <trkpt lat="43.68441" lon="5.30601">
        <ele>316.2</ele>
        <time>2021-04-25T07:15:58Z</time>
      </trkpt>
      <trkpt lat="43.68448" lon="5.30643">
        <ele>318.6</ele>
        <time>2021-04-25T07:16:10Z</time>
      </trkpt>
      <trkpt lat="43.68457" lon="5.30665">
        <ele>319.2</ele>
        <time>2021-04-25T07:16:15Z</time>
      </trkpt>
      <trkpt lat="43.6847" lon="5.30683">
        <ele>320</ele>
        <time>2021-04-25T07:16:21Z</time>
      </trkpt>
      <trkpt lat="43.68479" lon="5.30708">
        <ele>321</ele>
        <time>2021-04-25T07:16:27Z</time>
      </trkpt>
      <trkpt lat="43.68487" lon="5.30737">
        <ele>321.8</ele>
        <time>2021-04-25T07:16:33Z</time>
      </trkpt>
      <trkpt lat="43.68499" lon="5.30802">
        <ele>323.8</ele>
        <time>2021-04-25T07:16:47Z</time>
      </trkpt>
      <trkpt lat="43.6851" lon="5.30849">
        <ele>325.2</ele>
        <time>2021-04-25T07:16:57Z</time>
      </trkpt>
      <trkpt lat="43.68522" lon="5.30876">
        <ele>326.2</ele>
        <time>2021-04-25T07:17:03Z</time>
      </trkpt>
      <trkpt lat="43.68545" lon="5.30918">
        <ele>327.8</ele>
        <time>2021-04-25T07:17:14Z</time>
      </trkpt>
      <trkpt lat="43.68569" lon="5.30948">
        <ele>329.4</ele>
        <time>2021-04-25T07:17:23Z</time>
      </trkpt>
      <trkpt lat="43.68576" lon="5.30947">
        <ele>329.6</ele>
        <time>2021-04-25T07:17:25Z</time>
      </trkpt>
      <trkpt lat="43.68607" lon="5.30925">
        <ele>331.6</ele>
        <time>2021-04-25T07:17:36Z</time>
      </trkpt>
      <trkpt lat="43.68627" lon="5.30885">
        <ele>333.2</ele>
        <time>2021-04-25T07:17:46Z</time>
      </trkpt>
      <trkpt lat="43.68637" lon="5.30863">
        <ele>334.2</ele>
        <time>2021-04-25T07:17:52Z</time>
      </trkpt>
      <trkpt lat="43.68652" lon="5.30847">
        <ele>335.4</ele>
        <time>2021-04-25T07:18:00Z</time>
      </trkpt>
      <trkpt lat="43.68674" lon="5.30857">
        <ele>336.8</ele>
        <time>2021-04-25T07:18:07Z</time>
      </trkpt>
      <trkpt lat="43.68686" lon="5.30853">
        <ele>337.6</ele>
        <time>2021-04-25T07:18:11Z</time>
      </trkpt>
      <trkpt lat="43.68707" lon="5.30833">
        <ele>339.4</ele>
        <time>2021-04-25T07:18:20Z</time>
      </trkpt>
      <trkpt lat="43.68729" lon="5.3081">
        <ele>341.2</ele>
        <time>2021-04-25T07:18:29Z</time>
      </trkpt>
      <trkpt lat="43.6874" lon="5.30797">
        <ele>342.4</ele>
        <time>2021-04-25T07:18:34Z</time>
      </trkpt>
      <trkpt lat="43.6876" lon="5.30771">
        <ele>344.8</ele>
        <time>2021-04-25T07:18:45Z</time>
      </trkpt>
      <trkpt lat="43.68783" lon="5.30764">
        <ele>347.2</ele>
        <time>2021-04-25T07:18:55Z</time>
      </trkpt>
      <trkpt lat="43.68794" lon="5.30759">
        <ele>348.6</ele>
        <time>2021-04-25T07:19:00Z</time>
      </trkpt>
      <trkpt lat="43.68816" lon="5.30741">
        <ele>352.4</ele>
        <time>2021-04-25T07:19:11Z</time>
      </trkpt>
      <trkpt lat="43.68841" lon="5.30716">
        <ele>356.6</ele>
        <time>2021-04-25T07:19:22Z</time>
      </trkpt>
      <trkpt lat="43.68854" lon="5.30701">
        <ele>359</ele>
        <time>2021-04-25T07:19:28Z</time>
      </trkpt>
      <trkpt lat="43.68874" lon="5.30677">
        <ele>364.2</ele>
        <time>2021-04-25T07:19:39Z</time>
      </trkpt>
      <trkpt lat="43.68895" lon="5.30658">
        <ele>369.4</ele>
        <time>2021-04-25T07:19:50Z</time>
      </trkpt>
      <trkpt lat="43.68907" lon="5.30646">
        <ele>372.4</ele>
        <time>2021-04-25T07:19:56Z</time>
      </trkpt>
      <trkpt lat="43.68934" lon="5.3062">
        <ele>377.8</ele>
        <time>2021-04-25T07:20:08Z</time>
      </trkpt>
      <trkpt lat="43.68956" lon="5.30602">
        <ele>382</ele>
        <time>2021-04-25T07:20:18Z</time>
      </trkpt>
      <trkpt lat="43.68975" lon="5.30567">
        <ele>385.6</ele>
        <time>2021-04-25T07:20:29Z</time>
      </trkpt>
      <trkpt lat="43.6898" lon="5.30546">
        <ele>386.2</ele>
        <time>2021-04-25T07:20:34Z</time>
      </trkpt>
      <trkpt lat="43.68997" lon="5.3051">
        <ele>388.8</ele>
        <time>2021-04-25T07:20:47Z</time>
      </trkpt>
      <trkpt lat="43.69006" lon="5.30484">
        <ele>390.4</ele>
        <time>2021-04-25T07:20:55Z</time>
      </trkpt>
      <trkpt lat="43.69004" lon="5.30477">
        <ele>390.8</ele>
        <time>2021-04-25T07:20:57Z</time>
      </trkpt>
      <trkpt lat="43.68993" lon="5.30474">
        <ele>391.6</ele>
        <time>2021-04-25T07:21:01Z</time>
      </trkpt>
      <trkpt lat="43.68967" lon="5.30493">
        <ele>393.4</ele>
        <time>2021-04-25T07:21:11Z</time>
      </trkpt>
      <trkpt lat="43.68964" lon="5.30496">
        <ele>393.6</ele>
        <time>2021-04-25T07:21:12Z</time>
      </trkpt>
      <trkpt lat="43.68938" lon="5.30507">
        <ele>395.2</ele>
        <time>2021-04-25T07:21:19Z</time>
      </trkpt>
      <trkpt lat="43.68917" lon="5.30501">
        <ele>396.8</ele>
        <time>2021-04-25T07:21:25Z</time>
      </trkpt>
      <trkpt lat="43.68917" lon="5.30496">
        <ele>397</ele>
        <time>2021-04-25T07:21:26Z</time>
      </trkpt>
      <trkpt lat="43.6893" lon="5.30492">
        <ele>398.2</ele>
        <time>2021-04-25T07:21:31Z</time>
      </trkpt>
      <trkpt lat="43.68963" lon="5.30467">
        <ele>401.2</ele>
        <time>2021-04-25T07:21:42Z</time>
      </trkpt>
      <trkpt lat="43.6898" lon="5.30441">
        <ele>403.2</ele>
        <time>2021-04-25T07:21:49Z</time>
      </trkpt>
      <trkpt lat="43.68998" lon="5.30389">
        <ele>406.8</ele>
        <time>2021-04-25T07:22:01Z</time>
      </trkpt>
      <trkpt lat="43.69019" lon="5.30373">
        <ele>409.4</ele>
        <time>2021-04-25T07:22:09Z</time>
      </trkpt>
      <trkpt lat="43.69026" lon="5.30378">
        <ele>410.2</ele>
        <time>2021-04-25T07:22:11Z</time>
      </trkpt>
      <trkpt lat="43.69061" lon="5.30403">
        <ele>413.6</ele>
        <time>2021-04-25T07:22:23Z</time>
      </trkpt>
      <trkpt lat="43.69094" lon="5.30426">
        <ele>417.6</ele>
        <time>2021-04-25T07:22:35Z</time>
      </trkpt>
      <trkpt lat="43.69097" lon="5.30439">
        <ele>418.6</ele>
        <time>2021-04-25T07:22:38Z</time>
      </trkpt>
      <trkpt lat="43.69101" lon="5.30441">
        <ele>419.4</ele>
        <time>2021-04-25T07:22:40Z</time>
      </trkpt>
      <trkpt lat="43.69103" lon="5.30424">
        <ele>421.4</ele>
        <time>2021-04-25T07:22:45Z</time>
      </trkpt>
      <trkpt lat="43.6909" lon="5.30401">
        <ele>423.4</ele>
        <time>2021-04-25T07:22:51Z</time>
      </trkpt>
      <trkpt lat="43.69064" lon="5.30361">
        <ele>427.8</ele>
        <time>2021-04-25T07:23:05Z</time>
      </trkpt>
      <trkpt lat="43.69052" lon="5.30316">
        <ele>431.4</ele>
        <time>2021-04-25T07:23:17Z</time>
      </trkpt>
      <trkpt lat="43.69045" lon="5.30289">
        <ele>433.6</ele>
        <time>2021-04-25T07:23:24Z</time>
      </trkpt>
      <trkpt lat="43.69062" lon="5.30253">
        <ele>436.8</ele>
        <time>2021-04-25T07:23:35Z</time>
      </trkpt>
      <trkpt lat="43.6909" lon="5.30212">
        <ele>441.6</ele>
        <time>2021-04-25T07:23:50Z</time>
      </trkpt>
      <trkpt lat="43.69099" lon="5.30188">
        <ele>444</ele>
        <time>2021-04-25T07:23:58Z</time>
      </trkpt>
      <trkpt lat="43.69099" lon="5.30138">
        <ele>447.4</ele>
        <time>2021-04-25T07:24:11Z</time>
      </trkpt>
      <trkpt lat="43.69085" lon="5.30085">
        <ele>451.2</ele>
        <time>2021-04-25T07:24:26Z</time>
      </trkpt>
      <trkpt lat="43.69076" lon="5.30056">
        <ele>453.2</ele>
        <time>2021-04-25T07:24:34Z</time>
      </trkpt>
      <trkpt lat="43.69072" lon="5.30003">
        <ele>457</ele>
        <time>2021-04-25T07:24:49Z</time>
      </trkpt>
      <trkpt lat="43.69074" lon="5.29986">
        <ele>458.8</ele>
        <time>2021-04-25T07:24:56Z</time>
      </trkpt>
      <trkpt lat="43.69076" lon="5.29985">
        <ele>459.4</ele>
        <time>2021-04-25T07:24:58Z</time>
      </trkpt>
      <trkpt lat="43.69076" lon="5.29993">
        <ele>460.2</ele>
        <time>2021-04-25T07:25:02Z</time>
      </trkpt>
      <trkpt lat="43.69073" lon="5.29992">
        <ele>461</ele>
        <time>2021-04-25T07:25:06Z</time>
      </trkpt>
      <trkpt lat="43.69073" lon="5.29989">
        <ele>461.4</ele>
        <time>2021-04-25T07:25:08Z</time>
      </trkpt>
      <trkpt lat="43.69077" lon="5.29983">
        <ele>462.6</ele>
        <time>2021-04-25T07:25:14Z</time>
      </trkpt>
      <trkpt lat="43.69075" lon="5.29976">
        <ele>463.4</ele>
        <time>2021-04-25T07:25:18Z</time>
      </trkpt>
      <trkpt lat="43.69076" lon="5.29975">
        <ele>463.6</ele>
        <time>2021-04-25T07:25:19Z</time>
      </trkpt>
      <trkpt lat="43.69078" lon="5.29977">
        <ele>464.2</ele>
        <time>2021-04-25T07:25:22Z</time>
      </trkpt>
      <trkpt lat="43.69077" lon="5.29983">
        <ele>466.2</ele>
        <time>2021-04-25T07:25:35Z</time>
      </trkpt>
      <trkpt lat="43.69077" lon="5.29983">
        <ele>468.8</ele>
        <time>2021-04-25T07:25:55Z</time>
      </trkpt>
      <trkpt lat="43.69077" lon="5.29983">
        <ele>471.8</ele>
        <time>2021-04-25T07:26:24Z</time>
      </trkpt>
      <trkpt lat="43.69077" lon="5.29987">
        <ele>473.8</ele>
        <time>2021-04-25T07:26:50Z</time>
      </trkpt>
      <trkpt lat="43.69077" lon="5.29989">
        <ele>473.8</ele>
        <time>2021-04-25T07:26:51Z</time>
      </trkpt>
      <trkpt lat="43.69073" lon="5.29987">
        <ele>474</ele>
        <time>2021-04-25T07:26:55Z</time>
      </trkpt>
      <trkpt lat="43.69075" lon="5.29982">
        <ele>474.8</ele>
        <time>2021-04-25T07:27:05Z</time>
      </trkpt>
      <trkpt lat="43.69075" lon="5.29982">
        <ele>476.2</ele>
        <time>2021-04-25T07:27:35Z</time>
      </trkpt>
      <trkpt lat="43.69074" lon="5.29983">
        <ele>477.2</ele>
        <time>2021-04-25T07:27:58Z</time>
      </trkpt>
      <trkpt lat="43.69083" lon="5.29959">
        <ele>477.8</ele>
        <time>2021-04-25T07:28:17Z</time>
      </trkpt>
      <trkpt lat="43.69087" lon="5.29918">
        <ele>478.2</ele>
        <time>2021-04-25T07:28:30Z</time>
      </trkpt>
      <trkpt lat="43.69088" lon="5.299">
        <ele>478.6</ele>
        <time>2021-04-25T07:28:35Z</time>
      </trkpt>
      <trkpt lat="43.69084" lon="5.29851">
        <ele>479.8</ele>
        <time>2021-04-25T07:28:48Z</time>
      </trkpt>
      <trkpt lat="43.69066" lon="5.29775">
        <ele>479.6</ele>
        <time>2021-04-25T07:28:56Z</time>
      </trkpt>
      <trkpt lat="43.69064" lon="5.29763">
        <ele>479.4</ele>
        <time>2021-04-25T07:28:57Z</time>
      </trkpt>
      <trkpt lat="43.69067" lon="5.29713">
        <ele>478.2</ele>
        <time>2021-04-25T07:29:02Z</time>
      </trkpt>
      <trkpt lat="43.69049" lon="5.29654">
        <ele>478.4</ele>
        <time>2021-04-25T07:29:09Z</time>
      </trkpt>
      <trkpt lat="43.69048" lon="5.29648">
        <ele>478.2</ele>
        <time>2021-04-25T07:29:10Z</time>
      </trkpt>
      <trkpt lat="43.6905" lon="5.29592">
        <ele>478</ele>
        <time>2021-04-25T07:29:22Z</time>
      </trkpt>
      <trkpt lat="43.69067" lon="5.29552">
        <ele>478.8</ele>
        <time>2021-04-25T07:29:35Z</time>
      </trkpt>
      <trkpt lat="43.69068" lon="5.29547">
        <ele>478.8</ele>
        <time>2021-04-25T07:29:40Z</time>
      </trkpt>
      <trkpt lat="43.69068" lon="5.29543">
        <ele>478.8</ele>
        <time>2021-04-25T07:29:43Z</time>
      </trkpt>
      <trkpt lat="43.69063" lon="5.29539">
        <ele>478.8</ele>
        <time>2021-04-25T07:29:47Z</time>
      </trkpt>
      <trkpt lat="43.6906" lon="5.29534">
        <ele>478.8</ele>
        <time>2021-04-25T07:29:50Z</time>
      </trkpt>
      <trkpt lat="43.6904" lon="5.29511">
        <ele>478</ele>
        <time>2021-04-25T07:29:58Z</time>
      </trkpt>
      <trkpt lat="43.69024" lon="5.29491">
        <ele>477</ele>
        <time>2021-04-25T07:30:02Z</time>
      </trkpt>
      <trkpt lat="43.69018" lon="5.29483">
        <ele>476.6</ele>
        <time>2021-04-25T07:30:03Z</time>
      </trkpt>
      <trkpt lat="43.69003" lon="5.2945">
        <ele>474.4</ele>
        <time>2021-04-25T07:30:07Z</time>
      </trkpt>
      <trkpt lat="43.68989" lon="5.29387">
        <ele>472.8</ele>
        <time>2021-04-25T07:30:15Z</time>
      </trkpt>
      <trkpt lat="43.68986" lon="5.29359">
        <ele>472.2</ele>
        <time>2021-04-25T07:30:21Z</time>
      </trkpt>
      <trkpt lat="43.68966" lon="5.29315">
        <ele>471</ele>
        <time>2021-04-25T07:30:34Z</time>
      </trkpt>
      <trkpt lat="43.68946" lon="5.29279">
        <ele>471.8</ele>
        <time>2021-04-25T07:30:50Z</time>
      </trkpt>
      <trkpt lat="43.68936" lon="5.29273">
        <ele>472.2</ele>
        <time>2021-04-25T07:30:55Z</time>
      </trkpt>
      <trkpt lat="43.68927" lon="5.29239">
        <ele>472.8</ele>
        <time>2021-04-25T07:31:04Z</time>
      </trkpt>
      <trkpt lat="43.68913" lon="5.2918">
        <ele>472.8</ele>
        <time>2021-04-25T07:31:13Z</time>
      </trkpt>
      <trkpt lat="43.68899" lon="5.29133">
        <ele>471.2</ele>
        <time>2021-04-25T07:31:17Z</time>
      </trkpt>
      <trkpt lat="43.68887" lon="5.29092">
        <ele>472.2</ele>
        <time>2021-04-25T07:31:23Z</time>
      </trkpt>
      <trkpt lat="43.68886" lon="5.29089">
        <ele>471.8</ele>
        <time>2021-04-25T07:31:27Z</time>
      </trkpt>
      <trkpt lat="43.68884" lon="5.29081">
        <ele>471.8</ele>
        <time>2021-04-25T07:31:30Z</time>
      </trkpt>
      <trkpt lat="43.68889" lon="5.29035">
        <ele>471.4</ele>
        <time>2021-04-25T07:31:40Z</time>
      </trkpt>
      <trkpt lat="43.6889" lon="5.29034">
        <ele>470.8</ele>
        <time>2021-04-25T07:31:52Z</time>
      </trkpt>
      <trkpt lat="43.6889" lon="5.29034">
        <ele>470.4</ele>
        <time>2021-04-25T07:32:07Z</time>
      </trkpt>
      <trkpt lat="43.68889" lon="5.29035">
        <ele>469.6</ele>
        <time>2021-04-25T07:32:38Z</time>
      </trkpt>
      <trkpt lat="43.68889" lon="5.29033">
        <ele>469.2</ele>
        <time>2021-04-25T07:33:04Z</time>
      </trkpt>
      <trkpt lat="43.68888" lon="5.29019">
        <ele>468.8</ele>
        <time>2021-04-25T07:33:08Z</time>
      </trkpt>
      <trkpt lat="43.68885" lon="5.28992">
        <ele>468.2</ele>
        <time>2021-04-25T07:33:16Z</time>
      </trkpt>
      <trkpt lat="43.68876" lon="5.28985">
        <ele>467.8</ele>
        <time>2021-04-25T07:33:20Z</time>
      </trkpt>
      <trkpt lat="43.68875" lon="5.28982">
        <ele>467.6</ele>
        <time>2021-04-25T07:33:21Z</time>
      </trkpt>
      <trkpt lat="43.68862" lon="5.28967">
        <ele>467.2</ele>
        <time>2021-04-25T07:33:24Z</time>
      </trkpt>
      <trkpt lat="43.6881" lon="5.28921">
        <ele>464.4</ele>
        <time>2021-04-25T07:33:30Z</time>
      </trkpt>
      <trkpt lat="43.68802" lon="5.2891">
        <ele>463.8</ele>
        <time>2021-04-25T07:33:31Z</time>
      </trkpt>
      <trkpt lat="43.68792" lon="5.2889">
        <ele>463.2</ele>
        <time>2021-04-25T07:33:33Z</time>
      </trkpt>
      <trkpt lat="43.6879" lon="5.28858">
        <ele>460.6</ele>
        <time>2021-04-25T07:33:40Z</time>
      </trkpt>
      <trkpt lat="43.68781" lon="5.28843">
        <ele>458.8</ele>
        <time>2021-04-25T07:33:45Z</time>
      </trkpt>
      <trkpt lat="43.68759" lon="5.28805">
        <ele>456</ele>
        <time>2021-04-25T07:33:58Z</time>
      </trkpt>
      <trkpt lat="43.68738" lon="5.28779">
        <ele>455.4</ele>
        <time>2021-04-25T07:34:10Z</time>
      </trkpt>
      <trkpt lat="43.68729" lon="5.28771">
        <ele>455.2</ele>
        <time>2021-04-25T07:34:14Z</time>
      </trkpt>
      <trkpt lat="43.68719" lon="5.28756">
        <ele>455</ele>
        <time>2021-04-25T07:34:19Z</time>
      </trkpt>
      <trkpt lat="43.68682" lon="5.28725">
        <ele>453.4</ele>
        <time>2021-04-25T07:34:26Z</time>
      </trkpt>
      <trkpt lat="43.68674" lon="5.28687">
        <ele>451.6</ele>
        <time>2021-04-25T07:34:30Z</time>
      </trkpt>
      <trkpt lat="43.68675" lon="5.2868">
        <ele>451.2</ele>
        <time>2021-04-25T07:34:31Z</time>
      </trkpt>
      <trkpt lat="43.6867" lon="5.28636">
        <ele>448.4</ele>
        <time>2021-04-25T07:34:41Z</time>
      </trkpt>
      <trkpt lat="43.68651" lon="5.28576">
        <ele>446.6</ele>
        <time>2021-04-25T07:34:55Z</time>
      </trkpt>
      <trkpt lat="43.68634" lon="5.28559">
        <ele>446</ele>
        <time>2021-04-25T07:35:01Z</time>
      </trkpt>
      <trkpt lat="43.68608" lon="5.28554">
        <ele>445.4</ele>
        <time>2021-04-25T07:35:07Z</time>
      </trkpt>
      <trkpt lat="43.68598" lon="5.28544">
        <ele>445</ele>
        <time>2021-04-25T07:35:10Z</time>
      </trkpt>
      <trkpt lat="43.68597" lon="5.28538">
        <ele>445</ele>
        <time>2021-04-25T07:35:11Z</time>
      </trkpt>
      <trkpt lat="43.68595" lon="5.28511">
        <ele>444.6</ele>
        <time>2021-04-25T07:35:15Z</time>
      </trkpt>
      <trkpt lat="43.68588" lon="5.28486">
        <ele>444.2</ele>
        <time>2021-04-25T07:35:18Z</time>
      </trkpt>
      <trkpt lat="43.68574" lon="5.28432">
        <ele>442.6</ele>
        <time>2021-04-25T07:35:23Z</time>
      </trkpt>
      <trkpt lat="43.68565" lon="5.28395">
        <ele>442</ele>
        <time>2021-04-25T07:35:27Z</time>
      </trkpt>
      <trkpt lat="43.6857" lon="5.28351">
        <ele>441.8</ele>
        <time>2021-04-25T07:35:35Z</time>
      </trkpt>
      <trkpt lat="43.68571" lon="5.28343">
        <ele>441.6</ele>
        <time>2021-04-25T07:35:36Z</time>
      </trkpt>
      <trkpt lat="43.68576" lon="5.28307">
        <ele>440.2</ele>
        <time>2021-04-25T07:35:39Z</time>
      </trkpt>
      <trkpt lat="43.68573" lon="5.28265">
        <ele>439</ele>
        <time>2021-04-25T07:35:42Z</time>
      </trkpt>
      <trkpt lat="43.68572" lon="5.28254">
        <ele>438.8</ele>
        <time>2021-04-25T07:35:43Z</time>
      </trkpt>
      <trkpt lat="43.68572" lon="5.28224">
        <ele>439.6</ele>
        <time>2021-04-25T07:35:49Z</time>
      </trkpt>
      <trkpt lat="43.68583" lon="5.28189">
        <ele>439.2</ele>
        <time>2021-04-25T07:35:56Z</time>
      </trkpt>
      <trkpt lat="43.68587" lon="5.28178">
        <ele>440</ele>
        <time>2021-04-25T07:35:58Z</time>
      </trkpt>
      <trkpt lat="43.68598" lon="5.28159">
        <ele>440.8</ele>
        <time>2021-04-25T07:36:01Z</time>
      </trkpt>
      <trkpt lat="43.68603" lon="5.28137">
        <ele>440.6</ele>
        <time>2021-04-25T07:36:04Z</time>
      </trkpt>
      <trkpt lat="43.68601" lon="5.2813">
        <ele>440.4</ele>
        <time>2021-04-25T07:36:05Z</time>
      </trkpt>
      <trkpt lat="43.68587" lon="5.28091">
        <ele>440.2</ele>
        <time>2021-04-25T07:36:09Z</time>
      </trkpt>
      <trkpt lat="43.68572" lon="5.28039">
        <ele>439.6</ele>
        <time>2021-04-25T07:36:14Z</time>
      </trkpt>
      <trkpt lat="43.68568" lon="5.28012">
        <ele>439.4</ele>
        <time>2021-04-25T07:36:18Z</time>
      </trkpt>
      <trkpt lat="43.68564" lon="5.28">
        <ele>439</ele>
        <time>2021-04-25T07:36:20Z</time>
      </trkpt>
      <trkpt lat="43.68547" lon="5.27969">
        <ele>438</ele>
        <time>2021-04-25T07:36:26Z</time>
      </trkpt>
      <trkpt lat="43.68545" lon="5.27959">
        <ele>437.8</ele>
        <time>2021-04-25T07:36:30Z</time>
      </trkpt>
      <trkpt lat="43.68548" lon="5.27946">
        <ele>437</ele>
        <time>2021-04-25T07:36:35Z</time>
      </trkpt>
      <trkpt lat="43.68559" lon="5.27908">
        <ele>436.2</ele>
        <time>2021-04-25T07:36:47Z</time>
      </trkpt>
      <trkpt lat="43.68561" lon="5.2789">
        <ele>436</ele>
        <time>2021-04-25T07:36:53Z</time>
      </trkpt>
      <trkpt lat="43.68564" lon="5.27854">
        <ele>435.8</ele>
        <time>2021-04-25T07:37:06Z</time>
      </trkpt>
      <trkpt lat="43.68566" lon="5.27826">
        <ele>436.6</ele>
        <time>2021-04-25T07:37:17Z</time>
      </trkpt>
      <trkpt lat="43.68571" lon="5.27812">
        <ele>436.8</ele>
        <time>2021-04-25T07:37:22Z</time>
      </trkpt>
      <trkpt lat="43.6858" lon="5.27782">
        <ele>437.2</ele>
        <time>2021-04-25T07:37:31Z</time>
      </trkpt>
      <trkpt lat="43.68598" lon="5.27759">
        <ele>438</ele>
        <time>2021-04-25T07:37:42Z</time>
      </trkpt>
      <trkpt lat="43.68602" lon="5.27752">
        <ele>438.4</ele>
        <time>2021-04-25T07:37:47Z</time>
      </trkpt>
      <trkpt lat="43.68602" lon="5.27752">
        <ele>439.6</ele>
        <time>2021-04-25T07:38:12Z</time>
      </trkpt>
      <trkpt lat="43.68615" lon="5.27734">
        <ele>440.6</ele>
        <time>2021-04-25T07:38:25Z</time>
      </trkpt>
      <trkpt lat="43.68625" lon="5.27727">
        <ele>441.2</ele>
        <time>2021-04-25T07:38:30Z</time>
      </trkpt>
      <trkpt lat="43.68646" lon="5.27719">
        <ele>442.6</ele>
        <time>2021-04-25T07:38:40Z</time>
      </trkpt>
      <trkpt lat="43.68663" lon="5.27708">
        <ele>444.2</ele>
        <time>2021-04-25T07:38:48Z</time>
      </trkpt>
      <trkpt lat="43.68667" lon="5.27707">
        <ele>444.6</ele>
        <time>2021-04-25T07:38:50Z</time>
      </trkpt>
      <trkpt lat="43.68682" lon="5.27691">
        <ele>446</ele>
        <time>2021-04-25T07:38:57Z</time>
      </trkpt>
      <trkpt lat="43.6869" lon="5.27652">
        <ele>447.6</ele>
        <time>2021-04-25T07:39:08Z</time>
      </trkpt>
      <trkpt lat="43.68691" lon="5.27625">
        <ele>448.6</ele>
        <time>2021-04-25T07:39:13Z</time>
      </trkpt>
      <trkpt lat="43.68687" lon="5.27583">
        <ele>450.4</ele>
        <time>2021-04-25T07:39:24Z</time>
      </trkpt>
      <trkpt lat="43.68676" lon="5.27552">
        <ele>451.4</ele>
        <time>2021-04-25T07:39:32Z</time>
      </trkpt>
      <trkpt lat="43.68666" lon="5.27531">
        <ele>452</ele>
        <time>2021-04-25T07:39:38Z</time>
      </trkpt>
      <trkpt lat="43.68659" lon="5.2751">
        <ele>452.8</ele>
        <time>2021-04-25T07:39:44Z</time>
      </trkpt>
      <trkpt lat="43.6866" lon="5.275">
        <ele>453.4</ele>
        <time>2021-04-25T07:39:48Z</time>
      </trkpt>
      <trkpt lat="43.68661" lon="5.27487">
        <ele>454.2</ele>
        <time>2021-04-25T07:39:54Z</time>
      </trkpt>
      <trkpt lat="43.68659" lon="5.27464">
        <ele>455</ele>
        <time>2021-04-25T07:40:00Z</time>
      </trkpt>
      <trkpt lat="43.68649" lon="5.27419">
        <ele>458</ele>
        <time>2021-04-25T07:40:13Z</time>
      </trkpt>
      <trkpt lat="43.68642" lon="5.274">
        <ele>459.6</ele>
        <time>2021-04-25T07:40:21Z</time>
      </trkpt>
      <trkpt lat="43.68643" lon="5.27397">
        <ele>460</ele>
        <time>2021-04-25T07:40:23Z</time>
      </trkpt>
      <trkpt lat="43.68644" lon="5.2739">
        <ele>461.2</ele>
        <time>2021-04-25T07:40:30Z</time>
      </trkpt>
      <trkpt lat="43.68644" lon="5.2739">
        <ele>464.4</ele>
        <time>2021-04-25T07:40:53Z</time>
      </trkpt>
      <trkpt lat="43.68644" lon="5.2739">
        <ele>466.6</ele>
        <time>2021-04-25T07:41:12Z</time>
      </trkpt>
      <trkpt lat="43.68644" lon="5.2739">
        <ele>468.6</ele>
        <time>2021-04-25T07:41:35Z</time>
      </trkpt>
      <trkpt lat="43.68644" lon="5.2739">
        <ele>470.8</ele>
        <time>2021-04-25T07:42:10Z</time>
      </trkpt>
      <trkpt lat="43.68644" lon="5.2739">
        <ele>472</ele>
        <time>2021-04-25T07:42:37Z</time>
      </trkpt>
      <trkpt lat="43.68644" lon="5.2739">
        <ele>473.2</ele>
        <time>2021-04-25T07:43:26Z</time>
      </trkpt>
      <trkpt lat="43.68645" lon="5.2739">
        <ele>474</ele>
        <time>2021-04-25T07:44:16Z</time>
      </trkpt>
      <trkpt lat="43.68645" lon="5.2739">
        <ele>474</ele>
        <time>2021-04-25T07:44:33Z</time>
      </trkpt>
      <trkpt lat="43.68645" lon="5.2739">
        <ele>474.4</ele>
        <time>2021-04-25T07:45:13Z</time>
      </trkpt>
      <trkpt lat="43.68645" lon="5.2739">
        <ele>474.4</ele>
        <time>2021-04-25T07:45:49Z</time>
      </trkpt>
      <trkpt lat="43.68645" lon="5.2739">
        <ele>474.6</ele>
        <time>2021-04-25T07:46:10Z</time>
      </trkpt>
      <trkpt lat="43.68645" lon="5.27388">
        <ele>474.4</ele>
        <time>2021-04-25T07:46:30Z</time>
      </trkpt>
      <trkpt lat="43.68637" lon="5.27373">
        <ele>474.4</ele>
        <time>2021-04-25T07:46:36Z</time>
      </trkpt>
      <trkpt lat="43.68631" lon="5.27366">
        <ele>474.2</ele>
        <time>2021-04-25T07:46:39Z</time>
      </trkpt>
      <trkpt lat="43.68622" lon="5.27357">
        <ele>473.8</ele>
        <time>2021-04-25T07:46:42Z</time>
      </trkpt>
      <trkpt lat="43.68619" lon="5.27346">
        <ele>473.4</ele>
        <time>2021-04-25T07:46:45Z</time>
      </trkpt>
      <trkpt lat="43.68616" lon="5.27345">
        <ele>473.2</ele>
        <time>2021-04-25T07:46:46Z</time>
      </trkpt>
      <trkpt lat="43.6861" lon="5.27339">
        <ele>472.4</ele>
        <time>2021-04-25T07:46:49Z</time>
      </trkpt>
      <trkpt lat="43.68588" lon="5.27331">
        <ele>470.8</ele>
        <time>2021-04-25T07:46:55Z</time>
      </trkpt>
      <trkpt lat="43.6857" lon="5.27312">
        <ele>469.6</ele>
        <time>2021-04-25T07:46:58Z</time>
      </trkpt>
      <trkpt lat="43.6856" lon="5.27298">
        <ele>468.8</ele>
        <time>2021-04-25T07:47:00Z</time>
      </trkpt>
      <trkpt lat="43.6854" lon="5.27268">
        <ele>466.4</ele>
        <time>2021-04-25T07:47:06Z</time>
      </trkpt>
      <trkpt lat="43.68537" lon="5.27264">
        <ele>464.8</ele>
        <time>2021-04-25T07:47:11Z</time>
      </trkpt>
      <trkpt lat="43.68535" lon="5.27259">
        <ele>463.2</ele>
        <time>2021-04-25T07:47:18Z</time>
      </trkpt>
      <trkpt lat="43.68521" lon="5.27238">
        <ele>461.4</ele>
        <time>2021-04-25T07:47:24Z</time>
      </trkpt>
      <trkpt lat="43.68513" lon="5.27229">
        <ele>460.6</ele>
        <time>2021-04-25T07:47:26Z</time>
      </trkpt>
      <trkpt lat="43.68484" lon="5.2721">
        <ele>458.6</ele>
        <time>2021-04-25T07:47:31Z</time>
      </trkpt>
      <trkpt lat="43.68458" lon="5.27201">
        <ele>457</ele>
        <time>2021-04-25T07:47:35Z</time>
      </trkpt>
      <trkpt lat="43.68451" lon="5.27199">
        <ele>456.8</ele>
        <time>2021-04-25T07:47:36Z</time>
      </trkpt>
      <trkpt lat="43.68422" lon="5.27192">
        <ele>455.2</ele>
        <time>2021-04-25T07:47:41Z</time>
      </trkpt>
      <trkpt lat="43.68417" lon="5.2719">
        <ele>454.2</ele>
        <time>2021-04-25T07:47:45Z</time>
      </trkpt>
      <trkpt lat="43.68415" lon="5.27189">
        <ele>453.6</ele>
        <time>2021-04-25T07:47:47Z</time>
      </trkpt>
      <trkpt lat="43.68401" lon="5.27179">
        <ele>451.4</ele>
        <time>2021-04-25T07:47:55Z</time>
      </trkpt>
      <trkpt lat="43.68382" lon="5.27178">
        <ele>450</ele>
        <time>2021-04-25T07:48:00Z</time>
      </trkpt>
      <trkpt lat="43.68374" lon="5.27181">
        <ele>449.4</ele>
        <time>2021-04-25T07:48:02Z</time>
      </trkpt>
      <trkpt lat="43.68364" lon="5.27197">
        <ele>448.2</ele>
        <time>2021-04-25T07:48:06Z</time>
      </trkpt>
      <trkpt lat="43.68355" lon="5.27206">
        <ele>446.8</ele>
        <time>2021-04-25T07:48:10Z</time>
      </trkpt>
      <trkpt lat="43.6835" lon="5.27209">
        <ele>445.6</ele>
        <time>2021-04-25T07:48:13Z</time>
      </trkpt>
      <trkpt lat="43.68347" lon="5.27213">
        <ele>444.2</ele>
        <time>2021-04-25T07:48:16Z</time>
      </trkpt>
      <trkpt lat="43.68341" lon="5.2721">
        <ele>442.8</ele>
        <time>2021-04-25T07:48:19Z</time>
      </trkpt>
      <trkpt lat="43.68329" lon="5.27208">
        <ele>441</ele>
        <time>2021-04-25T07:48:23Z</time>
      </trkpt>
      <trkpt lat="43.68326" lon="5.27209">
        <ele>440.6</ele>
        <time>2021-04-25T07:48:24Z</time>
      </trkpt>
      <trkpt lat="43.68318" lon="5.27212">
        <ele>439.2</ele>
        <time>2021-04-25T07:48:27Z</time>
      </trkpt>
      <trkpt lat="43.68309" lon="5.27215">
        <ele>437.8</ele>
        <time>2021-04-25T07:48:30Z</time>
      </trkpt>
      <trkpt lat="43.683" lon="5.27214">
        <ele>436.6</ele>
        <time>2021-04-25T07:48:33Z</time>
      </trkpt>
      <trkpt lat="43.68276" lon="5.27224">
        <ele>434</ele>
        <time>2021-04-25T07:48:39Z</time>
      </trkpt>
      <trkpt lat="43.68246" lon="5.27246">
        <ele>430.2</ele>
        <time>2021-04-25T07:48:48Z</time>
      </trkpt>
      <trkpt lat="43.6824" lon="5.27258">
        <ele>428.2</ele>
        <time>2021-04-25T07:48:52Z</time>
      </trkpt>
      <trkpt lat="43.68235" lon="5.27268">
        <ele>426.4</ele>
        <time>2021-04-25T07:48:56Z</time>
      </trkpt>
      <trkpt lat="43.6823" lon="5.27274">
        <ele>425</ele>
        <time>2021-04-25T07:48:59Z</time>
      </trkpt>
      <trkpt lat="43.68225" lon="5.27271">
        <ele>423.6</ele>
        <time>2021-04-25T07:49:02Z</time>
      </trkpt>
      <trkpt lat="43.68222" lon="5.27266">
        <ele>422.8</ele>
        <time>2021-04-25T07:49:04Z</time>
      </trkpt>
      <trkpt lat="43.68211" lon="5.2727">
        <ele>420.4</ele>
        <time>2021-04-25T07:49:09Z</time>
      </trkpt>
      <trkpt lat="43.6821" lon="5.27274">
        <ele>419.8</ele>
        <time>2021-04-25T07:49:10Z</time>
      </trkpt>
      <trkpt lat="43.68205" lon="5.27296">
        <ele>418</ele>
        <time>2021-04-25T07:49:14Z</time>
      </trkpt>
      <trkpt lat="43.68197" lon="5.27305">
        <ele>416.6</ele>
        <time>2021-04-25T07:49:17Z</time>
      </trkpt>
      <trkpt lat="43.68195" lon="5.27308">
        <ele>416.2</ele>
        <time>2021-04-25T07:49:18Z</time>
      </trkpt>
      <trkpt lat="43.68191" lon="5.27317">
        <ele>415.2</ele>
        <time>2021-04-25T07:49:20Z</time>
      </trkpt>
      <trkpt lat="43.68176" lon="5.27328">
        <ele>413</ele>
        <time>2021-04-25T07:49:24Z</time>
      </trkpt>
      <trkpt lat="43.68174" lon="5.27332">
        <ele>412.6</ele>
        <time>2021-04-25T07:49:25Z</time>
      </trkpt>
      <trkpt lat="43.68166" lon="5.27346">
        <ele>410.8</ele>
        <time>2021-04-25T07:49:28Z</time>
      </trkpt>
      <trkpt lat="43.68156" lon="5.27357">
        <ele>409.4</ele>
        <time>2021-04-25T07:49:31Z</time>
      </trkpt>
      <trkpt lat="43.68148" lon="5.27365">
        <ele>407.2</ele>
        <time>2021-04-25T07:49:35Z</time>
      </trkpt>
      <trkpt lat="43.68137" lon="5.27375">
        <ele>405.4</ele>
        <time>2021-04-25T07:49:38Z</time>
      </trkpt>
      <trkpt lat="43.68119" lon="5.27394">
        <ele>403.2</ele>
        <time>2021-04-25T07:49:42Z</time>
      </trkpt>
      <trkpt lat="43.68106" lon="5.27403">
        <ele>401</ele>
        <time>2021-04-25T07:49:46Z</time>
      </trkpt>
      <trkpt lat="43.68076" lon="5.27431">
        <ele>396.8</ele>
        <time>2021-04-25T07:49:57Z</time>
      </trkpt>
      <trkpt lat="43.68068" lon="5.2745">
        <ele>395</ele>
        <time>2021-04-25T07:50:02Z</time>
      </trkpt>
      <trkpt lat="43.68065" lon="5.27453">
        <ele>394.6</ele>
        <time>2021-04-25T07:50:03Z</time>
      </trkpt>
      <trkpt lat="43.68047" lon="5.27468">
        <ele>392.8</ele>
        <time>2021-04-25T07:50:08Z</time>
      </trkpt>
      <trkpt lat="43.68024" lon="5.27478">
        <ele>391</ele>
        <time>2021-04-25T07:50:13Z</time>
      </trkpt>
      <trkpt lat="43.68017" lon="5.27488">
        <ele>389.8</ele>
        <time>2021-04-25T07:50:16Z</time>
      </trkpt>
      <trkpt lat="43.68011" lon="5.27503">
        <ele>388</ele>
        <time>2021-04-25T07:50:20Z</time>
      </trkpt>
      <trkpt lat="43.67997" lon="5.27517">
        <ele>385.8</ele>
        <time>2021-04-25T07:50:25Z</time>
      </trkpt>
      <trkpt lat="43.67995" lon="5.27521">
        <ele>385.2</ele>
        <time>2021-04-25T07:50:26Z</time>
      </trkpt>
      <trkpt lat="43.67987" lon="5.27536">
        <ele>383.2</ele>
        <time>2021-04-25T07:50:30Z</time>
      </trkpt>
      <trkpt lat="43.67979" lon="5.27552">
        <ele>380.4</ele>
        <time>2021-04-25T07:50:35Z</time>
      </trkpt>
      <trkpt lat="43.67981" lon="5.27564">
        <ele>377.6</ele>
        <time>2021-04-25T07:50:40Z</time>
      </trkpt>
      <trkpt lat="43.6798" lon="5.27569">
        <ele>375.2</ele>
        <time>2021-04-25T07:50:45Z</time>
      </trkpt>
      <trkpt lat="43.67981" lon="5.27575">
        <ele>372.4</ele>
        <time>2021-04-25T07:50:50Z</time>
      </trkpt>
      <trkpt lat="43.67974" lon="5.27578">
        <ele>371.2</ele>
        <time>2021-04-25T07:50:52Z</time>
      </trkpt>
      <trkpt lat="43.67964" lon="5.27577">
        <ele>369.4</ele>
        <time>2021-04-25T07:50:55Z</time>
      </trkpt>
      <trkpt lat="43.67953" lon="5.27582">
        <ele>367.4</ele>
        <time>2021-04-25T07:50:58Z</time>
      </trkpt>
      <trkpt lat="43.67941" lon="5.2759">
        <ele>365.6</ele>
        <time>2021-04-25T07:51:01Z</time>
      </trkpt>
      <trkpt lat="43.67929" lon="5.27587">
        <ele>363.8</ele>
        <time>2021-04-25T07:51:04Z</time>
      </trkpt>
      <trkpt lat="43.67917" lon="5.27577">
        <ele>362.2</ele>
        <time>2021-04-25T07:51:07Z</time>
      </trkpt>
      <trkpt lat="43.67911" lon="5.27569">
        <ele>361</ele>
        <time>2021-04-25T07:51:09Z</time>
      </trkpt>
      <trkpt lat="43.67908" lon="5.27563">
        <ele>360</ele>
        <time>2021-04-25T07:51:11Z</time>
      </trkpt>
      <trkpt lat="43.67891" lon="5.27554">
        <ele>358.2</ele>
        <time>2021-04-25T07:51:15Z</time>
      </trkpt>
      <trkpt lat="43.67883" lon="5.2755">
        <ele>357</ele>
        <time>2021-04-25T07:51:17Z</time>
      </trkpt>
      <trkpt lat="43.67879" lon="5.27549">
        <ele>356.6</ele>
        <time>2021-04-25T07:51:18Z</time>
      </trkpt>
      <trkpt lat="43.67869" lon="5.27546">
        <ele>355</ele>
        <time>2021-04-25T07:51:21Z</time>
      </trkpt>
      <trkpt lat="43.67857" lon="5.27554">
        <ele>353.6</ele>
        <time>2021-04-25T07:51:24Z</time>
      </trkpt>
      <trkpt lat="43.67855" lon="5.27558">
        <ele>353</ele>
        <time>2021-04-25T07:51:25Z</time>
      </trkpt>
      <trkpt lat="43.6785" lon="5.27576">
        <ele>349.4</ele>
        <time>2021-04-25T07:51:33Z</time>
      </trkpt>
      <trkpt lat="43.67848" lon="5.27577">
        <ele>342.6</ele>
        <time>2021-04-25T07:51:53Z</time>
      </trkpt>
      <trkpt lat="43.67844" lon="5.2758">
        <ele>342</ele>
        <time>2021-04-25T07:51:55Z</time>
      </trkpt>
      <trkpt lat="43.67807" lon="5.27577">
        <ele>339.8</ele>
        <time>2021-04-25T07:52:02Z</time>
      </trkpt>
      <trkpt lat="43.67715" lon="5.27556">
        <ele>334.8</ele>
        <time>2021-04-25T07:52:16Z</time>
      </trkpt>
      <trkpt lat="43.67707" lon="5.27562">
        <ele>334</ele>
        <time>2021-04-25T07:52:18Z</time>
      </trkpt>
      <trkpt lat="43.67699" lon="5.27584">
        <ele>332.8</ele>
        <time>2021-04-25T07:52:22Z</time>
      </trkpt>
      <trkpt lat="43.67692" lon="5.27609">
        <ele>331.8</ele>
        <time>2021-04-25T07:52:26Z</time>
      </trkpt>
      <trkpt lat="43.67688" lon="5.27623">
        <ele>331.2</ele>
        <time>2021-04-25T07:52:28Z</time>
      </trkpt>
      <trkpt lat="43.67675" lon="5.2767">
        <ele>329.4</ele>
        <time>2021-04-25T07:52:35Z</time>
      </trkpt>
      <trkpt lat="43.67664" lon="5.27702">
        <ele>328.2</ele>
        <time>2021-04-25T07:52:40Z</time>
      </trkpt>
      <trkpt lat="43.67662" lon="5.27708">
        <ele>328</ele>
        <time>2021-04-25T07:52:41Z</time>
      </trkpt>
      <trkpt lat="43.67651" lon="5.27771">
        <ele>326.2</ele>
        <time>2021-04-25T07:52:51Z</time>
      </trkpt>
      <trkpt lat="43.67652" lon="5.27783">
        <ele>325.8</ele>
        <time>2021-04-25T07:52:53Z</time>
      </trkpt>
      <trkpt lat="43.67651" lon="5.27795">
        <ele>325.4</ele>
        <time>2021-04-25T07:52:55Z</time>
      </trkpt>
      <trkpt lat="43.67642" lon="5.27826">
        <ele>324.6</ele>
        <time>2021-04-25T07:53:01Z</time>
      </trkpt>
      <trkpt lat="43.67621" lon="5.27869">
        <ele>323.4</ele>
        <time>2021-04-25T07:53:08Z</time>
      </trkpt>
      <trkpt lat="43.67619" lon="5.27875">
        <ele>323.2</ele>
        <time>2021-04-25T07:53:09Z</time>
      </trkpt>
      <trkpt lat="43.67614" lon="5.27896">
        <ele>322.8</ele>
        <time>2021-04-25T07:53:12Z</time>
      </trkpt>
      <trkpt lat="43.67609" lon="5.2793">
        <ele>322.2</ele>
        <time>2021-04-25T07:53:17Z</time>
      </trkpt>
      <trkpt lat="43.67608" lon="5.27938">
        <ele>322</ele>
        <time>2021-04-25T07:53:18Z</time>
      </trkpt>
      <trkpt lat="43.67596" lon="5.27957">
        <ele>321.6</ele>
        <time>2021-04-25T07:53:21Z</time>
      </trkpt>
      <trkpt lat="43.67582" lon="5.27962">
        <ele>321</ele>
        <time>2021-04-25T07:53:24Z</time>
      </trkpt>
      <trkpt lat="43.67574" lon="5.27954">
        <ele>320.4</ele>
        <time>2021-04-25T07:53:26Z</time>
      </trkpt>
      <trkpt lat="43.67546" lon="5.27914">
        <ele>319</ele>
        <time>2021-04-25T07:53:33Z</time>
      </trkpt>
      <trkpt lat="43.67459" lon="5.2784">
        <ele>316</ele>
        <time>2021-04-25T07:53:45Z</time>
      </trkpt>
      <trkpt lat="43.67418" lon="5.27818">
        <ele>314.6</ele>
        <time>2021-04-25T07:53:50Z</time>
      </trkpt>
      <trkpt lat="43.67411" lon="5.27818">
        <ele>313.8</ele>
        <time>2021-04-25T07:53:53Z</time>
      </trkpt>
      <trkpt lat="43.67409" lon="5.27825">
        <ele>313.2</ele>
        <time>2021-04-25T07:53:56Z</time>
      </trkpt>
      <trkpt lat="43.67406" lon="5.27833">
        <ele>312.8</ele>
        <time>2021-04-25T07:53:58Z</time>
      </trkpt>
      <trkpt lat="43.67392" lon="5.27855">
        <ele>312.2</ele>
        <time>2021-04-25T07:54:04Z</time>
      </trkpt>
      <trkpt lat="43.67374" lon="5.27888">
        <ele>311.2</ele>
        <time>2021-04-25T07:54:14Z</time>
      </trkpt>
      <trkpt lat="43.67369" lon="5.27891">
        <ele>311</ele>
        <time>2021-04-25T07:54:16Z</time>
      </trkpt>
      <trkpt lat="43.67351" lon="5.279">
        <ele>309.8</ele>
        <time>2021-04-25T07:54:23Z</time>
      </trkpt>
      <trkpt lat="43.67332" lon="5.27911">
        <ele>309.4</ele>
        <time>2021-04-25T07:54:27Z</time>
      </trkpt>
      <trkpt lat="43.67321" lon="5.27918">
        <ele>309.2</ele>
        <time>2021-04-25T07:54:29Z</time>
      </trkpt>
      <trkpt lat="43.67298" lon="5.27919">
        <ele>308.6</ele>
        <time>2021-04-25T07:54:33Z</time>
      </trkpt>
      <trkpt lat="43.67277" lon="5.27909">
        <ele>308</ele>
        <time>2021-04-25T07:54:37Z</time>
      </trkpt>
      <trkpt lat="43.67269" lon="5.27903">
        <ele>307.8</ele>
        <time>2021-04-25T07:54:39Z</time>
      </trkpt>
      <trkpt lat="43.67251" lon="5.27892">
        <ele>307.2</ele>
        <time>2021-04-25T07:54:43Z</time>
      </trkpt>
      <trkpt lat="43.67217" lon="5.27883">
        <ele>305.8</ele>
        <time>2021-04-25T07:54:51Z</time>
      </trkpt>
      <trkpt lat="43.67214" lon="5.2788">
        <ele>305.6</ele>
        <time>2021-04-25T07:54:52Z</time>
      </trkpt>
      <trkpt lat="43.67186" lon="5.27866">
        <ele>303.8</ele>
        <time>2021-04-25T07:55:00Z</time>
      </trkpt>
      <trkpt lat="43.67171" lon="5.27863">
        <ele>303.2</ele>
        <time>2021-04-25T07:55:03Z</time>
      </trkpt>
      <trkpt lat="43.67146" lon="5.2786">
        <ele>302.2</ele>
        <time>2021-04-25T07:55:09Z</time>
      </trkpt>
      <trkpt lat="43.67133" lon="5.27861">
        <ele>301.8</ele>
        <time>2021-04-25T07:55:12Z</time>
      </trkpt>
      <trkpt lat="43.67123" lon="5.27864">
        <ele>301.2</ele>
        <time>2021-04-25T07:55:15Z</time>
      </trkpt>
      <trkpt lat="43.67114" lon="5.27859">
        <ele>300.8</ele>
        <time>2021-04-25T07:55:17Z</time>
      </trkpt>
      <trkpt lat="43.67105" lon="5.27851">
        <ele>300.4</ele>
        <time>2021-04-25T07:55:19Z</time>
      </trkpt>
      <trkpt lat="43.6707" lon="5.27837">
        <ele>299.4</ele>
        <time>2021-04-25T07:55:25Z</time>
      </trkpt>
      <trkpt lat="43.67047" lon="5.27829">
        <ele>298.6</ele>
        <time>2021-04-25T07:55:29Z</time>
      </trkpt>
      <trkpt lat="43.67044" lon="5.27825">
        <ele>298.6</ele>
        <time>2021-04-25T07:55:30Z</time>
      </trkpt>
      <trkpt lat="43.67037" lon="5.27812">
        <ele>298</ele>
        <time>2021-04-25T07:55:33Z</time>
      </trkpt>
      <trkpt lat="43.67027" lon="5.27795">
        <ele>297.2</ele>
        <time>2021-04-25T07:55:37Z</time>
      </trkpt>
      <trkpt lat="43.67028" lon="5.2779">
        <ele>297</ele>
        <time>2021-04-25T07:55:38Z</time>
      </trkpt>
      <trkpt lat="43.67035" lon="5.27774">
        <ele>296</ele>
        <time>2021-04-25T07:55:42Z</time>
      </trkpt>
      <trkpt lat="43.67044" lon="5.2775">
        <ele>295.4</ele>
        <time>2021-04-25T07:55:46Z</time>
      </trkpt>
      <trkpt lat="43.67052" lon="5.27729">
        <ele>294.4</ele>
        <time>2021-04-25T07:55:50Z</time>
      </trkpt>
      <trkpt lat="43.67023" lon="5.27733">
        <ele>292.8</ele>
        <time>2021-04-25T07:55:56Z</time>
      </trkpt>
      <trkpt lat="43.67002" lon="5.27735">
        <ele>292</ele>
        <time>2021-04-25T07:56:00Z</time>
      </trkpt>
      <trkpt lat="43.66992" lon="5.27734">
        <ele>291.6</ele>
        <time>2021-04-25T07:56:02Z</time>
      </trkpt>
      <trkpt lat="43.66987" lon="5.27719">
        <ele>290.8</ele>
        <time>2021-04-25T07:56:05Z</time>
      </trkpt>
      <trkpt lat="43.66987" lon="5.27695">
        <ele>290.2</ele>
        <time>2021-04-25T07:56:08Z</time>
      </trkpt>
      <trkpt lat="43.66985" lon="5.27687">
        <ele>290</ele>
        <time>2021-04-25T07:56:09Z</time>
      </trkpt>
      <trkpt lat="43.66977" lon="5.27652">
        <ele>289</ele>
        <time>2021-04-25T07:56:13Z</time>
      </trkpt>
      <trkpt lat="43.66963" lon="5.27641">
        <ele>288.2</ele>
        <time>2021-04-25T07:56:16Z</time>
      </trkpt>
      <trkpt lat="43.66951" lon="5.27639">
        <ele>287.6</ele>
        <time>2021-04-25T07:56:18Z</time>
      </trkpt>
      <trkpt lat="43.66939" lon="5.27636">
        <ele>287</ele>
        <time>2021-04-25T07:56:20Z</time>
      </trkpt>
      <trkpt lat="43.66928" lon="5.27622">
        <ele>286.4</ele>
        <time>2021-04-25T07:56:22Z</time>
      </trkpt>
      <trkpt lat="43.66915" lon="5.27613">
        <ele>285.8</ele>
        <time>2021-04-25T07:56:24Z</time>
      </trkpt>
      <trkpt lat="43.66898" lon="5.27614">
        <ele>285</ele>
        <time>2021-04-25T07:56:27Z</time>
      </trkpt>
      <trkpt lat="43.66882" lon="5.27625">
        <ele>284.2</ele>
        <time>2021-04-25T07:56:30Z</time>
      </trkpt>
      <trkpt lat="43.66875" lon="5.27626">
        <ele>283.8</ele>
        <time>2021-04-25T07:56:31Z</time>
      </trkpt>
      <trkpt lat="43.66867" lon="5.2763">
        <ele>283</ele>
        <time>2021-04-25T07:56:35Z</time>
      </trkpt>
      <trkpt lat="43.66862" lon="5.27632">
        <ele>282.4</ele>
        <time>2021-04-25T07:56:38Z</time>
      </trkpt>
      <trkpt lat="43.66857" lon="5.27629">
        <ele>282</ele>
        <time>2021-04-25T07:56:40Z</time>
      </trkpt>
      <trkpt lat="43.66843" lon="5.2762">
        <ele>281.4</ele>
        <time>2021-04-25T07:56:44Z</time>
      </trkpt>
      <trkpt lat="43.66787" lon="5.27606">
        <ele>279.6</ele>
        <time>2021-04-25T07:56:55Z</time>
      </trkpt>
      <trkpt lat="43.6678" lon="5.27596">
        <ele>279.4</ele>
        <time>2021-04-25T07:56:57Z</time>
      </trkpt>
      <trkpt lat="43.66778" lon="5.27578">
        <ele>278.8</ele>
        <time>2021-04-25T07:57:00Z</time>
      </trkpt>
      <trkpt lat="43.66768" lon="5.27576">
        <ele>278.2</ele>
        <time>2021-04-25T07:57:03Z</time>
      </trkpt>
      <trkpt lat="43.66764" lon="5.27579">
        <ele>278.2</ele>
        <time>2021-04-25T07:57:04Z</time>
      </trkpt>
      <trkpt lat="43.66749" lon="5.27589">
        <ele>277.8</ele>
        <time>2021-04-25T07:57:08Z</time>
      </trkpt>
      <trkpt lat="43.66729" lon="5.27601">
        <ele>277.2</ele>
        <time>2021-04-25T07:57:12Z</time>
      </trkpt>
      <trkpt lat="43.66718" lon="5.27606">
        <ele>276.8</ele>
        <time>2021-04-25T07:57:14Z</time>
      </trkpt>
      <trkpt lat="43.66708" lon="5.27599">
        <ele>276.6</ele>
        <time>2021-04-25T07:57:16Z</time>
      </trkpt>
      <trkpt lat="43.66695" lon="5.2759">
        <ele>276</ele>
        <time>2021-04-25T07:57:19Z</time>
      </trkpt>
      <trkpt lat="43.66676" lon="5.27603">
        <ele>275.2</ele>
        <time>2021-04-25T07:57:23Z</time>
      </trkpt>
      <trkpt lat="43.66647" lon="5.27621">
        <ele>274.4</ele>
        <time>2021-04-25T07:57:28Z</time>
      </trkpt>
      <trkpt lat="43.66629" lon="5.27622">
        <ele>273.8</ele>
        <time>2021-04-25T07:57:32Z</time>
      </trkpt>
      <trkpt lat="43.66625" lon="5.27625">
        <ele>273.4</ele>
        <time>2021-04-25T07:57:33Z</time>
      </trkpt>
      <trkpt lat="43.66608" lon="5.27633">
        <ele>272.8</ele>
        <time>2021-04-25T07:57:36Z</time>
      </trkpt>
      <trkpt lat="43.66592" lon="5.27629">
        <ele>272.2</ele>
        <time>2021-04-25T07:57:39Z</time>
      </trkpt>
      <trkpt lat="43.66586" lon="5.27629">
        <ele>272</ele>
        <time>2021-04-25T07:57:40Z</time>
      </trkpt>
      <trkpt lat="43.66575" lon="5.27621">
        <ele>271.6</ele>
        <time>2021-04-25T07:57:42Z</time>
      </trkpt>
      <trkpt lat="43.66554" lon="5.27586">
        <ele>270.4</ele>
        <time>2021-04-25T07:57:47Z</time>
      </trkpt>
      <trkpt lat="43.6655" lon="5.27558">
        <ele>269.6</ele>
        <time>2021-04-25T07:57:50Z</time>
      </trkpt>
      <trkpt lat="43.66549" lon="5.2755">
        <ele>269.4</ele>
        <time>2021-04-25T07:57:51Z</time>
      </trkpt>
      <trkpt lat="43.66541" lon="5.27533">
        <ele>268.6</ele>
        <time>2021-04-25T07:57:56Z</time>
      </trkpt>
      <trkpt lat="43.66535" lon="5.27519">
        <ele>268</ele>
        <time>2021-04-25T07:57:59Z</time>
      </trkpt>
      <trkpt lat="43.66533" lon="5.27512">
        <ele>267.6</ele>
        <time>2021-04-25T07:58:00Z</time>
      </trkpt>
      <trkpt lat="43.66516" lon="5.27466">
        <ele>265.6</ele>
        <time>2021-04-25T07:58:07Z</time>
      </trkpt>
      <trkpt lat="43.66513" lon="5.27443">
        <ele>265</ele>
        <time>2021-04-25T07:58:10Z</time>
      </trkpt>
      <trkpt lat="43.66513" lon="5.27436">
        <ele>264.8</ele>
        <time>2021-04-25T07:58:11Z</time>
      </trkpt>
      <trkpt lat="43.66508" lon="5.27432">
        <ele>264.4</ele>
        <time>2021-04-25T07:58:13Z</time>
      </trkpt>
      <trkpt lat="43.66498" lon="5.27424">
        <ele>263.6</ele>
        <time>2021-04-25T07:58:16Z</time>
      </trkpt>
      <trkpt lat="43.66493" lon="5.27421">
        <ele>263.2</ele>
        <time>2021-04-25T07:58:17Z</time>
      </trkpt>
      <trkpt lat="43.66448" lon="5.2743">
        <ele>261</ele>
        <time>2021-04-25T07:58:25Z</time>
      </trkpt>
      <trkpt lat="43.66428" lon="5.27432">
        <ele>260</ele>
        <time>2021-04-25T07:58:29Z</time>
      </trkpt>
      <trkpt lat="43.66426" lon="5.27428">
        <ele>259.8</ele>
        <time>2021-04-25T07:58:30Z</time>
      </trkpt>
      <trkpt lat="43.66431" lon="5.27367">
        <ele>257.8</ele>
        <time>2021-04-25T07:58:40Z</time>
      </trkpt>
      <trkpt lat="43.6643" lon="5.27281">
        <ele>255.6</ele>
        <time>2021-04-25T07:58:52Z</time>
      </trkpt>
      <trkpt lat="43.66426" lon="5.27268">
        <ele>255.4</ele>
        <time>2021-04-25T07:58:54Z</time>
      </trkpt>
      <trkpt lat="43.66414" lon="5.2726">
        <ele>254.8</ele>
        <time>2021-04-25T07:58:57Z</time>
      </trkpt>
      <trkpt lat="43.66371" lon="5.27241">
        <ele>253.4</ele>
        <time>2021-04-25T07:59:04Z</time>
      </trkpt>
      <trkpt lat="43.6636" lon="5.27226">
        <ele>253</ele>
        <time>2021-04-25T07:59:06Z</time>
      </trkpt>
      <trkpt lat="43.66285" lon="5.27129">
        <ele>249.8</ele>
        <time>2021-04-25T07:59:18Z</time>
      </trkpt>
      <trkpt lat="43.66194" lon="5.27036">
        <ele>246.4</ele>
        <time>2021-04-25T07:59:30Z</time>
      </trkpt>
      <trkpt lat="43.66154" lon="5.26984">
        <ele>244.8</ele>
        <time>2021-04-25T07:59:36Z</time>
      </trkpt>
      <trkpt lat="43.66138" lon="5.26952">
        <ele>243.8</ele>
        <time>2021-04-25T07:59:39Z</time>
      </trkpt>
      <trkpt lat="43.66116" lon="5.26872">
        <ele>241.6</ele>
        <time>2021-04-25T07:59:46Z</time>
      </trkpt>
      <trkpt lat="43.66094" lon="5.26821">
        <ele>240</ele>
        <time>2021-04-25T07:59:51Z</time>
      </trkpt>
      <trkpt lat="43.66068" lon="5.26776">
        <ele>238.8</ele>
        <time>2021-04-25T07:59:56Z</time>
      </trkpt>
      <trkpt lat="43.66005" lon="5.26675">
        <ele>235.6</ele>
        <time>2021-04-25T08:00:08Z</time>
      </trkpt>
      <trkpt lat="43.65993" lon="5.26661">
        <ele>235</ele>
        <time>2021-04-25T08:00:10Z</time>
      </trkpt>
      <trkpt lat="43.65964" lon="5.2664">
        <ele>233.8</ele>
        <time>2021-04-25T08:00:14Z</time>
      </trkpt>
      <trkpt lat="43.65891" lon="5.26591">
        <ele>231</ele>
        <time>2021-04-25T08:00:25Z</time>
      </trkpt>
      <trkpt lat="43.6587" lon="5.26581">
        <ele>230</ele>
        <time>2021-04-25T08:00:29Z</time>
      </trkpt>
      <trkpt lat="43.6583" lon="5.26567">
        <ele>228.2</ele>
        <time>2021-04-25T08:00:38Z</time>
      </trkpt>
      <trkpt lat="43.65799" lon="5.2656">
        <ele>227</ele>
        <time>2021-04-25T08:00:44Z</time>
      </trkpt>
      <trkpt lat="43.65793" lon="5.26559">
        <ele>226.8</ele>
        <time>2021-04-25T08:00:45Z</time>
      </trkpt>
      <trkpt lat="43.65754" lon="5.26551">
        <ele>225.2</ele>
        <time>2021-04-25T08:00:52Z</time>
      </trkpt>
      <trkpt lat="43.6574" lon="5.26548">
        <ele>224.4</ele>
        <time>2021-04-25T08:00:55Z</time>
      </trkpt>
      <trkpt lat="43.65731" lon="5.26546">
        <ele>223.6</ele>
        <time>2021-04-25T08:00:58Z</time>
      </trkpt>
      <trkpt lat="43.65711" lon="5.26526">
        <ele>222.2</ele>
        <time>2021-04-25T08:01:04Z</time>
      </trkpt>
      <trkpt lat="43.65667" lon="5.265">
        <ele>220.6</ele>
        <time>2021-04-25T08:01:13Z</time>
      </trkpt>
      <trkpt lat="43.65658" lon="5.26495">
        <ele>220.2</ele>
        <time>2021-04-25T08:01:15Z</time>
      </trkpt>
      <trkpt lat="43.65647" lon="5.26484">
        <ele>219.8</ele>
        <time>2021-04-25T08:01:18Z</time>
      </trkpt>
      <trkpt lat="43.65649" lon="5.26467">
        <ele>219.2</ele>
        <time>2021-04-25T08:01:21Z</time>
      </trkpt>
      <trkpt lat="43.65654" lon="5.2645">
        <ele>218.6</ele>
        <time>2021-04-25T08:01:24Z</time>
      </trkpt>
      <trkpt lat="43.65654" lon="5.26415">
        <ele>217.4</ele>
        <time>2021-04-25T08:01:31Z</time>
      </trkpt>
      <trkpt lat="43.65644" lon="5.26385">
        <ele>216.4</ele>
        <time>2021-04-25T08:01:38Z</time>
      </trkpt>
      <trkpt lat="43.65639" lon="5.26371">
        <ele>215.6</ele>
        <time>2021-04-25T08:01:41Z</time>
      </trkpt>
      <trkpt lat="43.65637" lon="5.2636">
        <ele>214</ele>
        <time>2021-04-25T08:01:51Z</time>
      </trkpt>
      <trkpt lat="43.65637" lon="5.2636">
        <ele>210.2</ele>
        <time>2021-04-25T08:02:26Z</time>
      </trkpt>
      <trkpt lat="43.65637" lon="5.26359">
        <ele>207.4</ele>
        <time>2021-04-25T08:03:09Z</time>
      </trkpt>
      <trkpt lat="43.65637" lon="5.26359">
        <ele>206.6</ele>
        <time>2021-04-25T08:03:29Z</time>
      </trkpt>
      <trkpt lat="43.65637" lon="5.26346">
        <ele>205.8</ele>
        <time>2021-04-25T08:03:54Z</time>
      </trkpt>
      <trkpt lat="43.65645" lon="5.2631">
        <ele>205.8</ele>
        <time>2021-04-25T08:04:02Z</time>
      </trkpt>
      <trkpt lat="43.6565" lon="5.26297">
        <ele>205.8</ele>
        <time>2021-04-25T08:04:04Z</time>
      </trkpt>
      <trkpt lat="43.65632" lon="5.26269">
        <ele>205.6</ele>
        <time>2021-04-25T08:04:14Z</time>
      </trkpt>
      <trkpt lat="43.6563" lon="5.26244">
        <ele>206</ele>
        <time>2021-04-25T08:04:25Z</time>
      </trkpt>
      <trkpt lat="43.6563" lon="5.2624">
        <ele>205.8</ele>
        <time>2021-04-25T08:04:27Z</time>
      </trkpt>
      <trkpt lat="43.65644" lon="5.26239">
        <ele>205.6</ele>
        <time>2021-04-25T08:04:33Z</time>
      </trkpt>
      <trkpt lat="43.65651" lon="5.26238">
        <ele>205.6</ele>
        <time>2021-04-25T08:04:37Z</time>
      </trkpt>
      <trkpt lat="43.65668" lon="5.26238">
        <ele>205.4</ele>
        <time>2021-04-25T08:04:41Z</time>
      </trkpt>
      <trkpt lat="43.65711" lon="5.26241">
        <ele>205.2</ele>
        <time>2021-04-25T08:04:51Z</time>
      </trkpt>
      <trkpt lat="43.65757" lon="5.26213">
        <ele>205</ele>
        <time>2021-04-25T08:05:04Z</time>
      </trkpt>
      <trkpt lat="43.65786" lon="5.26194">
        <ele>205.4</ele>
        <time>2021-04-25T08:05:12Z</time>
      </trkpt>
      <trkpt lat="43.65822" lon="5.26192">
        <ele>205.8</ele>
        <time>2021-04-25T08:05:22Z</time>
      </trkpt>
      <trkpt lat="43.65878" lon="5.26214">
        <ele>207.4</ele>
        <time>2021-04-25T08:05:38Z</time>
      </trkpt>
      <trkpt lat="43.65905" lon="5.26226">
        <ele>208.2</ele>
        <time>2021-04-25T08:05:46Z</time>
      </trkpt>
      <trkpt lat="43.65918" lon="5.26224">
        <ele>208.6</ele>
        <time>2021-04-25T08:05:50Z</time>
      </trkpt>
      <trkpt lat="43.65942" lon="5.26209">
        <ele>210.2</ele>
        <time>2021-04-25T08:06:00Z</time>
      </trkpt>
      <trkpt lat="43.65961" lon="5.26198">
        <ele>211.4</ele>
        <time>2021-04-25T08:06:07Z</time>
      </trkpt>
      <trkpt lat="43.66004" lon="5.26174">
        <ele>213</ele>
        <time>2021-04-25T08:06:21Z</time>
      </trkpt>
      <trkpt lat="43.66054" lon="5.26148">
        <ele>214.4</ele>
        <time>2021-04-25T08:06:34Z</time>
      </trkpt>
      <trkpt lat="43.66063" lon="5.26147">
        <ele>214.6</ele>
        <time>2021-04-25T08:06:36Z</time>
      </trkpt>
      <trkpt lat="43.6608" lon="5.26144">
        <ele>214.8</ele>
        <time>2021-04-25T08:06:40Z</time>
      </trkpt>
      <trkpt lat="43.66152" lon="5.26117">
        <ele>216</ele>
        <time>2021-04-25T08:06:56Z</time>
      </trkpt>
      <trkpt lat="43.66175" lon="5.26109">
        <ele>216.4</ele>
        <time>2021-04-25T08:07:02Z</time>
      </trkpt>
      <trkpt lat="43.66185" lon="5.26078">
        <ele>216.6</ele>
        <time>2021-04-25T08:07:08Z</time>
      </trkpt>
      <trkpt lat="43.66203" lon="5.2604">
        <ele>217</ele>
        <time>2021-04-25T08:07:15Z</time>
      </trkpt>
      <trkpt lat="43.66218" lon="5.26015">
        <ele>217.2</ele>
        <time>2021-04-25T08:07:20Z</time>
      </trkpt>
      <trkpt lat="43.6626" lon="5.25961">
        <ele>218</ele>
        <time>2021-04-25T08:07:33Z</time>
      </trkpt>
      <trkpt lat="43.66293" lon="5.25919">
        <ele>218.6</ele>
        <time>2021-04-25T08:07:43Z</time>
      </trkpt>
      <trkpt lat="43.66308" lon="5.25891">
        <ele>218.8</ele>
        <time>2021-04-25T08:07:49Z</time>
      </trkpt>
      <trkpt lat="43.66332" lon="5.25845">
        <ele>219.2</ele>
        <time>2021-04-25T08:07:57Z</time>
      </trkpt>
      <trkpt lat="43.66376" lon="5.2578">
        <ele>219.2</ele>
        <time>2021-04-25T08:08:08Z</time>
      </trkpt>
      <trkpt lat="43.66381" lon="5.25778">
        <ele>219</ele>
        <time>2021-04-25T08:08:09Z</time>
      </trkpt>
      <trkpt lat="43.66404" lon="5.25776">
        <ele>219</ele>
        <time>2021-04-25T08:08:13Z</time>
      </trkpt>
      <trkpt lat="43.66433" lon="5.25768">
        <ele>218.4</ele>
        <time>2021-04-25T08:08:17Z</time>
      </trkpt>
      <trkpt lat="43.6644" lon="5.25763">
        <ele>218.4</ele>
        <time>2021-04-25T08:08:18Z</time>
      </trkpt>
      <trkpt lat="43.66482" lon="5.25708">
        <ele>217.6</ele>
        <time>2021-04-25T08:08:26Z</time>
      </trkpt>
      <trkpt lat="43.66519" lon="5.25685">
        <ele>217.6</ele>
        <time>2021-04-25T08:08:33Z</time>
      </trkpt>
      <trkpt lat="43.6653" lon="5.25684">
        <ele>217.6</ele>
        <time>2021-04-25T08:08:35Z</time>
      </trkpt>
      <trkpt lat="43.66584" lon="5.25684">
        <ele>217.6</ele>
        <time>2021-04-25T08:08:45Z</time>
      </trkpt>
      <trkpt lat="43.66603" lon="5.25681">
        <ele>217.2</ele>
        <time>2021-04-25T08:08:49Z</time>
      </trkpt>
      <trkpt lat="43.66612" lon="5.25675">
        <ele>217.4</ele>
        <time>2021-04-25T08:08:51Z</time>
      </trkpt>
      <trkpt lat="43.66616" lon="5.25663">
        <ele>217.6</ele>
        <time>2021-04-25T08:08:53Z</time>
      </trkpt>
      <trkpt lat="43.66617" lon="5.25642">
        <ele>217.8</ele>
        <time>2021-04-25T08:08:56Z</time>
      </trkpt>
      <trkpt lat="43.66618" lon="5.25599">
        <ele>217.8</ele>
        <time>2021-04-25T08:09:02Z</time>
      </trkpt>
      <trkpt lat="43.66622" lon="5.2559">
        <ele>217.8</ele>
        <time>2021-04-25T08:09:04Z</time>
      </trkpt>
      <trkpt lat="43.6663" lon="5.2559">
        <ele>217.8</ele>
        <time>2021-04-25T08:09:06Z</time>
      </trkpt>
      <trkpt lat="43.66689" lon="5.2561">
        <ele>218.4</ele>
        <time>2021-04-25T08:09:19Z</time>
      </trkpt>
      <trkpt lat="43.66719" lon="5.25616">
        <ele>219</ele>
        <time>2021-04-25T08:09:26Z</time>
      </trkpt>
      <trkpt lat="43.66732" lon="5.25581">
        <ele>219.4</ele>
        <time>2021-04-25T08:09:33Z</time>
      </trkpt>
      <trkpt lat="43.66742" lon="5.2553">
        <ele>220.4</ele>
        <time>2021-04-25T08:09:42Z</time>
      </trkpt>
      <trkpt lat="43.66757" lon="5.25487">
        <ele>221.2</ele>
        <time>2021-04-25T08:09:50Z</time>
      </trkpt>
      <trkpt lat="43.66758" lon="5.25452">
        <ele>222</ele>
        <time>2021-04-25T08:09:56Z</time>
      </trkpt>
      <trkpt lat="43.66775" lon="5.25395">
        <ele>222.8</ele>
        <time>2021-04-25T08:10:05Z</time>
      </trkpt>
      <trkpt lat="43.66777" lon="5.25391">
        <ele>222.8</ele>
        <time>2021-04-25T08:10:06Z</time>
      </trkpt>
      <trkpt lat="43.66789" lon="5.25381">
        <ele>223</ele>
        <time>2021-04-25T08:10:09Z</time>
      </trkpt>
      <trkpt lat="43.66799" lon="5.25387">
        <ele>223.2</ele>
        <time>2021-04-25T08:10:12Z</time>
      </trkpt>
      <trkpt lat="43.66809" lon="5.25398">
        <ele>223.4</ele>
        <time>2021-04-25T08:10:15Z</time>
      </trkpt>
      <trkpt lat="43.66839" lon="5.25417">
        <ele>224.2</ele>
        <time>2021-04-25T08:10:23Z</time>
      </trkpt>
      <trkpt lat="43.66878" lon="5.25428">
        <ele>225</ele>
        <time>2021-04-25T08:10:33Z</time>
      </trkpt>
      <trkpt lat="43.669" lon="5.25446">
        <ele>225.8</ele>
        <time>2021-04-25T08:10:40Z</time>
      </trkpt>
      <trkpt lat="43.66929" lon="5.2547">
        <ele>227.4</ele>
        <time>2021-04-25T08:10:51Z</time>
      </trkpt>
      <trkpt lat="43.6696" lon="5.25436">
        <ele>228.6</ele>
        <time>2021-04-25T08:11:01Z</time>
      </trkpt>
      <trkpt lat="43.66978" lon="5.25401">
        <ele>229.2</ele>
        <time>2021-04-25T08:11:08Z</time>
      </trkpt>
      <trkpt lat="43.67009" lon="5.25324">
        <ele>230.4</ele>
        <time>2021-04-25T08:11:21Z</time>
      </trkpt>
      <trkpt lat="43.67031" lon="5.25314">
        <ele>231</ele>
        <time>2021-04-25T08:11:28Z</time>
      </trkpt>
      <trkpt lat="43.67036" lon="5.25316">
        <ele>231</ele>
        <time>2021-04-25T08:11:29Z</time>
      </trkpt>
      <trkpt lat="43.67056" lon="5.25304">
        <ele>231.2</ele>
        <time>2021-04-25T08:11:34Z</time>
      </trkpt>
      <trkpt lat="43.6706" lon="5.25283">
        <ele>231.4</ele>
        <time>2021-04-25T08:11:37Z</time>
      </trkpt>
      <trkpt lat="43.67064" lon="5.25254">
        <ele>231.6</ele>
        <time>2021-04-25T08:11:41Z</time>
      </trkpt>
      <trkpt lat="43.67067" lon="5.2516">
        <ele>231.8</ele>
        <time>2021-04-25T08:11:53Z</time>
      </trkpt>
      <trkpt lat="43.67064" lon="5.25138">
        <ele>231.8</ele>
        <time>2021-04-25T08:11:56Z</time>
      </trkpt>
      <trkpt lat="43.67063" lon="5.25131">
        <ele>231.6</ele>
        <time>2021-04-25T08:11:57Z</time>
      </trkpt>
      <trkpt lat="43.67076" lon="5.25121">
        <ele>231.8</ele>
        <time>2021-04-25T08:12:01Z</time>
      </trkpt>
      <trkpt lat="43.67086" lon="5.25114">
        <ele>231.8</ele>
        <time>2021-04-25T08:12:03Z</time>
      </trkpt>
      <trkpt lat="43.67093" lon="5.25104">
        <ele>231.8</ele>
        <time>2021-04-25T08:12:05Z</time>
      </trkpt>
      <trkpt lat="43.67111" lon="5.25084">
        <ele>231.8</ele>
        <time>2021-04-25T08:12:10Z</time>
      </trkpt>
      <trkpt lat="43.67165" lon="5.25037">
        <ele>232.2</ele>
        <time>2021-04-25T08:12:24Z</time>
      </trkpt>
      <trkpt lat="43.67196" lon="5.25018">
        <ele>232.6</ele>
        <time>2021-04-25T08:12:32Z</time>
      </trkpt>
      <trkpt lat="43.67223" lon="5.25002">
        <ele>233</ele>
        <time>2021-04-25T08:12:39Z</time>
      </trkpt>
      <trkpt lat="43.67238" lon="5.24977">
        <ele>233.6</ele>
        <time>2021-04-25T08:12:45Z</time>
      </trkpt>
      <trkpt lat="43.67252" lon="5.24947">
        <ele>234</ele>
        <time>2021-04-25T08:12:51Z</time>
      </trkpt>
      <trkpt lat="43.67254" lon="5.24935">
        <ele>234.2</ele>
        <time>2021-04-25T08:12:53Z</time>
      </trkpt>
      <trkpt lat="43.67251" lon="5.24859">
        <ele>235</ele>
        <time>2021-04-25T08:13:05Z</time>
      </trkpt>
      <trkpt lat="43.67252" lon="5.2485">
        <ele>235.2</ele>
        <time>2021-04-25T08:13:07Z</time>
      </trkpt>
      <trkpt lat="43.67259" lon="5.24845">
        <ele>235.4</ele>
        <time>2021-04-25T08:13:09Z</time>
      </trkpt>
      <trkpt lat="43.67305" lon="5.2483">
        <ele>236.2</ele>
        <time>2021-04-25T08:13:19Z</time>
      </trkpt>
      <trkpt lat="43.67323" lon="5.24821">
        <ele>236.6</ele>
        <time>2021-04-25T08:13:23Z</time>
      </trkpt>
      <trkpt lat="43.67335" lon="5.24812">
        <ele>236.8</ele>
        <time>2021-04-25T08:13:26Z</time>
      </trkpt>
      <trkpt lat="43.67358" lon="5.24789">
        <ele>237.4</ele>
        <time>2021-04-25T08:13:32Z</time>
      </trkpt>
      <trkpt lat="43.67394" lon="5.2476">
        <ele>238.4</ele>
        <time>2021-04-25T08:13:41Z</time>
      </trkpt>
      <trkpt lat="43.67436" lon="5.24727">
        <ele>239.8</ele>
        <time>2021-04-25T08:13:51Z</time>
      </trkpt>
      <trkpt lat="43.67453" lon="5.24724">
        <ele>240.4</ele>
        <time>2021-04-25T08:13:55Z</time>
      </trkpt>
      <trkpt lat="43.67473" lon="5.24726">
        <ele>240.8</ele>
        <time>2021-04-25T08:13:59Z</time>
      </trkpt>
      <trkpt lat="43.67552" lon="5.24725">
        <ele>242.6</ele>
        <time>2021-04-25T08:14:14Z</time>
      </trkpt>
      <trkpt lat="43.67561" lon="5.24717">
        <ele>242.8</ele>
        <time>2021-04-25T08:14:16Z</time>
      </trkpt>
      <trkpt lat="43.67567" lon="5.24704">
        <ele>243</ele>
        <time>2021-04-25T08:14:18Z</time>
      </trkpt>
      <trkpt lat="43.67577" lon="5.24643">
        <ele>243.8</ele>
        <time>2021-04-25T08:14:26Z</time>
      </trkpt>
      <trkpt lat="43.67578" lon="5.24583">
        <ele>245</ele>
        <time>2021-04-25T08:14:35Z</time>
      </trkpt>
      <trkpt lat="43.67589" lon="5.24483">
        <ele>247.2</ele>
        <time>2021-04-25T08:14:51Z</time>
      </trkpt>
      <trkpt lat="43.67591" lon="5.24469">
        <ele>247.4</ele>
        <time>2021-04-25T08:14:53Z</time>
      </trkpt>
      <trkpt lat="43.67602" lon="5.24436">
        <ele>247.8</ele>
        <time>2021-04-25T08:14:58Z</time>
      </trkpt>
      <trkpt lat="43.6761" lon="5.24369">
        <ele>248.2</ele>
        <time>2021-04-25T08:15:06Z</time>
      </trkpt>
      <trkpt lat="43.67614" lon="5.24318">
        <ele>248.6</ele>
        <time>2021-04-25T08:15:12Z</time>
      </trkpt>
      <trkpt lat="43.67601" lon="5.24249">
        <ele>249.6</ele>
        <time>2021-04-25T08:15:23Z</time>
      </trkpt>
      <trkpt lat="43.67594" lon="5.24183">
        <ele>250.8</ele>
        <time>2021-04-25T08:15:35Z</time>
      </trkpt>
      <trkpt lat="43.67592" lon="5.24155">
        <ele>251.2</ele>
        <time>2021-04-25T08:15:39Z</time>
      </trkpt>
      <trkpt lat="43.67584" lon="5.24092">
        <ele>251.4</ele>
        <time>2021-04-25T08:15:47Z</time>
      </trkpt>
      <trkpt lat="43.67585" lon="5.24077">
        <ele>251.4</ele>
        <time>2021-04-25T08:15:49Z</time>
      </trkpt>
      <trkpt lat="43.67593" lon="5.24057">
        <ele>251.6</ele>
        <time>2021-04-25T08:15:52Z</time>
      </trkpt>
      <trkpt lat="43.67608" lon="5.24017">
        <ele>251.6</ele>
        <time>2021-04-25T08:15:57Z</time>
      </trkpt>
      <trkpt lat="43.67616" lon="5.23977">
        <ele>251.4</ele>
        <time>2021-04-25T08:16:01Z</time>
      </trkpt>
      <trkpt lat="43.67637" lon="5.23925">
        <ele>250.8</ele>
        <time>2021-04-25T08:16:07Z</time>
      </trkpt>
      <trkpt lat="43.6764" lon="5.23818">
        <ele>250.8</ele>
        <time>2021-04-25T08:16:19Z</time>
      </trkpt>
      <trkpt lat="43.6764" lon="5.23787">
        <ele>250.4</ele>
        <time>2021-04-25T08:16:24Z</time>
      </trkpt>
      <trkpt lat="43.67632" lon="5.2378">
        <ele>250.8</ele>
        <time>2021-04-25T08:16:26Z</time>
      </trkpt>
      <trkpt lat="43.6763" lon="5.23764">
        <ele>250.6</ele>
        <time>2021-04-25T08:16:34Z</time>
      </trkpt>
      <trkpt lat="43.67649" lon="5.23702">
        <ele>249.8</ele>
        <time>2021-04-25T08:16:43Z</time>
      </trkpt>
      <trkpt lat="43.67653" lon="5.23684">
        <ele>249.6</ele>
        <time>2021-04-25T08:16:45Z</time>
      </trkpt>
      <trkpt lat="43.6766" lon="5.23601">
        <ele>249</ele>
        <time>2021-04-25T08:16:54Z</time>
      </trkpt>
      <trkpt lat="43.67666" lon="5.23555">
        <ele>248.6</ele>
        <time>2021-04-25T08:17:00Z</time>
      </trkpt>
      <trkpt lat="43.67674" lon="5.23537">
        <ele>248.6</ele>
        <time>2021-04-25T08:17:03Z</time>
      </trkpt>
      <trkpt lat="43.67702" lon="5.23465">
        <ele>248.8</ele>
        <time>2021-04-25T08:17:17Z</time>
      </trkpt>
      <trkpt lat="43.67728" lon="5.23407">
        <ele>249.4</ele>
        <time>2021-04-25T08:17:30Z</time>
      </trkpt>
      <trkpt lat="43.6774" lon="5.23381">
        <ele>250</ele>
        <time>2021-04-25T08:17:36Z</time>
      </trkpt>
      <trkpt lat="43.67764" lon="5.23365">
        <ele>251.6</ele>
        <time>2021-04-25T08:17:46Z</time>
      </trkpt>
      <trkpt lat="43.67785" lon="5.23358">
        <ele>253.2</ele>
        <time>2021-04-25T08:17:57Z</time>
      </trkpt>
      <trkpt lat="43.67796" lon="5.23354">
        <ele>254</ele>
        <time>2021-04-25T08:18:02Z</time>
      </trkpt>
      <trkpt lat="43.67823" lon="5.23352">
        <ele>255.8</ele>
        <time>2021-04-25T08:18:11Z</time>
      </trkpt>
      <trkpt lat="43.67832" lon="5.23365">
        <ele>256.6</ele>
        <time>2021-04-25T08:18:16Z</time>
      </trkpt>
      <trkpt lat="43.67835" lon="5.23371">
        <ele>257</ele>
        <time>2021-04-25T08:18:18Z</time>
      </trkpt>
      <trkpt lat="43.67842" lon="5.23399">
        <ele>258.6</ele>
        <time>2021-04-25T08:18:26Z</time>
      </trkpt>
      <trkpt lat="43.67852" lon="5.23415">
        <ele>259.8</ele>
        <time>2021-04-25T08:18:32Z</time>
      </trkpt>
      <trkpt lat="43.67856" lon="5.23415">
        <ele>260.2</ele>
        <time>2021-04-25T08:18:34Z</time>
      </trkpt>
      <trkpt lat="43.67864" lon="5.23392">
        <ele>261.6</ele>
        <time>2021-04-25T08:18:41Z</time>
      </trkpt>
      <trkpt lat="43.6787" lon="5.23347">
        <ele>264</ele>
        <time>2021-04-25T08:18:53Z</time>
      </trkpt>
      <trkpt lat="43.6788" lon="5.23327">
        <ele>265.4</ele>
        <time>2021-04-25T08:18:59Z</time>
      </trkpt>
      <trkpt lat="43.67903" lon="5.23306">
        <ele>267.6</ele>
        <time>2021-04-25T08:19:10Z</time>
      </trkpt>
      <trkpt lat="43.6793" lon="5.23284">
        <ele>270.4</ele>
        <time>2021-04-25T08:19:23Z</time>
      </trkpt>
      <trkpt lat="43.67944" lon="5.23275">
        <ele>272</ele>
        <time>2021-04-25T08:19:30Z</time>
      </trkpt>
      <trkpt lat="43.67968" lon="5.23253">
        <ele>275.4</ele>
        <time>2021-04-25T08:19:43Z</time>
      </trkpt>
      <trkpt lat="43.68003" lon="5.23221">
        <ele>278.4</ele>
        <time>2021-04-25T08:19:55Z</time>
      </trkpt>
      <trkpt lat="43.68017" lon="5.23208">
        <ele>279.4</ele>
        <time>2021-04-25T08:20:00Z</time>
      </trkpt>
      <trkpt lat="43.68026" lon="5.23206">
        <ele>282</ele>
        <time>2021-04-25T08:20:13Z</time>
      </trkpt>
      <trkpt lat="43.68031" lon="5.23199">
        <ele>283.2</ele>
        <time>2021-04-25T08:20:19Z</time>
      </trkpt>
      <trkpt lat="43.68042" lon="5.23186">
        <ele>284</ele>
        <time>2021-04-25T08:20:24Z</time>
      </trkpt>
      <trkpt lat="43.68063" lon="5.23156">
        <ele>285</ele>
        <time>2021-04-25T08:20:31Z</time>
      </trkpt>
      <trkpt lat="43.68078" lon="5.23147">
        <ele>285.2</ele>
        <time>2021-04-25T08:20:34Z</time>
      </trkpt>
      <trkpt lat="43.68095" lon="5.23129">
        <ele>285.6</ele>
        <time>2021-04-25T08:20:39Z</time>
      </trkpt>
      <trkpt lat="43.68094" lon="5.23119">
        <ele>286</ele>
        <time>2021-04-25T08:20:42Z</time>
      </trkpt>
      <trkpt lat="43.68086" lon="5.23079">
        <ele>287</ele>
        <time>2021-04-25T08:20:51Z</time>
      </trkpt>
      <trkpt lat="43.68087" lon="5.23064">
        <ele>287.4</ele>
        <time>2021-04-25T08:20:54Z</time>
      </trkpt>
      <trkpt lat="43.68091" lon="5.23046">
        <ele>287.4</ele>
        <time>2021-04-25T08:20:57Z</time>
      </trkpt>
      <trkpt lat="43.68088" lon="5.23029">
        <ele>287.6</ele>
        <time>2021-04-25T08:21:00Z</time>
      </trkpt>
      <trkpt lat="43.68083" lon="5.23023">
        <ele>287.8</ele>
        <time>2021-04-25T08:21:02Z</time>
      </trkpt>
      <trkpt lat="43.68077" lon="5.23015">
        <ele>287.8</ele>
        <time>2021-04-25T08:21:04Z</time>
      </trkpt>
      <trkpt lat="43.68067" lon="5.23008">
        <ele>288</ele>
        <time>2021-04-25T08:21:07Z</time>
      </trkpt>
      <trkpt lat="43.68046" lon="5.22985">
        <ele>287.8</ele>
        <time>2021-04-25T08:21:13Z</time>
      </trkpt>
      <trkpt lat="43.68037" lon="5.22975">
        <ele>287.8</ele>
        <time>2021-04-25T08:21:15Z</time>
      </trkpt>
      <trkpt lat="43.68023" lon="5.22955">
        <ele>287.6</ele>
        <time>2021-04-25T08:21:18Z</time>
      </trkpt>
      <trkpt lat="43.68001" lon="5.22928">
        <ele>286.6</ele>
        <time>2021-04-25T08:21:22Z</time>
      </trkpt>
      <trkpt lat="43.67986" lon="5.22914">
        <ele>285.8</ele>
        <time>2021-04-25T08:21:25Z</time>
      </trkpt>
      <trkpt lat="43.67979" lon="5.22904">
        <ele>285.2</ele>
        <time>2021-04-25T08:21:27Z</time>
      </trkpt>
      <trkpt lat="43.67972" lon="5.22895">
        <ele>284.6</ele>
        <time>2021-04-25T08:21:29Z</time>
      </trkpt>
      <trkpt lat="43.67966" lon="5.22882">
        <ele>283.8</ele>
        <time>2021-04-25T08:21:31Z</time>
      </trkpt>
      <trkpt lat="43.67959" lon="5.22859">
        <ele>282.6</ele>
        <time>2021-04-25T08:21:34Z</time>
      </trkpt>
      <trkpt lat="43.67932" lon="5.22837">
        <ele>280.8</ele>
        <time>2021-04-25T08:21:39Z</time>
      </trkpt>
      <trkpt lat="43.67927" lon="5.22832">
        <ele>280.4</ele>
        <time>2021-04-25T08:21:40Z</time>
      </trkpt>
      <trkpt lat="43.6787" lon="5.22765">
        <ele>277</ele>
        <time>2021-04-25T08:21:49Z</time>
      </trkpt>
      <trkpt lat="43.6785" lon="5.2276">
        <ele>276</ele>
        <time>2021-04-25T08:21:52Z</time>
      </trkpt>
      <trkpt lat="43.67845" lon="5.22759">
        <ele>275.6</ele>
        <time>2021-04-25T08:21:53Z</time>
      </trkpt>
      <trkpt lat="43.67844" lon="5.22731">
        <ele>273.8</ele>
        <time>2021-04-25T08:21:59Z</time>
      </trkpt>
      <trkpt lat="43.67858" lon="5.22639">
        <ele>270.6</ele>
        <time>2021-04-25T08:22:14Z</time>
      </trkpt>
      <trkpt lat="43.67861" lon="5.22595">
        <ele>269.6</ele>
        <time>2021-04-25T08:22:22Z</time>
      </trkpt>
      <trkpt lat="43.67832" lon="5.22524">
        <ele>268</ele>
        <time>2021-04-25T08:22:35Z</time>
      </trkpt>
      <trkpt lat="43.67814" lon="5.22489">
        <ele>267.4</ele>
        <time>2021-04-25T08:22:41Z</time>
      </trkpt>
      <trkpt lat="43.67813" lon="5.22474">
        <ele>267</ele>
        <time>2021-04-25T08:22:45Z</time>
      </trkpt>
      <trkpt lat="43.67813" lon="5.2247">
        <ele>265.8</ele>
        <time>2021-04-25T08:23:03Z</time>
      </trkpt>
      <trkpt lat="43.6781" lon="5.22419">
        <ele>265.6</ele>
        <time>2021-04-25T08:23:15Z</time>
      </trkpt>
      <trkpt lat="43.67808" lon="5.22417">
        <ele>265.6</ele>
        <time>2021-04-25T08:23:16Z</time>
      </trkpt>
      <trkpt lat="43.67772" lon="5.2242">
        <ele>264.6</ele>
        <time>2021-04-25T08:23:23Z</time>
      </trkpt>
      <trkpt lat="43.67752" lon="5.22428">
        <ele>263.8</ele>
        <time>2021-04-25T08:23:27Z</time>
      </trkpt>
      <trkpt lat="43.67748" lon="5.22432">
        <ele>263.6</ele>
        <time>2021-04-25T08:23:28Z</time>
      </trkpt>
      <trkpt lat="43.67727" lon="5.22438">
        <ele>263</ele>
        <time>2021-04-25T08:23:32Z</time>
      </trkpt>
      <trkpt lat="43.67718" lon="5.22433">
        <ele>262.6</ele>
        <time>2021-04-25T08:23:34Z</time>
      </trkpt>
      <trkpt lat="43.67714" lon="5.22424">
        <ele>262.2</ele>
        <time>2021-04-25T08:23:36Z</time>
      </trkpt>
      <trkpt lat="43.67714" lon="5.22357">
        <ele>261.2</ele>
        <time>2021-04-25T08:23:49Z</time>
      </trkpt>
      <trkpt lat="43.67707" lon="5.22318">
        <ele>260.8</ele>
        <time>2021-04-25T08:23:56Z</time>
      </trkpt>
      <trkpt lat="43.67701" lon="5.22294">
        <ele>260.4</ele>
        <time>2021-04-25T08:24:00Z</time>
      </trkpt>
      <trkpt lat="43.67687" lon="5.22196">
        <ele>259.6</ele>
        <time>2021-04-25T08:24:12Z</time>
      </trkpt>
      <trkpt lat="43.67679" lon="5.22058">
        <ele>260</ele>
        <time>2021-04-25T08:24:32Z</time>
      </trkpt>
      <trkpt lat="43.67676" lon="5.22011">
        <ele>260.2</ele>
        <time>2021-04-25T08:24:39Z</time>
      </trkpt>
      <trkpt lat="43.67674" lon="5.21971">
        <ele>260.8</ele>
        <time>2021-04-25T08:24:45Z</time>
      </trkpt>
      <trkpt lat="43.67684" lon="5.21909">
        <ele>261.8</ele>
        <time>2021-04-25T08:24:55Z</time>
      </trkpt>
      <trkpt lat="43.67686" lon="5.21903">
        <ele>261.8</ele>
        <time>2021-04-25T08:24:56Z</time>
      </trkpt>
      <trkpt lat="43.67689" lon="5.21872">
        <ele>262.2</ele>
        <time>2021-04-25T08:25:01Z</time>
      </trkpt>
      <trkpt lat="43.67685" lon="5.2184">
        <ele>262.6</ele>
        <time>2021-04-25T08:25:06Z</time>
      </trkpt>
      <trkpt lat="43.67679" lon="5.21804">
        <ele>263.2</ele>
        <time>2021-04-25T08:25:12Z</time>
      </trkpt>
      <trkpt lat="43.67671" lon="5.21789">
        <ele>263.6</ele>
        <time>2021-04-25T08:25:16Z</time>
      </trkpt>
      <trkpt lat="43.67667" lon="5.21777">
        <ele>263.8</ele>
        <time>2021-04-25T08:25:19Z</time>
      </trkpt>
      <trkpt lat="43.67669" lon="5.21738">
        <ele>265</ele>
        <time>2021-04-25T08:25:29Z</time>
      </trkpt>
      <trkpt lat="43.67669" lon="5.21713">
        <ele>265.8</ele>
        <time>2021-04-25T08:25:34Z</time>
      </trkpt>
      <trkpt lat="43.67665" lon="5.21683">
        <ele>267</ele>
        <time>2021-04-25T08:25:39Z</time>
      </trkpt>
      <trkpt lat="43.67663" lon="5.2166">
        <ele>267.8</ele>
        <time>2021-04-25T08:25:43Z</time>
      </trkpt>
      <trkpt lat="43.67657" lon="5.2164">
        <ele>268.6</ele>
        <time>2021-04-25T08:25:48Z</time>
      </trkpt>
      <trkpt lat="43.67651" lon="5.21628">
        <ele>269.4</ele>
        <time>2021-04-25T08:25:52Z</time>
      </trkpt>
      <trkpt lat="43.6764" lon="5.21607">
        <ele>271</ele>
        <time>2021-04-25T08:26:00Z</time>
      </trkpt>
      <trkpt lat="43.67639" lon="5.21603">
        <ele>271.4</ele>
        <time>2021-04-25T08:26:02Z</time>
      </trkpt>
      <trkpt lat="43.67645" lon="5.21602">
        <ele>272</ele>
        <time>2021-04-25T08:26:06Z</time>
      </trkpt>
      <trkpt lat="43.67644" lon="5.21606">
        <ele>272.6</ele>
        <time>2021-04-25T08:26:10Z</time>
      </trkpt>
      <trkpt lat="43.67641" lon="5.21599">
        <ele>273.2</ele>
        <time>2021-04-25T08:26:13Z</time>
      </trkpt>
      <trkpt lat="43.6763" lon="5.21566">
        <ele>274</ele>
        <time>2021-04-25T08:26:21Z</time>
      </trkpt>
      <trkpt lat="43.6764" lon="5.21502">
        <ele>275.8</ele>
        <time>2021-04-25T08:26:34Z</time>
      </trkpt>
      <trkpt lat="43.67644" lon="5.21479">
        <ele>277</ele>
        <time>2021-04-25T08:26:41Z</time>
      </trkpt>
      <trkpt lat="43.67636" lon="5.21422">
        <ele>278.8</ele>
        <time>2021-04-25T08:26:53Z</time>
      </trkpt>
      <trkpt lat="43.67626" lon="5.2136">
        <ele>280.8</ele>
        <time>2021-04-25T08:27:06Z</time>
      </trkpt>
      <trkpt lat="43.67624" lon="5.21348">
        <ele>281.2</ele>
        <time>2021-04-25T08:27:09Z</time>
      </trkpt>
      <trkpt lat="43.67624" lon="5.21322">
        <ele>282.2</ele>
        <time>2021-04-25T08:27:15Z</time>
      </trkpt>
      <trkpt lat="43.67622" lon="5.21288">
        <ele>284.2</ele>
        <time>2021-04-25T08:27:25Z</time>
      </trkpt>
      <trkpt lat="43.67622" lon="5.21285">
        <ele>284.4</ele>
        <time>2021-04-25T08:27:26Z</time>
      </trkpt>
      <trkpt lat="43.6761" lon="5.21255">
        <ele>286.2</ele>
        <time>2021-04-25T08:27:34Z</time>
      </trkpt>
      <trkpt lat="43.67588" lon="5.21232">
        <ele>288</ele>
        <time>2021-04-25T08:27:43Z</time>
      </trkpt>
      <trkpt lat="43.67575" lon="5.21221">
        <ele>289.2</ele>
        <time>2021-04-25T08:27:49Z</time>
      </trkpt>
      <trkpt lat="43.67558" lon="5.21188">
        <ele>290.8</ele>
        <time>2021-04-25T08:27:59Z</time>
      </trkpt>
      <trkpt lat="43.67549" lon="5.21158">
        <ele>291.2</ele>
        <time>2021-04-25T08:28:03Z</time>
      </trkpt>
      <trkpt lat="43.67531" lon="5.21097">
        <ele>291.2</ele>
        <time>2021-04-25T08:28:10Z</time>
      </trkpt>
      <trkpt lat="43.6753" lon="5.21075">
        <ele>291.4</ele>
        <time>2021-04-25T08:28:13Z</time>
      </trkpt>
      <trkpt lat="43.67531" lon="5.21001">
        <ele>292.4</ele>
        <time>2021-04-25T08:28:26Z</time>
      </trkpt>
      <trkpt lat="43.67528" lon="5.20973">
        <ele>293</ele>
        <time>2021-04-25T08:28:32Z</time>
      </trkpt>
      <trkpt lat="43.6753" lon="5.20916">
        <ele>294.2</ele>
        <time>2021-04-25T08:28:43Z</time>
      </trkpt>
      <trkpt lat="43.67527" lon="5.2088">
        <ele>294.6</ele>
        <time>2021-04-25T08:28:49Z</time>
      </trkpt>
      <trkpt lat="43.67529" lon="5.20862">
        <ele>295</ele>
        <time>2021-04-25T08:28:52Z</time>
      </trkpt>
      <trkpt lat="43.67533" lon="5.20835">
        <ele>295.8</ele>
        <time>2021-04-25T08:29:01Z</time>
      </trkpt>
      <trkpt lat="43.67533" lon="5.20834">
        <ele>297.8</ele>
        <time>2021-04-25T08:29:31Z</time>
      </trkpt>
      <trkpt lat="43.67537" lon="5.20825">
        <ele>298.2</ele>
        <time>2021-04-25T08:29:37Z</time>
      </trkpt>
      <trkpt lat="43.67557" lon="5.20782">
        <ele>298.4</ele>
        <time>2021-04-25T08:29:46Z</time>
      </trkpt>
      <trkpt lat="43.67563" lon="5.20744">
        <ele>299</ele>
        <time>2021-04-25T08:29:55Z</time>
      </trkpt>
      <trkpt lat="43.67555" lon="5.20727">
        <ele>299.6</ele>
        <time>2021-04-25T08:30:00Z</time>
      </trkpt>
      <trkpt lat="43.67523" lon="5.20687">
        <ele>301.2</ele>
        <time>2021-04-25T08:30:13Z</time>
      </trkpt>
      <trkpt lat="43.67489" lon="5.20646">
        <ele>302</ele>
        <time>2021-04-25T08:30:26Z</time>
      </trkpt>
      <trkpt lat="43.67487" lon="5.20641">
        <ele>302</ele>
        <time>2021-04-25T08:30:28Z</time>
      </trkpt>
      <trkpt lat="43.67495" lon="5.20635">
        <ele>302.4</ele>
        <time>2021-04-25T08:30:33Z</time>
      </trkpt>
      <trkpt lat="43.67511" lon="5.20645">
        <ele>303</ele>
        <time>2021-04-25T08:30:40Z</time>
      </trkpt>
      <trkpt lat="43.67526" lon="5.20654">
        <ele>303.8</ele>
        <time>2021-04-25T08:30:47Z</time>
      </trkpt>
      <trkpt lat="43.67544" lon="5.20649">
        <ele>304.6</ele>
        <time>2021-04-25T08:30:56Z</time>
      </trkpt>
      <trkpt lat="43.67547" lon="5.2064">
        <ele>305</ele>
        <time>2021-04-25T08:31:00Z</time>
      </trkpt>
      <trkpt lat="43.67548" lon="5.20635">
        <ele>305.2</ele>
        <time>2021-04-25T08:31:02Z</time>
      </trkpt>
      <trkpt lat="43.67552" lon="5.20631">
        <ele>305.6</ele>
        <time>2021-04-25T08:31:06Z</time>
      </trkpt>
      <trkpt lat="43.67551" lon="5.20627">
        <ele>306</ele>
        <time>2021-04-25T08:31:10Z</time>
      </trkpt>
      <trkpt lat="43.6755" lon="5.20618">
        <ele>307.2</ele>
        <time>2021-04-25T08:31:26Z</time>
      </trkpt>
      <trkpt lat="43.67548" lon="5.20611">
        <ele>307.2</ele>
        <time>2021-04-25T08:31:28Z</time>
      </trkpt>
      <trkpt lat="43.67551" lon="5.20598">
        <ele>307.4</ele>
        <time>2021-04-25T08:31:32Z</time>
      </trkpt>
      <trkpt lat="43.67557" lon="5.20589">
        <ele>308.2</ele>
        <time>2021-04-25T08:31:51Z</time>
      </trkpt>
      <trkpt lat="43.67559" lon="5.20583">
        <ele>308.4</ele>
        <time>2021-04-25T08:31:56Z</time>
      </trkpt>
      <trkpt lat="43.67568" lon="5.2055">
        <ele>307.4</ele>
        <time>2021-04-25T08:32:06Z</time>
      </trkpt>
      <trkpt lat="43.6758" lon="5.20546">
        <ele>306.8</ele>
        <time>2021-04-25T08:32:16Z</time>
      </trkpt>
      <trkpt lat="43.6758" lon="5.20545">
        <ele>306.6</ele>
        <time>2021-04-25T08:32:17Z</time>
      </trkpt>
      <trkpt lat="43.6758" lon="5.20545">
        <ele>305</ele>
        <time>2021-04-25T08:32:50Z</time>
      </trkpt>
      <trkpt lat="43.67579" lon="5.20545">
        <ele>303.6</ele>
        <time>2021-04-25T08:33:33Z</time>
      </trkpt>
      <trkpt lat="43.67579" lon="5.20546">
        <ele>303.4</ele>
        <time>2021-04-25T08:33:44Z</time>
      </trkpt>
      <trkpt lat="43.67581" lon="5.20546">
        <ele>303</ele>
        <time>2021-04-25T08:33:54Z</time>
      </trkpt>
      <trkpt lat="43.676" lon="5.20536">
        <ele>302.2</ele>
        <time>2021-04-25T08:34:00Z</time>
      </trkpt>
      <trkpt lat="43.67609" lon="5.20537">
        <ele>301.8</ele>
        <time>2021-04-25T08:34:02Z</time>
      </trkpt>
      <trkpt lat="43.67622" lon="5.20538">
        <ele>301</ele>
        <time>2021-04-25T08:34:05Z</time>
      </trkpt>
      <trkpt lat="43.67634" lon="5.20537">
        <ele>300.2</ele>
        <time>2021-04-25T08:34:08Z</time>
      </trkpt>
      <trkpt lat="43.67652" lon="5.20535">
        <ele>299</ele>
        <time>2021-04-25T08:34:12Z</time>
      </trkpt>
      <trkpt lat="43.67658" lon="5.20531">
        <ele>298.2</ele>
        <time>2021-04-25T08:34:16Z</time>
      </trkpt>
      <trkpt lat="43.67658" lon="5.20531">
        <ele>294.2</ele>
        <time>2021-04-25T08:34:45Z</time>
      </trkpt>
      <trkpt lat="43.67663" lon="5.20524">
        <ele>293.6</ele>
        <time>2021-04-25T08:34:50Z</time>
      </trkpt>
      <trkpt lat="43.67689" lon="5.20519">
        <ele>293</ele>
        <time>2021-04-25T08:35:00Z</time>
      </trkpt>
      <trkpt lat="43.67697" lon="5.20515">
        <ele>293</ele>
        <time>2021-04-25T08:35:04Z</time>
      </trkpt>
      <trkpt lat="43.67702" lon="5.2051">
        <ele>293</ele>
        <time>2021-04-25T08:35:07Z</time>
      </trkpt>
      <trkpt lat="43.67707" lon="5.20503">
        <ele>293.2</ele>
        <time>2021-04-25T08:35:10Z</time>
      </trkpt>
      <trkpt lat="43.67717" lon="5.20504">
        <ele>294.8</ele>
        <time>2021-04-25T08:35:15Z</time>
      </trkpt>
      <trkpt lat="43.67719" lon="5.20502">
        <ele>293.8</ele>
        <time>2021-04-25T08:35:17Z</time>
      </trkpt>
      <trkpt lat="43.67724" lon="5.20501">
        <ele>293.8</ele>
        <time>2021-04-25T08:35:27Z</time>
      </trkpt>
      <trkpt lat="43.67725" lon="5.20501">
        <ele>294</ele>
        <time>2021-04-25T08:35:52Z</time>
      </trkpt>
      <trkpt lat="43.67725" lon="5.20501">
        <ele>294.2</ele>
        <time>2021-04-25T08:36:09Z</time>
      </trkpt>
      <trkpt lat="43.67725" lon="5.20502">
        <ele>294.4</ele>
        <time>2021-04-25T08:36:28Z</time>
      </trkpt>
      <trkpt lat="43.67733" lon="5.20514">
        <ele>294</ele>
        <time>2021-04-25T08:36:36Z</time>
      </trkpt>
      <trkpt lat="43.67733" lon="5.20514">
        <ele>294</ele>
        <time>2021-04-25T08:36:55Z</time>
      </trkpt>
      <trkpt lat="43.67733" lon="5.20514">
        <ele>293.8</ele>
        <time>2021-04-25T08:37:29Z</time>
      </trkpt>
      <trkpt lat="43.67732" lon="5.20515">
        <ele>293.8</ele>
        <time>2021-04-25T08:38:03Z</time>
      </trkpt>
      <trkpt lat="43.67732" lon="5.20515">
        <ele>293.8</ele>
        <time>2021-04-25T08:38:24Z</time>
      </trkpt>
      <trkpt lat="43.67733" lon="5.20515">
        <ele>293.6</ele>
        <time>2021-04-25T08:39:04Z</time>
      </trkpt>
      <trkpt lat="43.67739" lon="5.20526">
        <ele>293.4</ele>
        <time>2021-04-25T08:39:19Z</time>
      </trkpt>
      <trkpt lat="43.67743" lon="5.20527">
        <ele>293.2</ele>
        <time>2021-04-25T08:39:20Z</time>
      </trkpt>
      <trkpt lat="43.67761" lon="5.20535">
        <ele>292.8</ele>
        <time>2021-04-25T08:39:24Z</time>
      </trkpt>
      <trkpt lat="43.67787" lon="5.20544">
        <ele>291</ele>
        <time>2021-04-25T08:39:32Z</time>
      </trkpt>
      <trkpt lat="43.6779" lon="5.20543">
        <ele>290.4</ele>
        <time>2021-04-25T08:39:35Z</time>
      </trkpt>
      <trkpt lat="43.67794" lon="5.20537">
        <ele>289.2</ele>
        <time>2021-04-25T08:39:39Z</time>
      </trkpt>
      <trkpt lat="43.67801" lon="5.20536">
        <ele>288.4</ele>
        <time>2021-04-25T08:39:42Z</time>
      </trkpt>
      <trkpt lat="43.6781" lon="5.20531">
        <ele>287.6</ele>
        <time>2021-04-25T08:39:44Z</time>
      </trkpt>
      <trkpt lat="43.67853" lon="5.20508">
        <ele>285</ele>
        <time>2021-04-25T08:39:51Z</time>
      </trkpt>
      <trkpt lat="43.6786" lon="5.20497">
        <ele>282.2</ele>
        <time>2021-04-25T08:39:57Z</time>
      </trkpt>
      <trkpt lat="43.67859" lon="5.20494">
        <ele>281.8</ele>
        <time>2021-04-25T08:39:58Z</time>
      </trkpt>
      <trkpt lat="43.67863" lon="5.20487">
        <ele>278.8</ele>
        <time>2021-04-25T08:40:05Z</time>
      </trkpt>
      <trkpt lat="43.67872" lon="5.2048">
        <ele>277</ele>
        <time>2021-04-25T08:40:09Z</time>
      </trkpt>
      <trkpt lat="43.67888" lon="5.20467">
        <ele>275.4</ele>
        <time>2021-04-25T08:40:12Z</time>
      </trkpt>
      <trkpt lat="43.67905" lon="5.20443">
        <ele>273.8</ele>
        <time>2021-04-25T08:40:15Z</time>
      </trkpt>
      <trkpt lat="43.67919" lon="5.20408">
        <ele>271.8</ele>
        <time>2021-04-25T08:40:19Z</time>
      </trkpt>
      <trkpt lat="43.67923" lon="5.20393">
        <ele>270.6</ele>
        <time>2021-04-25T08:40:22Z</time>
      </trkpt>
      <trkpt lat="43.67924" lon="5.20388">
        <ele>270.2</ele>
        <time>2021-04-25T08:40:23Z</time>
      </trkpt>
      <trkpt lat="43.67929" lon="5.20339">
        <ele>266.6</ele>
        <time>2021-04-25T08:40:34Z</time>
      </trkpt>
      <trkpt lat="43.67932" lon="5.20328">
        <ele>265.8</ele>
        <time>2021-04-25T08:40:37Z</time>
      </trkpt>
      <trkpt lat="43.67931" lon="5.20318">
        <ele>264.6</ele>
        <time>2021-04-25T08:40:41Z</time>
      </trkpt>
      <trkpt lat="43.67931" lon="5.20318">
        <ele>259.6</ele>
        <time>2021-04-25T08:41:01Z</time>
      </trkpt>
      <trkpt lat="43.67931" lon="5.20317">
        <ele>255.4</ele>
        <time>2021-04-25T08:41:25Z</time>
      </trkpt>
      <trkpt lat="43.67932" lon="5.20315">
        <ele>255.2</ele>
        <time>2021-04-25T08:41:26Z</time>
      </trkpt>
      <trkpt lat="43.67933" lon="5.20312">
        <ele>254.8</ele>
        <time>2021-04-25T08:41:30Z</time>
      </trkpt>
      <trkpt lat="43.67934" lon="5.20309">
        <ele>252.6</ele>
        <time>2021-04-25T08:41:48Z</time>
      </trkpt>
      <trkpt lat="43.67935" lon="5.20306">
        <ele>252.6</ele>
        <time>2021-04-25T08:41:49Z</time>
      </trkpt>
      <trkpt lat="43.67944" lon="5.20284">
        <ele>252.2</ele>
        <time>2021-04-25T08:41:53Z</time>
      </trkpt>
      <trkpt lat="43.67957" lon="5.20272">
        <ele>251.6</ele>
        <time>2021-04-25T08:41:56Z</time>
      </trkpt>
      <trkpt lat="43.67958" lon="5.20272">
        <ele>250.8</ele>
        <time>2021-04-25T08:42:01Z</time>
      </trkpt>
      <trkpt lat="43.67961" lon="5.20271">
        <ele>249.8</ele>
        <time>2021-04-25T08:42:12Z</time>
      </trkpt>
      <trkpt lat="43.67964" lon="5.20264">
        <ele>249.4</ele>
        <time>2021-04-25T08:42:21Z</time>
      </trkpt>
      <trkpt lat="43.67965" lon="5.20264">
        <ele>249</ele>
        <time>2021-04-25T08:42:30Z</time>
      </trkpt>
      <trkpt lat="43.67965" lon="5.20262">
        <ele>248</ele>
        <time>2021-04-25T08:42:48Z</time>
      </trkpt>
      <trkpt lat="43.67965" lon="5.20262">
        <ele>247.6</ele>
        <time>2021-04-25T08:43:05Z</time>
      </trkpt>
      <trkpt lat="43.67967" lon="5.20259">
        <ele>247.8</ele>
        <time>2021-04-25T08:43:09Z</time>
      </trkpt>
      <trkpt lat="43.67978" lon="5.20252">
        <ele>248</ele>
        <time>2021-04-25T08:43:13Z</time>
      </trkpt>
      <trkpt lat="43.67993" lon="5.20229">
        <ele>248</ele>
        <time>2021-04-25T08:43:19Z</time>
      </trkpt>
      <trkpt lat="43.68003" lon="5.20215">
        <ele>248.2</ele>
        <time>2021-04-25T08:43:25Z</time>
      </trkpt>
      <trkpt lat="43.68027" lon="5.20186">
        <ele>248.2</ele>
        <time>2021-04-25T08:43:33Z</time>
      </trkpt>
      <trkpt lat="43.6804" lon="5.20177">
        <ele>248</ele>
        <time>2021-04-25T08:43:35Z</time>
      </trkpt>
      <trkpt lat="43.68057" lon="5.20175">
        <ele>247.8</ele>
        <time>2021-04-25T08:43:37Z</time>
      </trkpt>
      <trkpt lat="43.68094" lon="5.20167">
        <ele>247.2</ele>
        <time>2021-04-25T08:43:41Z</time>
      </trkpt>
      <trkpt lat="43.68131" lon="5.2015">
        <ele>246.2</ele>
        <time>2021-04-25T08:43:45Z</time>
      </trkpt>
      <trkpt lat="43.68138" lon="5.2015">
        <ele>246</ele>
        <time>2021-04-25T08:43:46Z</time>
      </trkpt>
      <trkpt lat="43.68154" lon="5.20165">
        <ele>245.2</ele>
        <time>2021-04-25T08:43:49Z</time>
      </trkpt>
      <trkpt lat="43.68157" lon="5.20183">
        <ele>244.4</ele>
        <time>2021-04-25T08:43:52Z</time>
      </trkpt>
      <trkpt lat="43.68153" lon="5.20206">
        <ele>243.6</ele>
        <time>2021-04-25T08:43:57Z</time>
      </trkpt>
      <trkpt lat="43.68141" lon="5.20261">
        <ele>242</ele>
        <time>2021-04-25T08:44:08Z</time>
      </trkpt>
      <trkpt lat="43.68128" lon="5.2029">
        <ele>241</ele>
        <time>2021-04-25T08:44:16Z</time>
      </trkpt>
      <trkpt lat="43.6813" lon="5.20292">
        <ele>241</ele>
        <time>2021-04-25T08:44:17Z</time>
      </trkpt>
      <trkpt lat="43.68136" lon="5.2029">
        <ele>240.6</ele>
        <time>2021-04-25T08:44:20Z</time>
      </trkpt>
      <trkpt lat="43.68162" lon="5.20257">
        <ele>239.4</ele>
        <time>2021-04-25T08:44:31Z</time>
      </trkpt>
      <trkpt lat="43.68182" lon="5.20247">
        <ele>238.8</ele>
        <time>2021-04-25T08:44:37Z</time>
      </trkpt>
      <trkpt lat="43.68198" lon="5.20236">
        <ele>238.6</ele>
        <time>2021-04-25T08:44:41Z</time>
      </trkpt>
      <trkpt lat="43.6822" lon="5.2021">
        <ele>238</ele>
        <time>2021-04-25T08:44:47Z</time>
      </trkpt>
      <trkpt lat="43.6823" lon="5.20198">
        <ele>237.8</ele>
        <time>2021-04-25T08:44:50Z</time>
      </trkpt>
      <trkpt lat="43.68242" lon="5.20176">
        <ele>237.4</ele>
        <time>2021-04-25T08:44:55Z</time>
      </trkpt>
      <trkpt lat="43.68246" lon="5.20162">
        <ele>237.2</ele>
        <time>2021-04-25T08:44:58Z</time>
      </trkpt>
      <trkpt lat="43.68249" lon="5.20154">
        <ele>237</ele>
        <time>2021-04-25T08:45:00Z</time>
      </trkpt>
      <trkpt lat="43.68253" lon="5.2012">
        <ele>236.2</ele>
        <time>2021-04-25T08:45:05Z</time>
      </trkpt>
      <trkpt lat="43.68246" lon="5.20101">
        <ele>235.6</ele>
        <time>2021-04-25T08:45:08Z</time>
      </trkpt>
      <trkpt lat="43.68244" lon="5.20092">
        <ele>234.8</ele>
        <time>2021-04-25T08:45:11Z</time>
      </trkpt>
      <trkpt lat="43.68243" lon="5.20088">
        <ele>234.6</ele>
        <time>2021-04-25T08:45:12Z</time>
      </trkpt>
      <trkpt lat="43.68234" lon="5.20082">
        <ele>233.8</ele>
        <time>2021-04-25T08:45:15Z</time>
      </trkpt>
      <trkpt lat="43.68236" lon="5.20076">
        <ele>232.4</ele>
        <time>2021-04-25T08:45:19Z</time>
      </trkpt>
      <trkpt lat="43.68239" lon="5.20075">
        <ele>232</ele>
        <time>2021-04-25T08:45:21Z</time>
      </trkpt>
      <trkpt lat="43.68254" lon="5.20064">
        <ele>230.6</ele>
        <time>2021-04-25T08:45:26Z</time>
      </trkpt>
      <trkpt lat="43.68266" lon="5.20047">
        <ele>229</ele>
        <time>2021-04-25T08:45:32Z</time>
      </trkpt>
      <trkpt lat="43.68268" lon="5.20045">
        <ele>228.8</ele>
        <time>2021-04-25T08:45:33Z</time>
      </trkpt>
      <trkpt lat="43.6828" lon="5.20037">
        <ele>227.6</ele>
        <time>2021-04-25T08:45:39Z</time>
      </trkpt>
      <trkpt lat="43.68289" lon="5.20041">
        <ele>226.8</ele>
        <time>2021-04-25T08:45:44Z</time>
      </trkpt>
      <trkpt lat="43.68292" lon="5.20041">
        <ele>226.6</ele>
        <time>2021-04-25T08:45:45Z</time>
      </trkpt>
      <trkpt lat="43.68306" lon="5.20025">
        <ele>225.4</ele>
        <time>2021-04-25T08:45:51Z</time>
      </trkpt>
      <trkpt lat="43.68313" lon="5.20007">
        <ele>224.2</ele>
        <time>2021-04-25T08:45:55Z</time>
      </trkpt>
      <trkpt lat="43.68315" lon="5.20006">
        <ele>224</ele>
        <time>2021-04-25T08:45:56Z</time>
      </trkpt>
      <trkpt lat="43.68324" lon="5.20003">
        <ele>222.8</ele>
        <time>2021-04-25T08:46:00Z</time>
      </trkpt>
      <trkpt lat="43.68325" lon="5.20004">
        <ele>220.2</ele>
        <time>2021-04-25T08:46:15Z</time>
      </trkpt>
      <trkpt lat="43.68325" lon="5.20004">
        <ele>218.2</ele>
        <time>2021-04-25T08:46:28Z</time>
      </trkpt>
      <trkpt lat="43.68325" lon="5.20005">
        <ele>215.4</ele>
        <time>2021-04-25T08:46:46Z</time>
      </trkpt>
      <trkpt lat="43.68325" lon="5.20005">
        <ele>212.8</ele>
        <time>2021-04-25T08:47:13Z</time>
      </trkpt>
      <trkpt lat="43.68325" lon="5.20002">
        <ele>212</ele>
        <time>2021-04-25T08:47:23Z</time>
      </trkpt>
      <trkpt lat="43.68316" lon="5.19969">
        <ele>212</ele>
        <time>2021-04-25T08:47:30Z</time>
      </trkpt>
      <trkpt lat="43.68308" lon="5.19954">
        <ele>212</ele>
        <time>2021-04-25T08:47:34Z</time>
      </trkpt>
      <trkpt lat="43.68306" lon="5.19945">
        <ele>212</ele>
        <time>2021-04-25T08:47:38Z</time>
      </trkpt>
      <trkpt lat="43.6831" lon="5.19936">
        <ele>211.4</ele>
        <time>2021-04-25T08:47:48Z</time>
      </trkpt>
      <trkpt lat="43.68323" lon="5.19915">
        <ele>211</ele>
        <time>2021-04-25T08:47:54Z</time>
      </trkpt>
      <trkpt lat="43.68338" lon="5.19899">
        <ele>210.6</ele>
        <time>2021-04-25T08:47:59Z</time>
      </trkpt>
      <trkpt lat="43.68354" lon="5.19882">
        <ele>210</ele>
        <time>2021-04-25T08:48:04Z</time>
      </trkpt>
      <trkpt lat="43.68373" lon="5.19861">
        <ele>209.4</ele>
        <time>2021-04-25T08:48:09Z</time>
      </trkpt>
      <trkpt lat="43.68398" lon="5.19829">
        <ele>208.6</ele>
        <time>2021-04-25T08:48:16Z</time>
      </trkpt>
      <trkpt lat="43.68446" lon="5.19772">
        <ele>207</ele>
        <time>2021-04-25T08:48:27Z</time>
      </trkpt>
      <trkpt lat="43.68474" lon="5.19749">
        <ele>206</ele>
        <time>2021-04-25T08:48:32Z</time>
      </trkpt>
      <trkpt lat="43.68485" lon="5.19739">
        <ele>205.6</ele>
        <time>2021-04-25T08:48:34Z</time>
      </trkpt>
      <trkpt lat="43.68507" lon="5.19719">
        <ele>205</ele>
        <time>2021-04-25T08:48:38Z</time>
      </trkpt>
      <trkpt lat="43.68533" lon="5.19694">
        <ele>204.6</ele>
        <time>2021-04-25T08:48:43Z</time>
      </trkpt>
      <trkpt lat="43.68546" lon="5.19681">
        <ele>204.2</ele>
        <time>2021-04-25T08:48:46Z</time>
      </trkpt>
      <trkpt lat="43.68561" lon="5.19662">
        <ele>203.6</ele>
        <time>2021-04-25T08:48:50Z</time>
      </trkpt>
      <trkpt lat="43.68585" lon="5.19635">
        <ele>202.8</ele>
        <time>2021-04-25T08:48:56Z</time>
      </trkpt>
      <trkpt lat="43.68608" lon="5.19615">
        <ele>202.2</ele>
        <time>2021-04-25T08:49:01Z</time>
      </trkpt>
      <trkpt lat="43.68629" lon="5.19598">
        <ele>201.6</ele>
        <time>2021-04-25T08:49:05Z</time>
      </trkpt>
      <trkpt lat="43.68662" lon="5.19565">
        <ele>201</ele>
        <time>2021-04-25T08:49:11Z</time>
      </trkpt>
      <trkpt lat="43.68697" lon="5.19528">
        <ele>200.2</ele>
        <time>2021-04-25T08:49:18Z</time>
      </trkpt>
      <trkpt lat="43.68738" lon="5.19474">
        <ele>198.8</ele>
        <time>2021-04-25T08:49:27Z</time>
      </trkpt>
      <trkpt lat="43.68749" lon="5.19456">
        <ele>198.4</ele>
        <time>2021-04-25T08:49:30Z</time>
      </trkpt>
      <trkpt lat="43.68752" lon="5.19449">
        <ele>198.4</ele>
        <time>2021-04-25T08:49:31Z</time>
      </trkpt>
      <trkpt lat="43.68763" lon="5.1943">
        <ele>198</ele>
        <time>2021-04-25T08:49:34Z</time>
      </trkpt>
      <trkpt lat="43.6878" lon="5.19406">
        <ele>197.6</ele>
        <time>2021-04-25T08:49:38Z</time>
      </trkpt>
      <trkpt lat="43.68799" lon="5.19386">
        <ele>197.2</ele>
        <time>2021-04-25T08:49:42Z</time>
      </trkpt>
      <trkpt lat="43.68824" lon="5.1935">
        <ele>196.6</ele>
        <time>2021-04-25T08:49:48Z</time>
      </trkpt>
      <trkpt lat="43.68836" lon="5.19322">
        <ele>196.2</ele>
        <time>2021-04-25T08:49:52Z</time>
      </trkpt>
      <trkpt lat="43.68847" lon="5.19284">
        <ele>195.8</ele>
        <time>2021-04-25T08:49:57Z</time>
      </trkpt>
      <trkpt lat="43.68856" lon="5.19255">
        <ele>195.6</ele>
        <time>2021-04-25T08:50:01Z</time>
      </trkpt>
      <trkpt lat="43.6886" lon="5.19241">
        <ele>195.6</ele>
        <time>2021-04-25T08:50:03Z</time>
      </trkpt>
      <trkpt lat="43.68866" lon="5.1921">
        <ele>195.6</ele>
        <time>2021-04-25T08:50:07Z</time>
      </trkpt>
      <trkpt lat="43.68871" lon="5.19185">
        <ele>195.4</ele>
        <time>2021-04-25T08:50:11Z</time>
      </trkpt>
      <trkpt lat="43.68883" lon="5.19132">
        <ele>195</ele>
        <time>2021-04-25T08:50:21Z</time>
      </trkpt>
      <trkpt lat="43.68891" lon="5.19087">
        <ele>195</ele>
        <time>2021-04-25T08:50:29Z</time>
      </trkpt>
      <trkpt lat="43.68898" lon="5.19059">
        <ele>195</ele>
        <time>2021-04-25T08:50:34Z</time>
      </trkpt>
      <trkpt lat="43.68916" lon="5.18983">
        <ele>195.2</ele>
        <time>2021-04-25T08:50:48Z</time>
      </trkpt>
      <trkpt lat="43.68922" lon="5.18952">
        <ele>195.4</ele>
        <time>2021-04-25T08:50:54Z</time>
      </trkpt>
      <trkpt lat="43.68929" lon="5.18941">
        <ele>195.4</ele>
        <time>2021-04-25T08:50:57Z</time>
      </trkpt>
      <trkpt lat="43.68938" lon="5.18931">
        <ele>195.2</ele>
        <time>2021-04-25T08:51:01Z</time>
      </trkpt>
      <trkpt lat="43.68935" lon="5.18918">
        <ele>195</ele>
        <time>2021-04-25T08:51:04Z</time>
      </trkpt>
      <trkpt lat="43.68929" lon="5.189">
        <ele>195</ele>
        <time>2021-04-25T08:51:08Z</time>
      </trkpt>
      <trkpt lat="43.68925" lon="5.18877">
        <ele>195.2</ele>
        <time>2021-04-25T08:51:12Z</time>
      </trkpt>
      <trkpt lat="43.68924" lon="5.18853">
        <ele>195.6</ele>
        <time>2021-04-25T08:51:16Z</time>
      </trkpt>
      <trkpt lat="43.68931" lon="5.18833">
        <ele>195.6</ele>
        <time>2021-04-25T08:51:20Z</time>
      </trkpt>
      <trkpt lat="43.68947" lon="5.18782">
        <ele>196</ele>
        <time>2021-04-25T08:51:30Z</time>
      </trkpt>
      <trkpt lat="43.68972" lon="5.18741">
        <ele>196.4</ele>
        <time>2021-04-25T08:51:41Z</time>
      </trkpt>
      <trkpt lat="43.68981" lon="5.18729">
        <ele>197</ele>
        <time>2021-04-25T08:51:45Z</time>
      </trkpt>
      <trkpt lat="43.68987" lon="5.187">
        <ele>198.4</ele>
        <time>2021-04-25T08:51:53Z</time>
      </trkpt>
      <trkpt lat="43.68981" lon="5.18677">
        <ele>199.8</ele>
        <time>2021-04-25T08:52:00Z</time>
      </trkpt>
      <trkpt lat="43.68975" lon="5.18648">
        <ele>201</ele>
        <time>2021-04-25T08:52:08Z</time>
      </trkpt>
      <trkpt lat="43.68961" lon="5.18614">
        <ele>202.8</ele>
        <time>2021-04-25T08:52:19Z</time>
      </trkpt>
      <trkpt lat="43.68955" lon="5.18577">
        <ele>204.6</ele>
        <time>2021-04-25T08:52:30Z</time>
      </trkpt>
      <trkpt lat="43.68954" lon="5.1857">
        <ele>205</ele>
        <time>2021-04-25T08:52:32Z</time>
      </trkpt>
      <trkpt lat="43.68941" lon="5.18523">
        <ele>207.6</ele>
        <time>2021-04-25T08:52:46Z</time>
      </trkpt>
      <trkpt lat="43.6893" lon="5.18486">
        <ele>209.6</ele>
        <time>2021-04-25T08:52:57Z</time>
      </trkpt>
      <trkpt lat="43.68923" lon="5.18464">
        <ele>210.8</ele>
        <time>2021-04-25T08:53:04Z</time>
      </trkpt>
      <trkpt lat="43.6891" lon="5.18404">
        <ele>213.8</ele>
        <time>2021-04-25T08:53:20Z</time>
      </trkpt>
      <trkpt lat="43.68915" lon="5.1834">
        <ele>216.4</ele>
        <time>2021-04-25T08:53:35Z</time>
      </trkpt>
      <trkpt lat="43.68922" lon="5.18317">
        <ele>217.4</ele>
        <time>2021-04-25T08:53:41Z</time>
      </trkpt>
      <trkpt lat="43.6894" lon="5.18285">
        <ele>219.8</ele>
        <time>2021-04-25T08:53:53Z</time>
      </trkpt>
      <trkpt lat="43.68955" lon="5.18259">
        <ele>221.4</ele>
        <time>2021-04-25T08:54:04Z</time>
      </trkpt>
      <trkpt lat="43.68968" lon="5.18243">
        <ele>222.8</ele>
        <time>2021-04-25T08:54:11Z</time>
      </trkpt>
      <trkpt lat="43.6898" lon="5.18232">
        <ele>224.2</ele>
        <time>2021-04-25T08:54:18Z</time>
      </trkpt>
      <trkpt lat="43.68987" lon="5.18213">
        <ele>225.4</ele>
        <time>2021-04-25T08:54:25Z</time>
      </trkpt>
      <trkpt lat="43.6899" lon="5.18188">
        <ele>226.6</ele>
        <time>2021-04-25T08:54:31Z</time>
      </trkpt>
      <trkpt lat="43.69" lon="5.18147">
        <ele>228.2</ele>
        <time>2021-04-25T08:54:42Z</time>
      </trkpt>
      <trkpt lat="43.69007" lon="5.18115">
        <ele>229.6</ele>
        <time>2021-04-25T08:54:51Z</time>
      </trkpt>
      <trkpt lat="43.69012" lon="5.18109">
        <ele>230.2</ele>
        <time>2021-04-25T08:54:54Z</time>
      </trkpt>
      <trkpt lat="43.69041" lon="5.18085">
        <ele>232.6</ele>
        <time>2021-04-25T08:55:07Z</time>
      </trkpt>
      <trkpt lat="43.69055" lon="5.18079">
        <ele>233.8</ele>
        <time>2021-04-25T08:55:13Z</time>
      </trkpt>
      <trkpt lat="43.69054" lon="5.18073">
        <ele>234.2</ele>
        <time>2021-04-25T08:55:15Z</time>
      </trkpt>
      <trkpt lat="43.69055" lon="5.18051">
        <ele>236</ele>
        <time>2021-04-25T08:55:23Z</time>
      </trkpt>
      <trkpt lat="43.6906" lon="5.18043">
        <ele>237.4</ele>
        <time>2021-04-25T08:55:28Z</time>
      </trkpt>
      <trkpt lat="43.69061" lon="5.18037">
        <ele>238</ele>
        <time>2021-04-25T08:55:31Z</time>
      </trkpt>
      <trkpt lat="43.6907" lon="5.1801">
        <ele>240.8</ele>
        <time>2021-04-25T08:55:43Z</time>
      </trkpt>
      <trkpt lat="43.69075" lon="5.17998">
        <ele>242.2</ele>
        <time>2021-04-25T08:55:48Z</time>
      </trkpt>
      <trkpt lat="43.69075" lon="5.17979">
        <ele>243.4</ele>
        <time>2021-04-25T08:55:54Z</time>
      </trkpt>
      <trkpt lat="43.69077" lon="5.17965">
        <ele>244.4</ele>
        <time>2021-04-25T08:55:59Z</time>
      </trkpt>
      <trkpt lat="43.69074" lon="5.1793">
        <ele>246.4</ele>
        <time>2021-04-25T08:56:09Z</time>
      </trkpt>
      <trkpt lat="43.69079" lon="5.17914">
        <ele>247.2</ele>
        <time>2021-04-25T08:56:14Z</time>
      </trkpt>
      <trkpt lat="43.69079" lon="5.17904">
        <ele>247.6</ele>
        <time>2021-04-25T08:56:17Z</time>
      </trkpt>
      <trkpt lat="43.69086" lon="5.17874">
        <ele>248.8</ele>
        <time>2021-04-25T08:56:25Z</time>
      </trkpt>
      <trkpt lat="43.69091" lon="5.17867">
        <ele>249.4</ele>
        <time>2021-04-25T08:56:28Z</time>
      </trkpt>
      <trkpt lat="43.69094" lon="5.1785">
        <ele>249.8</ele>
        <time>2021-04-25T08:56:32Z</time>
      </trkpt>
      <trkpt lat="43.69099" lon="5.17834">
        <ele>250.4</ele>
        <time>2021-04-25T08:56:35Z</time>
      </trkpt>
      <trkpt lat="43.69102" lon="5.1782">
        <ele>250.8</ele>
        <time>2021-04-25T08:56:38Z</time>
      </trkpt>
      <trkpt lat="43.69111" lon="5.17796">
        <ele>251.4</ele>
        <time>2021-04-25T08:56:43Z</time>
      </trkpt>
      <trkpt lat="43.69117" lon="5.17785">
        <ele>252</ele>
        <time>2021-04-25T08:56:46Z</time>
      </trkpt>
      <trkpt lat="43.69118" lon="5.17771">
        <ele>252.2</ele>
        <time>2021-04-25T08:56:49Z</time>
      </trkpt>
      <trkpt lat="43.69118" lon="5.17751">
        <ele>252.6</ele>
        <time>2021-04-25T08:56:52Z</time>
      </trkpt>
      <trkpt lat="43.6912" lon="5.17723">
        <ele>253</ele>
        <time>2021-04-25T08:56:56Z</time>
      </trkpt>
      <trkpt lat="43.69128" lon="5.17697">
        <ele>253.4</ele>
        <time>2021-04-25T08:57:00Z</time>
      </trkpt>
      <trkpt lat="43.69133" lon="5.17686">
        <ele>253.6</ele>
        <time>2021-04-25T08:57:02Z</time>
      </trkpt>
      <trkpt lat="43.69149" lon="5.1763">
        <ele>254.4</ele>
        <time>2021-04-25T08:57:10Z</time>
      </trkpt>
      <trkpt lat="43.69149" lon="5.17614">
        <ele>254.6</ele>
        <time>2021-04-25T08:57:13Z</time>
      </trkpt>
      <trkpt lat="43.69141" lon="5.17601">
        <ele>255</ele>
        <time>2021-04-25T08:57:17Z</time>
      </trkpt>
      <trkpt lat="43.69145" lon="5.17596">
        <ele>255.4</ele>
        <time>2021-04-25T08:57:20Z</time>
      </trkpt>
      <trkpt lat="43.69162" lon="5.1761">
        <ele>256.4</ele>
        <time>2021-04-25T08:57:27Z</time>
      </trkpt>
      <trkpt lat="43.69162" lon="5.17613">
        <ele>256.4</ele>
        <time>2021-04-25T08:57:28Z</time>
      </trkpt>
      <trkpt lat="43.69161" lon="5.17655">
        <ele>257.8</ele>
        <time>2021-04-25T08:57:36Z</time>
      </trkpt>
      <trkpt lat="43.69157" lon="5.17684">
        <ele>258.6</ele>
        <time>2021-04-25T08:57:41Z</time>
      </trkpt>
      <trkpt lat="43.69165" lon="5.17692">
        <ele>259.2</ele>
        <time>2021-04-25T08:57:44Z</time>
      </trkpt>
      <trkpt lat="43.69168" lon="5.17703">
        <ele>259.8</ele>
        <time>2021-04-25T08:57:47Z</time>
      </trkpt>
      <trkpt lat="43.6917" lon="5.17709">
        <ele>260.8</ele>
        <time>2021-04-25T08:57:51Z</time>
      </trkpt>
      <trkpt lat="43.69173" lon="5.17706">
        <ele>261.4</ele>
        <time>2021-04-25T08:57:53Z</time>
      </trkpt>
      <trkpt lat="43.69181" lon="5.17694">
        <ele>263</ele>
        <time>2021-04-25T08:57:59Z</time>
      </trkpt>
      <trkpt lat="43.69188" lon="5.17684">
        <ele>264.4</ele>
        <time>2021-04-25T08:58:04Z</time>
      </trkpt>
      <trkpt lat="43.6919" lon="5.17678">
        <ele>264.8</ele>
        <time>2021-04-25T08:58:06Z</time>
      </trkpt>
      <trkpt lat="43.69191" lon="5.17672">
        <ele>265.4</ele>
        <time>2021-04-25T08:58:08Z</time>
      </trkpt>
      <trkpt lat="43.69195" lon="5.17664">
        <ele>266.2</ele>
        <time>2021-04-25T08:58:11Z</time>
      </trkpt>
      <trkpt lat="43.692" lon="5.17655">
        <ele>267</ele>
        <time>2021-04-25T08:58:14Z</time>
      </trkpt>
      <trkpt lat="43.69202" lon="5.17643">
        <ele>267.8</ele>
        <time>2021-04-25T08:58:17Z</time>
      </trkpt>
      <trkpt lat="43.69224" lon="5.17613">
        <ele>269.2</ele>
        <time>2021-04-25T08:58:24Z</time>
      </trkpt>
      <trkpt lat="43.69225" lon="5.17609">
        <ele>269.4</ele>
        <time>2021-04-25T08:58:25Z</time>
      </trkpt>
      <trkpt lat="43.69231" lon="5.17595">
        <ele>270</ele>
        <time>2021-04-25T08:58:29Z</time>
      </trkpt>
      <trkpt lat="43.69249" lon="5.17585">
        <ele>270.8</ele>
        <time>2021-04-25T08:58:34Z</time>
      </trkpt>
      <trkpt lat="43.69257" lon="5.17585">
        <ele>271.2</ele>
        <time>2021-04-25T08:58:36Z</time>
      </trkpt>
      <trkpt lat="43.69297" lon="5.17582">
        <ele>273</ele>
        <time>2021-04-25T08:58:46Z</time>
      </trkpt>
      <trkpt lat="43.69316" lon="5.17566">
        <ele>274.2</ele>
        <time>2021-04-25T08:58:51Z</time>
      </trkpt>
      <trkpt lat="43.69332" lon="5.17549">
        <ele>275.4</ele>
        <time>2021-04-25T08:58:57Z</time>
      </trkpt>
      <trkpt lat="43.69342" lon="5.17528">
        <ele>277.8</ele>
        <time>2021-04-25T08:59:08Z</time>
      </trkpt>
      <trkpt lat="43.69347" lon="5.17515">
        <ele>278.8</ele>
        <time>2021-04-25T08:59:14Z</time>
      </trkpt>
      <trkpt lat="43.69346" lon="5.175">
        <ele>280.4</ele>
        <time>2021-04-25T08:59:20Z</time>
      </trkpt>
      <trkpt lat="43.69328" lon="5.17452">
        <ele>284.4</ele>
        <time>2021-04-25T08:59:35Z</time>
      </trkpt>
      <trkpt lat="43.69305" lon="5.17423">
        <ele>287.6</ele>
        <time>2021-04-25T08:59:47Z</time>
      </trkpt>
      <trkpt lat="43.69294" lon="5.17409">
        <ele>289.2</ele>
        <time>2021-04-25T08:59:53Z</time>
      </trkpt>
      <trkpt lat="43.69273" lon="5.17375">
        <ele>293.2</ele>
        <time>2021-04-25T09:00:07Z</time>
      </trkpt>
      <trkpt lat="43.69264" lon="5.17344">
        <ele>296</ele>
        <time>2021-04-25T09:00:17Z</time>
      </trkpt>
      <trkpt lat="43.69253" lon="5.17324">
        <ele>297.6</ele>
        <time>2021-04-25T09:00:23Z</time>
      </trkpt>
      <trkpt lat="43.69246" lon="5.17294">
        <ele>299.2</ele>
        <time>2021-04-25T09:00:30Z</time>
      </trkpt>
      <trkpt lat="43.69233" lon="5.17241">
        <ele>302.2</ele>
        <time>2021-04-25T09:00:42Z</time>
      </trkpt>
      <trkpt lat="43.6922" lon="5.17208">
        <ele>303.8</ele>
        <time>2021-04-25T09:00:50Z</time>
      </trkpt>
      <trkpt lat="43.6922" lon="5.17203">
        <ele>304</ele>
        <time>2021-04-25T09:00:51Z</time>
      </trkpt>
      <trkpt lat="43.69214" lon="5.17157">
        <ele>305.4</ele>
        <time>2021-04-25T09:01:01Z</time>
      </trkpt>
      <trkpt lat="43.69215" lon="5.17133">
        <ele>306.2</ele>
        <time>2021-04-25T09:01:06Z</time>
      </trkpt>
      <trkpt lat="43.69214" lon="5.17115">
        <ele>306.6</ele>
        <time>2021-04-25T09:01:09Z</time>
      </trkpt>
      <trkpt lat="43.69208" lon="5.17072">
        <ele>307.4</ele>
        <time>2021-04-25T09:01:15Z</time>
      </trkpt>
      <trkpt lat="43.69204" lon="5.17043">
        <ele>307.8</ele>
        <time>2021-04-25T09:01:19Z</time>
      </trkpt>
      <trkpt lat="43.69207" lon="5.17029">
        <ele>307.8</ele>
        <time>2021-04-25T09:01:21Z</time>
      </trkpt>
      <trkpt lat="43.69218" lon="5.17007">
        <ele>308</ele>
        <time>2021-04-25T09:01:25Z</time>
      </trkpt>
      <trkpt lat="43.69231" lon="5.16989">
        <ele>308.4</ele>
        <time>2021-04-25T09:01:29Z</time>
      </trkpt>
      <trkpt lat="43.69238" lon="5.16981">
        <ele>308.6</ele>
        <time>2021-04-25T09:01:31Z</time>
      </trkpt>
      <trkpt lat="43.69259" lon="5.1696">
        <ele>309.4</ele>
        <time>2021-04-25T09:01:40Z</time>
      </trkpt>
      <trkpt lat="43.69264" lon="5.1695">
        <ele>309.8</ele>
        <time>2021-04-25T09:01:45Z</time>
      </trkpt>
      <trkpt lat="43.69265" lon="5.16947">
        <ele>310</ele>
        <time>2021-04-25T09:01:46Z</time>
      </trkpt>
      <trkpt lat="43.69279" lon="5.16924">
        <ele>310.4</ele>
        <time>2021-04-25T09:01:54Z</time>
      </trkpt>
      <trkpt lat="43.69297" lon="5.16894">
        <ele>311.2</ele>
        <time>2021-04-25T09:02:05Z</time>
      </trkpt>
      <trkpt lat="43.69303" lon="5.16891">
        <ele>311.6</ele>
        <time>2021-04-25T09:02:08Z</time>
      </trkpt>
      <trkpt lat="43.69309" lon="5.16879">
        <ele>312</ele>
        <time>2021-04-25T09:02:13Z</time>
      </trkpt>
      <trkpt lat="43.69324" lon="5.16855">
        <ele>313</ele>
        <time>2021-04-25T09:02:21Z</time>
      </trkpt>
      <trkpt lat="43.6933" lon="5.16831">
        <ele>314.2</ele>
        <time>2021-04-25T09:02:27Z</time>
      </trkpt>
      <trkpt lat="43.69333" lon="5.16792">
        <ele>315.4</ele>
        <time>2021-04-25T09:02:37Z</time>
      </trkpt>
      <trkpt lat="43.69331" lon="5.16762">
        <ele>317.8</ele>
        <time>2021-04-25T09:02:48Z</time>
      </trkpt>
      <trkpt lat="43.69332" lon="5.1676">
        <ele>318</ele>
        <time>2021-04-25T09:02:49Z</time>
      </trkpt>
      <trkpt lat="43.69336" lon="5.16749">
        <ele>318.8</ele>
        <time>2021-04-25T09:02:54Z</time>
      </trkpt>
      <trkpt lat="43.69336" lon="5.16738">
        <ele>319.4</ele>
        <time>2021-04-25T09:02:57Z</time>
      </trkpt>
      <trkpt lat="43.69337" lon="5.16736">
        <ele>319.6</ele>
        <time>2021-04-25T09:02:58Z</time>
      </trkpt>
      <trkpt lat="43.6935" lon="5.16709">
        <ele>322</ele>
        <time>2021-04-25T09:03:09Z</time>
      </trkpt>
      <trkpt lat="43.69348" lon="5.16696">
        <ele>323</ele>
        <time>2021-04-25T09:03:14Z</time>
      </trkpt>
      <trkpt lat="43.69346" lon="5.16682">
        <ele>324.4</ele>
        <time>2021-04-25T09:03:20Z</time>
      </trkpt>
      <trkpt lat="43.69346" lon="5.16669">
        <ele>325.6</ele>
        <time>2021-04-25T09:03:25Z</time>
      </trkpt>
      <trkpt lat="43.69342" lon="5.16646">
        <ele>328.6</ele>
        <time>2021-04-25T09:03:35Z</time>
      </trkpt>
      <trkpt lat="43.69337" lon="5.16634">
        <ele>329.6</ele>
        <time>2021-04-25T09:03:39Z</time>
      </trkpt>
      <trkpt lat="43.69334" lon="5.16618">
        <ele>331.4</ele>
        <time>2021-04-25T09:03:45Z</time>
      </trkpt>
      <trkpt lat="43.69326" lon="5.16609">
        <ele>334</ele>
        <time>2021-04-25T09:03:55Z</time>
      </trkpt>
      <trkpt lat="43.69326" lon="5.16609">
        <ele>336.8</ele>
        <time>2021-04-25T09:04:08Z</time>
      </trkpt>
      <trkpt lat="43.69325" lon="5.1661">
        <ele>341.2</ele>
        <time>2021-04-25T09:04:34Z</time>
      </trkpt>
      <trkpt lat="43.69294" lon="5.16625">
        <ele>342.6</ele>
        <time>2021-04-25T09:04:47Z</time>
      </trkpt>
      <trkpt lat="43.69276" lon="5.16635">
        <ele>342.6</ele>
        <time>2021-04-25T09:04:52Z</time>
      </trkpt>
      <trkpt lat="43.69249" lon="5.16645">
        <ele>343</ele>
        <time>2021-04-25T09:04:59Z</time>
      </trkpt>
      <trkpt lat="43.69221" lon="5.16637">
        <ele>343.6</ele>
        <time>2021-04-25T09:05:08Z</time>
      </trkpt>
      <trkpt lat="43.69209" lon="5.16631">
        <ele>344</ele>
        <time>2021-04-25T09:05:12Z</time>
      </trkpt>
      <trkpt lat="43.69175" lon="5.16627">
        <ele>345.2</ele>
        <time>2021-04-25T09:05:23Z</time>
      </trkpt>
      <trkpt lat="43.69163" lon="5.16633">
        <ele>345.4</ele>
        <time>2021-04-25T09:05:27Z</time>
      </trkpt>
      <trkpt lat="43.69151" lon="5.1665">
        <ele>345.6</ele>
        <time>2021-04-25T09:05:32Z</time>
      </trkpt>
      <trkpt lat="43.69124" lon="5.16697">
        <ele>346</ele>
        <time>2021-04-25T09:05:43Z</time>
      </trkpt>
      <trkpt lat="43.69101" lon="5.16732">
        <ele>346.8</ele>
        <time>2021-04-25T09:05:52Z</time>
      </trkpt>
      <trkpt lat="43.69098" lon="5.16733">
        <ele>347</ele>
        <time>2021-04-25T09:05:53Z</time>
      </trkpt>
      <trkpt lat="43.6907" lon="5.1675">
        <ele>348</ele>
        <time>2021-04-25T09:06:03Z</time>
      </trkpt>
      <trkpt lat="43.69043" lon="5.16778">
        <ele>348.8</ele>
        <time>2021-04-25T09:06:13Z</time>
      </trkpt>
      <trkpt lat="43.69028" lon="5.16796">
        <ele>349.4</ele>
        <time>2021-04-25T09:06:19Z</time>
      </trkpt>
      <trkpt lat="43.69026" lon="5.16795">
        <ele>349.8</ele>
        <time>2021-04-25T09:06:21Z</time>
      </trkpt>
      <trkpt lat="43.69032" lon="5.16784">
        <ele>350.8</ele>
        <time>2021-04-25T09:06:26Z</time>
      </trkpt>
      <trkpt lat="43.6904" lon="5.16749">
        <ele>353.4</ele>
        <time>2021-04-25T09:06:38Z</time>
      </trkpt>
      <trkpt lat="43.69046" lon="5.1673">
        <ele>354.6</ele>
        <time>2021-04-25T09:06:44Z</time>
      </trkpt>
      <trkpt lat="43.69073" lon="5.16704">
        <ele>358.2</ele>
        <time>2021-04-25T09:06:57Z</time>
      </trkpt>
      <trkpt lat="43.69078" lon="5.16661">
        <ele>362.2</ele>
        <time>2021-04-25T09:07:11Z</time>
      </trkpt>
      <trkpt lat="43.69067" lon="5.16636">
        <ele>363.8</ele>
        <time>2021-04-25T09:07:17Z</time>
      </trkpt>
      <trkpt lat="43.69055" lon="5.16572">
        <ele>366.8</ele>
        <time>2021-04-25T09:07:30Z</time>
      </trkpt>
      <trkpt lat="43.69058" lon="5.16524">
        <ele>369.2</ele>
        <time>2021-04-25T09:07:41Z</time>
      </trkpt>
      <trkpt lat="43.6906" lon="5.16499">
        <ele>370.4</ele>
        <time>2021-04-25T09:07:47Z</time>
      </trkpt>
      <trkpt lat="43.69066" lon="5.16467">
        <ele>372</ele>
        <time>2021-04-25T09:07:54Z</time>
      </trkpt>
      <trkpt lat="43.69083" lon="5.16439">
        <ele>373.4</ele>
        <time>2021-04-25T09:08:01Z</time>
      </trkpt>
      <trkpt lat="43.69086" lon="5.16437">
        <ele>373.4</ele>
        <time>2021-04-25T09:08:02Z</time>
      </trkpt>
      <trkpt lat="43.69093" lon="5.1644">
        <ele>373.8</ele>
        <time>2021-04-25T09:08:04Z</time>
      </trkpt>
      <trkpt lat="43.69108" lon="5.1642">
        <ele>375</ele>
        <time>2021-04-25T09:08:11Z</time>
      </trkpt>
      <trkpt lat="43.69118" lon="5.16405">
        <ele>376</ele>
        <time>2021-04-25T09:08:16Z</time>
      </trkpt>
      <trkpt lat="43.69124" lon="5.16396">
        <ele>376.4</ele>
        <time>2021-04-25T09:08:19Z</time>
      </trkpt>
      <trkpt lat="43.69133" lon="5.16384">
        <ele>377</ele>
        <time>2021-04-25T09:08:23Z</time>
      </trkpt>
      <trkpt lat="43.69135" lon="5.16382">
        <ele>377.2</ele>
        <time>2021-04-25T09:08:24Z</time>
      </trkpt>
      <trkpt lat="43.69157" lon="5.16362">
        <ele>378.6</ele>
        <time>2021-04-25T09:08:34Z</time>
      </trkpt>
      <trkpt lat="43.69177" lon="5.16365">
        <ele>380</ele>
        <time>2021-04-25T09:08:44Z</time>
      </trkpt>
      <trkpt lat="43.69188" lon="5.16363">
        <ele>380.4</ele>
        <time>2021-04-25T09:08:48Z</time>
      </trkpt>
      <trkpt lat="43.69215" lon="5.16339">
        <ele>381</ele>
        <time>2021-04-25T09:08:56Z</time>
      </trkpt>
      <trkpt lat="43.69218" lon="5.16322">
        <ele>381.2</ele>
        <time>2021-04-25T09:08:58Z</time>
      </trkpt>
      <trkpt lat="43.69217" lon="5.16302">
        <ele>381.2</ele>
        <time>2021-04-25T09:09:00Z</time>
      </trkpt>
      <trkpt lat="43.69207" lon="5.1627">
        <ele>381.2</ele>
        <time>2021-04-25T09:09:03Z</time>
      </trkpt>
      <trkpt lat="43.69204" lon="5.16234">
        <ele>381.4</ele>
        <time>2021-04-25T09:09:06Z</time>
      </trkpt>
      <trkpt lat="43.69208" lon="5.16211">
        <ele>381.2</ele>
        <time>2021-04-25T09:09:08Z</time>
      </trkpt>
      <trkpt lat="43.69225" lon="5.16176">
        <ele>381</ele>
        <time>2021-04-25T09:09:12Z</time>
      </trkpt>
      <trkpt lat="43.69237" lon="5.16153">
        <ele>381.6</ele>
        <time>2021-04-25T09:09:15Z</time>
      </trkpt>
      <trkpt lat="43.69238" lon="5.16137">
        <ele>381</ele>
        <time>2021-04-25T09:09:17Z</time>
      </trkpt>
      <trkpt lat="43.69225" lon="5.16113">
        <ele>380.6</ele>
        <time>2021-04-25T09:09:21Z</time>
      </trkpt>
      <trkpt lat="43.69203" lon="5.1609">
        <ele>380.6</ele>
        <time>2021-04-25T09:09:26Z</time>
      </trkpt>
      <trkpt lat="43.69199" lon="5.16076">
        <ele>380.4</ele>
        <time>2021-04-25T09:09:28Z</time>
      </trkpt>
      <trkpt lat="43.69197" lon="5.16061">
        <ele>380.4</ele>
        <time>2021-04-25T09:09:30Z</time>
      </trkpt>
      <trkpt lat="43.69185" lon="5.16045">
        <ele>380.2</ele>
        <time>2021-04-25T09:09:33Z</time>
      </trkpt>
      <trkpt lat="43.69169" lon="5.16032">
        <ele>379.8</ele>
        <time>2021-04-25T09:09:36Z</time>
      </trkpt>
      <trkpt lat="43.69154" lon="5.16025">
        <ele>379.6</ele>
        <time>2021-04-25T09:09:39Z</time>
      </trkpt>
      <trkpt lat="43.69151" lon="5.16023">
        <ele>378.8</ele>
        <time>2021-04-25T09:09:56Z</time>
      </trkpt>
      <trkpt lat="43.69151" lon="5.16023">
        <ele>378.2</ele>
        <time>2021-04-25T09:10:12Z</time>
      </trkpt>
      <trkpt lat="43.69151" lon="5.1602">
        <ele>377.6</ele>
        <time>2021-04-25T09:10:27Z</time>
      </trkpt>
      <trkpt lat="43.69156" lon="5.15988">
        <ele>377.2</ele>
        <time>2021-04-25T09:10:37Z</time>
      </trkpt>
      <trkpt lat="43.69155" lon="5.15968">
        <ele>377</ele>
        <time>2021-04-25T09:10:43Z</time>
      </trkpt>
      <trkpt lat="43.69156" lon="5.15959">
        <ele>376.8</ele>
        <time>2021-04-25T09:10:48Z</time>
      </trkpt>
      <trkpt lat="43.69156" lon="5.15957">
        <ele>376.2</ele>
        <time>2021-04-25T09:11:02Z</time>
      </trkpt>
      <trkpt lat="43.69158" lon="5.15953">
        <ele>376.2</ele>
        <time>2021-04-25T09:11:08Z</time>
      </trkpt>
      <trkpt lat="43.6916" lon="5.15949">
        <ele>375.8</ele>
        <time>2021-04-25T09:11:13Z</time>
      </trkpt>
      <trkpt lat="43.6916" lon="5.15948">
        <ele>375.4</ele>
        <time>2021-04-25T09:11:39Z</time>
      </trkpt>
      <trkpt lat="43.6916" lon="5.15948">
        <ele>375</ele>
        <time>2021-04-25T09:12:05Z</time>
      </trkpt>
      <trkpt lat="43.6916" lon="5.15946">
        <ele>375</ele>
        <time>2021-04-25T09:12:07Z</time>
      </trkpt>
      <trkpt lat="43.69159" lon="5.15939">
        <ele>374.8</ele>
        <time>2021-04-25T09:12:11Z</time>
      </trkpt>
      <trkpt lat="43.69154" lon="5.1592">
        <ele>374.8</ele>
        <time>2021-04-25T09:12:16Z</time>
      </trkpt>
      <trkpt lat="43.69153" lon="5.15917">
        <ele>374.8</ele>
        <time>2021-04-25T09:12:17Z</time>
      </trkpt>
      <trkpt lat="43.6915" lon="5.15899">
        <ele>374</ele>
        <time>2021-04-25T09:12:25Z</time>
      </trkpt>
      <trkpt lat="43.69148" lon="5.15889">
        <ele>373.6</ele>
        <time>2021-04-25T09:12:28Z</time>
      </trkpt>
      <trkpt lat="43.69151" lon="5.15888">
        <ele>373</ele>
        <time>2021-04-25T09:12:30Z</time>
      </trkpt>
      <trkpt lat="43.69166" lon="5.15913">
        <ele>371.8</ele>
        <time>2021-04-25T09:12:36Z</time>
      </trkpt>
      <trkpt lat="43.69177" lon="5.1592">
        <ele>371</ele>
        <time>2021-04-25T09:12:39Z</time>
      </trkpt>
      <trkpt lat="43.69179" lon="5.1592">
        <ele>370.6</ele>
        <time>2021-04-25T09:12:40Z</time>
      </trkpt>
      <trkpt lat="43.69185" lon="5.15908">
        <ele>369.6</ele>
        <time>2021-04-25T09:12:43Z</time>
      </trkpt>
      <trkpt lat="43.69193" lon="5.15889">
        <ele>367.8</ele>
        <time>2021-04-25T09:12:48Z</time>
      </trkpt>
      <trkpt lat="43.69199" lon="5.15892">
        <ele>366.8</ele>
        <time>2021-04-25T09:12:51Z</time>
      </trkpt>
      <trkpt lat="43.69219" lon="5.15898">
        <ele>364.6</ele>
        <time>2021-04-25T09:12:56Z</time>
      </trkpt>
      <trkpt lat="43.69226" lon="5.15901">
        <ele>363.8</ele>
        <time>2021-04-25T09:12:58Z</time>
      </trkpt>
      <trkpt lat="43.69228" lon="5.15899">
        <ele>363.2</ele>
        <time>2021-04-25T09:12:59Z</time>
      </trkpt>
      <trkpt lat="43.69229" lon="5.15893">
        <ele>359.2</ele>
        <time>2021-04-25T09:13:14Z</time>
      </trkpt>
      <trkpt lat="43.69231" lon="5.15893">
        <ele>351</ele>
        <time>2021-04-25T09:13:44Z</time>
      </trkpt>
      <trkpt lat="43.69231" lon="5.15893">
        <ele>348</ele>
        <time>2021-04-25T09:14:00Z</time>
      </trkpt>
      <trkpt lat="43.69232" lon="5.15892">
        <ele>343.4</ele>
        <time>2021-04-25T09:14:33Z</time>
      </trkpt>
      <trkpt lat="43.69232" lon="5.15894">
        <ele>340.6</ele>
        <time>2021-04-25T09:14:54Z</time>
      </trkpt>
      <trkpt lat="43.69232" lon="5.15894">
        <ele>338.8</ele>
        <time>2021-04-25T09:15:13Z</time>
      </trkpt>
      <trkpt lat="43.69232" lon="5.15896">
        <ele>336.4</ele>
        <time>2021-04-25T09:15:47Z</time>
      </trkpt>
      <trkpt lat="43.69231" lon="5.15897">
        <ele>335.4</ele>
        <time>2021-04-25T09:16:06Z</time>
      </trkpt>
      <trkpt lat="43.69229" lon="5.15893">
        <ele>334.4</ele>
        <time>2021-04-25T09:16:14Z</time>
      </trkpt>
      <trkpt lat="43.69216" lon="5.15874">
        <ele>334.2</ele>
        <time>2021-04-25T09:16:22Z</time>
      </trkpt>
      <trkpt lat="43.69214" lon="5.15853">
        <ele>333.8</ele>
        <time>2021-04-25T09:16:27Z</time>
      </trkpt>
      <trkpt lat="43.69205" lon="5.15842">
        <ele>333.2</ele>
        <time>2021-04-25T09:16:31Z</time>
      </trkpt>
      <trkpt lat="43.69192" lon="5.15827">
        <ele>332.8</ele>
        <time>2021-04-25T09:16:36Z</time>
      </trkpt>
      <trkpt lat="43.69186" lon="5.15798">
        <ele>331.8</ele>
        <time>2021-04-25T09:16:41Z</time>
      </trkpt>
      <trkpt lat="43.69183" lon="5.15795">
        <ele>331.8</ele>
        <time>2021-04-25T09:16:42Z</time>
      </trkpt>
      <trkpt lat="43.69167" lon="5.15785">
        <ele>330.8</ele>
        <time>2021-04-25T09:16:46Z</time>
      </trkpt>
      <trkpt lat="43.69148" lon="5.15761">
        <ele>330.4</ele>
        <time>2021-04-25T09:16:51Z</time>
      </trkpt>
      <trkpt lat="43.69145" lon="5.15752">
        <ele>330.2</ele>
        <time>2021-04-25T09:16:53Z</time>
      </trkpt>
      <trkpt lat="43.69145" lon="5.15729">
        <ele>330</ele>
        <time>2021-04-25T09:16:56Z</time>
      </trkpt>
      <trkpt lat="43.69132" lon="5.15704">
        <ele>329.8</ele>
        <time>2021-04-25T09:16:59Z</time>
      </trkpt>
      <trkpt lat="43.69124" lon="5.15689">
        <ele>329.6</ele>
        <time>2021-04-25T09:17:01Z</time>
      </trkpt>
      <trkpt lat="43.69104" lon="5.15657">
        <ele>328.8</ele>
        <time>2021-04-25T09:17:05Z</time>
      </trkpt>
      <trkpt lat="43.69089" lon="5.1563">
        <ele>327.8</ele>
        <time>2021-04-25T09:17:09Z</time>
      </trkpt>
      <trkpt lat="43.69086" lon="5.15623">
        <ele>327.6</ele>
        <time>2021-04-25T09:17:10Z</time>
      </trkpt>
      <trkpt lat="43.69073" lon="5.15609">
        <ele>326.8</ele>
        <time>2021-04-25T09:17:13Z</time>
      </trkpt>
      <trkpt lat="43.69068" lon="5.15591">
        <ele>326</ele>
        <time>2021-04-25T09:17:16Z</time>
      </trkpt>
      <trkpt lat="43.69064" lon="5.15587">
        <ele>325.8</ele>
        <time>2021-04-25T09:17:17Z</time>
      </trkpt>
      <trkpt lat="43.69054" lon="5.15583">
        <ele>325.2</ele>
        <time>2021-04-25T09:17:19Z</time>
      </trkpt>
      <trkpt lat="43.69036" lon="5.15571">
        <ele>324</ele>
        <time>2021-04-25T09:17:23Z</time>
      </trkpt>
      <trkpt lat="43.69033" lon="5.15566">
        <ele>323.8</ele>
        <time>2021-04-25T09:17:24Z</time>
      </trkpt>
      <trkpt lat="43.69019" lon="5.15559">
        <ele>322.4</ele>
        <time>2021-04-25T09:17:27Z</time>
      </trkpt>
      <trkpt lat="43.68999" lon="5.1555">
        <ele>320.6</ele>
        <time>2021-04-25T09:17:31Z</time>
      </trkpt>
      <trkpt lat="43.68983" lon="5.15537">
        <ele>318.6</ele>
        <time>2021-04-25T09:17:35Z</time>
      </trkpt>
      <trkpt lat="43.68977" lon="5.15535">
        <ele>318.2</ele>
        <time>2021-04-25T09:17:36Z</time>
      </trkpt>
      <trkpt lat="43.6896" lon="5.15529">
        <ele>317.2</ele>
        <time>2021-04-25T09:17:39Z</time>
      </trkpt>
      <trkpt lat="43.68926" lon="5.15515">
        <ele>315.8</ele>
        <time>2021-04-25T09:17:44Z</time>
      </trkpt>
      <trkpt lat="43.68919" lon="5.15515">
        <ele>315.6</ele>
        <time>2021-04-25T09:17:45Z</time>
      </trkpt>
      <trkpt lat="43.68889" lon="5.15515">
        <ele>314</ele>
        <time>2021-04-25T09:17:50Z</time>
      </trkpt>
      <trkpt lat="43.68884" lon="5.15504">
        <ele>313</ele>
        <time>2021-04-25T09:17:53Z</time>
      </trkpt>
      <trkpt lat="43.68881" lon="5.15505">
        <ele>312.6</ele>
        <time>2021-04-25T09:17:54Z</time>
      </trkpt>
      <trkpt lat="43.68861" lon="5.15518">
        <ele>311.4</ele>
        <time>2021-04-25T09:17:59Z</time>
      </trkpt>
      <trkpt lat="43.68848" lon="5.15525">
        <ele>310.4</ele>
        <time>2021-04-25T09:18:02Z</time>
      </trkpt>
      <trkpt lat="43.68831" lon="5.15529">
        <ele>309.2</ele>
        <time>2021-04-25T09:18:06Z</time>
      </trkpt>
      <trkpt lat="43.68815" lon="5.15533">
        <ele>306.8</ele>
        <time>2021-04-25T09:18:14Z</time>
      </trkpt>
      <trkpt lat="43.68814" lon="5.15534">
        <ele>303.4</ele>
        <time>2021-04-25T09:18:31Z</time>
      </trkpt>
      <trkpt lat="43.68814" lon="5.15534">
        <ele>300.4</ele>
        <time>2021-04-25T09:18:49Z</time>
      </trkpt>
      <trkpt lat="43.68813" lon="5.15531">
        <ele>296.6</ele>
        <time>2021-04-25T09:19:21Z</time>
      </trkpt>
      <trkpt lat="43.68808" lon="5.15532">
        <ele>295.8</ele>
        <time>2021-04-25T09:19:35Z</time>
      </trkpt>
      <trkpt lat="43.68808" lon="5.15532">
        <ele>295</ele>
        <time>2021-04-25T09:19:47Z</time>
      </trkpt>
      <trkpt lat="43.68806" lon="5.15534">
        <ele>294.6</ele>
        <time>2021-04-25T09:20:00Z</time>
      </trkpt>
      <trkpt lat="43.68803" lon="5.1554">
        <ele>294.8</ele>
        <time>2021-04-25T09:20:03Z</time>
      </trkpt>
      <trkpt lat="43.68804" lon="5.15547">
        <ele>294.8</ele>
        <time>2021-04-25T09:20:06Z</time>
      </trkpt>
      <trkpt lat="43.68806" lon="5.1557">
        <ele>295.4</ele>
        <time>2021-04-25T09:20:14Z</time>
      </trkpt>
      <trkpt lat="43.68809" lon="5.15612">
        <ele>295</ele>
        <time>2021-04-25T09:20:25Z</time>
      </trkpt>
      <trkpt lat="43.68809" lon="5.15634">
        <ele>295.2</ele>
        <time>2021-04-25T09:20:31Z</time>
      </trkpt>
      <trkpt lat="43.68815" lon="5.15695">
        <ele>295.8</ele>
        <time>2021-04-25T09:20:45Z</time>
      </trkpt>
      <trkpt lat="43.68822" lon="5.15732">
        <ele>296.4</ele>
        <time>2021-04-25T09:20:55Z</time>
      </trkpt>
      <trkpt lat="43.68823" lon="5.15741">
        <ele>297.2</ele>
        <time>2021-04-25T09:21:00Z</time>
      </trkpt>
      <trkpt lat="43.68827" lon="5.15763">
        <ele>298.6</ele>
        <time>2021-04-25T09:21:08Z</time>
      </trkpt>
      <trkpt lat="43.68826" lon="5.15791">
        <ele>299.8</ele>
        <time>2021-04-25T09:21:16Z</time>
      </trkpt>
      <trkpt lat="43.68826" lon="5.15794">
        <ele>300</ele>
        <time>2021-04-25T09:21:17Z</time>
      </trkpt>
      <trkpt lat="43.68827" lon="5.15826">
        <ele>301.2</ele>
        <time>2021-04-25T09:21:27Z</time>
      </trkpt>
      <trkpt lat="43.68837" lon="5.1587">
        <ele>303.8</ele>
        <time>2021-04-25T09:21:40Z</time>
      </trkpt>
      <trkpt lat="43.68844" lon="5.15888">
        <ele>304.8</ele>
        <time>2021-04-25T09:21:45Z</time>
      </trkpt>
      <trkpt lat="43.68848" lon="5.15901">
        <ele>305.6</ele>
        <time>2021-04-25T09:21:49Z</time>
      </trkpt>
      <trkpt lat="43.68852" lon="5.15933">
        <ele>308</ele>
        <time>2021-04-25T09:21:59Z</time>
      </trkpt>
      <trkpt lat="43.68853" lon="5.1595">
        <ele>308.8</ele>
        <time>2021-04-25T09:22:04Z</time>
      </trkpt>
      <trkpt lat="43.68857" lon="5.1599">
        <ele>310.8</ele>
        <time>2021-04-25T09:22:15Z</time>
      </trkpt>
      <trkpt lat="43.6888" lon="5.16018">
        <ele>312.4</ele>
        <time>2021-04-25T09:22:26Z</time>
      </trkpt>
      <trkpt lat="43.68898" lon="5.16039">
        <ele>313.6</ele>
        <time>2021-04-25T09:22:34Z</time>
      </trkpt>
      <trkpt lat="43.68926" lon="5.16067">
        <ele>315</ele>
        <time>2021-04-25T09:22:46Z</time>
      </trkpt>
      <trkpt lat="43.6895" lon="5.16079">
        <ele>317.2</ele>
        <time>2021-04-25T09:22:58Z</time>
      </trkpt>
      <trkpt lat="43.68967" lon="5.16086">
        <ele>318.8</ele>
        <time>2021-04-25T09:23:06Z</time>
      </trkpt>
      <trkpt lat="43.68985" lon="5.16103">
        <ele>320.8</ele>
        <time>2021-04-25T09:23:16Z</time>
      </trkpt>
      <trkpt lat="43.6901" lon="5.16129">
        <ele>323.4</ele>
        <time>2021-04-25T09:23:30Z</time>
      </trkpt>
      <trkpt lat="43.69021" lon="5.16144">
        <ele>324.4</ele>
        <time>2021-04-25T09:23:36Z</time>
      </trkpt>
      <trkpt lat="43.69021" lon="5.16187">
        <ele>326.4</ele>
        <time>2021-04-25T09:23:47Z</time>
      </trkpt>
      <trkpt lat="43.6902" lon="5.16232">
        <ele>328.4</ele>
        <time>2021-04-25T09:23:58Z</time>
      </trkpt>
      <trkpt lat="43.6902" lon="5.16234">
        <ele>328.6</ele>
        <time>2021-04-25T09:23:59Z</time>
      </trkpt>
      <trkpt lat="43.69024" lon="5.16272">
        <ele>330.2</ele>
        <time>2021-04-25T09:24:08Z</time>
      </trkpt>
      <trkpt lat="43.69031" lon="5.16324">
        <ele>333.6</ele>
        <time>2021-04-25T09:24:22Z</time>
      </trkpt>
      <trkpt lat="43.6903" lon="5.16341">
        <ele>334.4</ele>
        <time>2021-04-25T09:24:27Z</time>
      </trkpt>
      <trkpt lat="43.69028" lon="5.16393">
        <ele>337</ele>
        <time>2021-04-25T09:24:41Z</time>
      </trkpt>
      <trkpt lat="43.69025" lon="5.16441">
        <ele>338.6</ele>
        <time>2021-04-25T09:24:53Z</time>
      </trkpt>
      <trkpt lat="43.69012" lon="5.16499">
        <ele>341</ele>
        <time>2021-04-25T09:25:08Z</time>
      </trkpt>
      <trkpt lat="43.6901" lon="5.16519">
        <ele>341.6</ele>
        <time>2021-04-25T09:25:13Z</time>
      </trkpt>
      <trkpt lat="43.69004" lon="5.16577">
        <ele>344</ele>
        <time>2021-04-25T09:25:25Z</time>
      </trkpt>
      <trkpt lat="43.68997" lon="5.16622">
        <ele>345.4</ele>
        <time>2021-04-25T09:25:35Z</time>
      </trkpt>
      <trkpt lat="43.68985" lon="5.16638">
        <ele>346</ele>
        <time>2021-04-25T09:25:40Z</time>
      </trkpt>
      <trkpt lat="43.68978" lon="5.16654">
        <ele>346.2</ele>
        <time>2021-04-25T09:25:43Z</time>
      </trkpt>
      <trkpt lat="43.68973" lon="5.16667">
        <ele>346.4</ele>
        <time>2021-04-25T09:25:45Z</time>
      </trkpt>
      <trkpt lat="43.68968" lon="5.16682">
        <ele>346.6</ele>
        <time>2021-04-25T09:25:48Z</time>
      </trkpt>
      <trkpt lat="43.68965" lon="5.167">
        <ele>347.2</ele>
        <time>2021-04-25T09:25:54Z</time>
      </trkpt>
      <trkpt lat="43.68958" lon="5.16715">
        <ele>347.8</ele>
        <time>2021-04-25T09:25:59Z</time>
      </trkpt>
      <trkpt lat="43.68958" lon="5.16718">
        <ele>347.8</ele>
        <time>2021-04-25T09:26:00Z</time>
      </trkpt>
      <trkpt lat="43.68958" lon="5.16764">
        <ele>349.4</ele>
        <time>2021-04-25T09:26:11Z</time>
      </trkpt>
      <trkpt lat="43.68959" lon="5.16808">
        <ele>351</ele>
        <time>2021-04-25T09:26:22Z</time>
      </trkpt>
      <trkpt lat="43.68968" lon="5.16824">
        <ele>351.6</ele>
        <time>2021-04-25T09:26:27Z</time>
      </trkpt>
      <trkpt lat="43.68982" lon="5.16834">
        <ele>352</ele>
        <time>2021-04-25T09:26:32Z</time>
      </trkpt>
      <trkpt lat="43.69005" lon="5.16826">
        <ele>352.8</ele>
        <time>2021-04-25T09:26:39Z</time>
      </trkpt>
      <trkpt lat="43.69016" lon="5.16818">
        <ele>353.4</ele>
        <time>2021-04-25T09:26:43Z</time>
      </trkpt>
      <trkpt lat="43.6904" lon="5.16787">
        <ele>354.8</ele>
        <time>2021-04-25T09:26:53Z</time>
      </trkpt>
      <trkpt lat="43.69064" lon="5.16763">
        <ele>355.6</ele>
        <time>2021-04-25T09:27:02Z</time>
      </trkpt>
      <trkpt lat="43.69078" lon="5.1675">
        <ele>356</ele>
        <time>2021-04-25T09:27:06Z</time>
      </trkpt>
      <trkpt lat="43.69089" lon="5.16742">
        <ele>356.2</ele>
        <time>2021-04-25T09:27:08Z</time>
      </trkpt>
      <trkpt lat="43.69127" lon="5.16706">
        <ele>356.8</ele>
        <time>2021-04-25T09:27:16Z</time>
      </trkpt>
      <trkpt lat="43.69149" lon="5.16669">
        <ele>357.2</ele>
        <time>2021-04-25T09:27:22Z</time>
      </trkpt>
      <trkpt lat="43.69163" lon="5.16641">
        <ele>357.4</ele>
        <time>2021-04-25T09:27:26Z</time>
      </trkpt>
      <trkpt lat="43.69175" lon="5.16621">
        <ele>357.4</ele>
        <time>2021-04-25T09:27:30Z</time>
      </trkpt>
      <trkpt lat="43.69179" lon="5.16615">
        <ele>357.4</ele>
        <time>2021-04-25T09:27:32Z</time>
      </trkpt>
      <trkpt lat="43.69189" lon="5.16608">
        <ele>357.6</ele>
        <time>2021-04-25T09:27:35Z</time>
      </trkpt>
      <trkpt lat="43.69243" lon="5.166">
        <ele>357.8</ele>
        <time>2021-04-25T09:27:44Z</time>
      </trkpt>
      <trkpt lat="43.69266" lon="5.16589">
        <ele>357.8</ele>
        <time>2021-04-25T09:27:49Z</time>
      </trkpt>
      <trkpt lat="43.69281" lon="5.16579">
        <ele>358.2</ele>
        <time>2021-04-25T09:27:57Z</time>
      </trkpt>
      <trkpt lat="43.69293" lon="5.16575">
        <ele>358.4</ele>
        <time>2021-04-25T09:28:01Z</time>
      </trkpt>
      <trkpt lat="43.69298" lon="5.16573">
        <ele>358.2</ele>
        <time>2021-04-25T09:28:02Z</time>
      </trkpt>
      <trkpt lat="43.69323" lon="5.16548">
        <ele>358</ele>
        <time>2021-04-25T09:28:07Z</time>
      </trkpt>
      <trkpt lat="43.6934" lon="5.1654">
        <ele>358.2</ele>
        <time>2021-04-25T09:28:10Z</time>
      </trkpt>
      <trkpt lat="43.69349" lon="5.16541">
        <ele>357.8</ele>
        <time>2021-04-25T09:28:12Z</time>
      </trkpt>
      <trkpt lat="43.69361" lon="5.16546">
        <ele>357.8</ele>
        <time>2021-04-25T09:28:15Z</time>
      </trkpt>
      <trkpt lat="43.69377" lon="5.16549">
        <ele>357.8</ele>
        <time>2021-04-25T09:28:19Z</time>
      </trkpt>
      <trkpt lat="43.69388" lon="5.16558">
        <ele>357.6</ele>
        <time>2021-04-25T09:28:22Z</time>
      </trkpt>
      <trkpt lat="43.69399" lon="5.16563">
        <ele>357.4</ele>
        <time>2021-04-25T09:28:25Z</time>
      </trkpt>
      <trkpt lat="43.69406" lon="5.16563">
        <ele>357.6</ele>
        <time>2021-04-25T09:28:27Z</time>
      </trkpt>
      <trkpt lat="43.69413" lon="5.16568">
        <ele>357.6</ele>
        <time>2021-04-25T09:28:29Z</time>
      </trkpt>
      <trkpt lat="43.69432" lon="5.16574">
        <ele>357.8</ele>
        <time>2021-04-25T09:28:33Z</time>
      </trkpt>
      <trkpt lat="43.69451" lon="5.16578">
        <ele>358</ele>
        <time>2021-04-25T09:28:38Z</time>
      </trkpt>
      <trkpt lat="43.69459" lon="5.1658">
        <ele>358</ele>
        <time>2021-04-25T09:28:41Z</time>
      </trkpt>
      <trkpt lat="43.69476" lon="5.16588">
        <ele>358</ele>
        <time>2021-04-25T09:28:49Z</time>
      </trkpt>
      <trkpt lat="43.69482" lon="5.16601">
        <ele>358.2</ele>
        <time>2021-04-25T09:28:58Z</time>
      </trkpt>
      <trkpt lat="43.69479" lon="5.16602">
        <ele>358.2</ele>
        <time>2021-04-25T09:28:59Z</time>
      </trkpt>
      <trkpt lat="43.69464" lon="5.16611">
        <ele>358.2</ele>
        <time>2021-04-25T09:29:03Z</time>
      </trkpt>
      <trkpt lat="43.69467" lon="5.16626">
        <ele>358.2</ele>
        <time>2021-04-25T09:29:06Z</time>
      </trkpt>
      <trkpt lat="43.6947" lon="5.16644">
        <ele>358.2</ele>
        <time>2021-04-25T09:29:09Z</time>
      </trkpt>
      <trkpt lat="43.69472" lon="5.16651">
        <ele>358.2</ele>
        <time>2021-04-25T09:29:10Z</time>
      </trkpt>
      <trkpt lat="43.69476" lon="5.16669">
        <ele>358.2</ele>
        <time>2021-04-25T09:29:13Z</time>
      </trkpt>
      <trkpt lat="43.69476" lon="5.16696">
        <ele>357.8</ele>
        <time>2021-04-25T09:29:21Z</time>
      </trkpt>
      <trkpt lat="43.69473" lon="5.16698">
        <ele>357.8</ele>
        <time>2021-04-25T09:29:22Z</time>
      </trkpt>
      <trkpt lat="43.69476" lon="5.1672">
        <ele>357.6</ele>
        <time>2021-04-25T09:29:27Z</time>
      </trkpt>
      <trkpt lat="43.69485" lon="5.16728">
        <ele>357.4</ele>
        <time>2021-04-25T09:29:31Z</time>
      </trkpt>
      <trkpt lat="43.69486" lon="5.16731">
        <ele>357.4</ele>
        <time>2021-04-25T09:29:32Z</time>
      </trkpt>
      <trkpt lat="43.69481" lon="5.16745">
        <ele>357.4</ele>
        <time>2021-04-25T09:29:37Z</time>
      </trkpt>
      <trkpt lat="43.69473" lon="5.16774">
        <ele>357.4</ele>
        <time>2021-04-25T09:29:42Z</time>
      </trkpt>
      <trkpt lat="43.69472" lon="5.16787">
        <ele>357.4</ele>
        <time>2021-04-25T09:29:44Z</time>
      </trkpt>
      <trkpt lat="43.69481" lon="5.16814">
        <ele>357.2</ele>
        <time>2021-04-25T09:29:49Z</time>
      </trkpt>
      <trkpt lat="43.69493" lon="5.16841">
        <ele>357</ele>
        <time>2021-04-25T09:29:56Z</time>
      </trkpt>
      <trkpt lat="43.69492" lon="5.16845">
        <ele>357</ele>
        <time>2021-04-25T09:29:57Z</time>
      </trkpt>
      <trkpt lat="43.69487" lon="5.16888">
        <ele>357</ele>
        <time>2021-04-25T09:30:05Z</time>
      </trkpt>
      <trkpt lat="43.6949" lon="5.16902">
        <ele>357</ele>
        <time>2021-04-25T09:30:08Z</time>
      </trkpt>
      <trkpt lat="43.69492" lon="5.16915">
        <ele>357</ele>
        <time>2021-04-25T09:30:12Z</time>
      </trkpt>
      <trkpt lat="43.69491" lon="5.16933">
        <ele>357.2</ele>
        <time>2021-04-25T09:30:17Z</time>
      </trkpt>
      <trkpt lat="43.69491" lon="5.16951">
        <ele>357.2</ele>
        <time>2021-04-25T09:30:25Z</time>
      </trkpt>
      <trkpt lat="43.69491" lon="5.16951">
        <ele>357.4</ele>
        <time>2021-04-25T09:30:41Z</time>
      </trkpt>
      <trkpt lat="43.69491" lon="5.16952">
        <ele>357.4</ele>
        <time>2021-04-25T09:31:00Z</time>
      </trkpt>
      <trkpt lat="43.69491" lon="5.16952">
        <ele>357.4</ele>
        <time>2021-04-25T09:31:06Z</time>
      </trkpt>
      <trkpt lat="43.69493" lon="5.16958">
        <ele>357.2</ele>
        <time>2021-04-25T09:31:08Z</time>
      </trkpt>
      <trkpt lat="43.69495" lon="5.1697">
        <ele>357.2</ele>
        <time>2021-04-25T09:31:11Z</time>
      </trkpt>
      <trkpt lat="43.6949" lon="5.17002">
        <ele>356.8</ele>
        <time>2021-04-25T09:31:18Z</time>
      </trkpt>
      <trkpt lat="43.69491" lon="5.17005">
        <ele>356.6</ele>
        <time>2021-04-25T09:31:19Z</time>
      </trkpt>
      <trkpt lat="43.69486" lon="5.17018">
        <ele>356.4</ele>
        <time>2021-04-25T09:31:22Z</time>
      </trkpt>
      <trkpt lat="43.69473" lon="5.17043">
        <ele>355.8</ele>
        <time>2021-04-25T09:31:28Z</time>
      </trkpt>
      <trkpt lat="43.69473" lon="5.17048">
        <ele>355.6</ele>
        <time>2021-04-25T09:31:29Z</time>
      </trkpt>
      <trkpt lat="43.69468" lon="5.17069">
        <ele>355</ele>
        <time>2021-04-25T09:31:33Z</time>
      </trkpt>
      <trkpt lat="43.69459" lon="5.1708">
        <ele>354.6</ele>
        <time>2021-04-25T09:31:36Z</time>
      </trkpt>
      <trkpt lat="43.6945" lon="5.17085">
        <ele>360.2</ele>
        <time>2021-04-25T09:34:21Z</time>
      </trkpt>
      <trkpt lat="43.69453" lon="5.17118">
        <ele>359.4</ele>
        <time>2021-04-25T09:34:52Z</time>
      </trkpt>
      <trkpt lat="43.69469" lon="5.17154">
        <ele>360.4</ele>
        <time>2021-04-25T09:35:07Z</time>
      </trkpt>
      <trkpt lat="43.69472" lon="5.17154">
        <ele>360.6</ele>
        <time>2021-04-25T09:35:09Z</time>
      </trkpt>
      <trkpt lat="43.69479" lon="5.17157">
        <ele>361.2</ele>
        <time>2021-04-25T09:35:13Z</time>
      </trkpt>
      <trkpt lat="43.69481" lon="5.17159">
        <ele>361.4</ele>
        <time>2021-04-25T09:35:16Z</time>
      </trkpt>
      <trkpt lat="43.69486" lon="5.1716">
        <ele>361.8</ele>
        <time>2021-04-25T09:35:19Z</time>
      </trkpt>
      <trkpt lat="43.69497" lon="5.17166">
        <ele>362.6</ele>
        <time>2021-04-25T09:35:25Z</time>
      </trkpt>
      <trkpt lat="43.69503" lon="5.17173">
        <ele>363</ele>
        <time>2021-04-25T09:35:29Z</time>
      </trkpt>
      <trkpt lat="43.69506" lon="5.17173">
        <ele>363.4</ele>
        <time>2021-04-25T09:35:31Z</time>
      </trkpt>
      <trkpt lat="43.69513" lon="5.17174">
        <ele>364.8</ele>
        <time>2021-04-25T09:35:46Z</time>
      </trkpt>
      <trkpt lat="43.69513" lon="5.17175">
        <ele>367.4</ele>
        <time>2021-04-25T09:36:21Z</time>
      </trkpt>
      <trkpt lat="43.69513" lon="5.17176">
        <ele>367.8</ele>
        <time>2021-04-25T09:36:25Z</time>
      </trkpt>
      <trkpt lat="43.69513" lon="5.17176">
        <ele>369</ele>
        <time>2021-04-25T09:36:50Z</time>
      </trkpt>
      <trkpt lat="43.69509" lon="5.1718">
        <ele>370.2</ele>
        <time>2021-04-25T09:37:14Z</time>
      </trkpt>
      <trkpt lat="43.695" lon="5.17196">
        <ele>370.2</ele>
        <time>2021-04-25T09:37:19Z</time>
      </trkpt>
      <trkpt lat="43.69495" lon="5.17228">
        <ele>370</ele>
        <time>2021-04-25T09:37:25Z</time>
      </trkpt>
      <trkpt lat="43.69502" lon="5.17255">
        <ele>368.8</ele>
        <time>2021-04-25T09:37:30Z</time>
      </trkpt>
      <trkpt lat="43.69523" lon="5.17257">
        <ele>367.4</ele>
        <time>2021-04-25T09:37:36Z</time>
      </trkpt>
      <trkpt lat="43.69519" lon="5.17264">
        <ele>366.8</ele>
        <time>2021-04-25T09:37:39Z</time>
      </trkpt>
      <trkpt lat="43.69512" lon="5.17268">
        <ele>366.2</ele>
        <time>2021-04-25T09:37:42Z</time>
      </trkpt>
      <trkpt lat="43.69518" lon="5.17275">
        <ele>365.6</ele>
        <time>2021-04-25T09:37:44Z</time>
      </trkpt>
      <trkpt lat="43.69527" lon="5.17281">
        <ele>365</ele>
        <time>2021-04-25T09:37:46Z</time>
      </trkpt>
      <trkpt lat="43.69541" lon="5.17299">
        <ele>363.4</ele>
        <time>2021-04-25T09:37:51Z</time>
      </trkpt>
      <trkpt lat="43.69549" lon="5.17304">
        <ele>362.6</ele>
        <time>2021-04-25T09:37:54Z</time>
      </trkpt>
      <trkpt lat="43.69552" lon="5.17306">
        <ele>362.2</ele>
        <time>2021-04-25T09:37:55Z</time>
      </trkpt>
      <trkpt lat="43.69551" lon="5.17323">
        <ele>360.2</ele>
        <time>2021-04-25T09:38:00Z</time>
      </trkpt>
      <trkpt lat="43.69541" lon="5.17339">
        <ele>358.4</ele>
        <time>2021-04-25T09:38:04Z</time>
      </trkpt>
      <trkpt lat="43.69541" lon="5.17343">
        <ele>356.8</ele>
        <time>2021-04-25T09:38:07Z</time>
      </trkpt>
      <trkpt lat="43.69544" lon="5.17368">
        <ele>353.6</ele>
        <time>2021-04-25T09:38:13Z</time>
      </trkpt>
      <trkpt lat="43.69544" lon="5.17379">
        <ele>351.8</ele>
        <time>2021-04-25T09:38:16Z</time>
      </trkpt>
      <trkpt lat="43.69543" lon="5.17381">
        <ele>351.2</ele>
        <time>2021-04-25T09:38:17Z</time>
      </trkpt>
      <trkpt lat="43.69547" lon="5.17405">
        <ele>348</ele>
        <time>2021-04-25T09:38:22Z</time>
      </trkpt>
      <trkpt lat="43.69554" lon="5.17411">
        <ele>346.8</ele>
        <time>2021-04-25T09:38:24Z</time>
      </trkpt>
      <trkpt lat="43.69562" lon="5.17409">
        <ele>345.6</ele>
        <time>2021-04-25T09:38:26Z</time>
      </trkpt>
      <trkpt lat="43.69574" lon="5.17405">
        <ele>340.6</ele>
        <time>2021-04-25T09:38:37Z</time>
      </trkpt>
      <trkpt lat="43.69582" lon="5.17411">
        <ele>338.8</ele>
        <time>2021-04-25T09:38:41Z</time>
      </trkpt>
      <trkpt lat="43.69575" lon="5.17425">
        <ele>337.4</ele>
        <time>2021-04-25T09:38:44Z</time>
      </trkpt>
      <trkpt lat="43.69569" lon="5.17447">
        <ele>335.6</ele>
        <time>2021-04-25T09:38:48Z</time>
      </trkpt>
      <trkpt lat="43.69587" lon="5.17465">
        <ele>331.6</ele>
        <time>2021-04-25T09:38:56Z</time>
      </trkpt>
      <trkpt lat="43.69589" lon="5.17476">
        <ele>330.6</ele>
        <time>2021-04-25T09:38:58Z</time>
      </trkpt>
      <trkpt lat="43.69588" lon="5.17486">
        <ele>329</ele>
        <time>2021-04-25T09:39:01Z</time>
      </trkpt>
      <trkpt lat="43.69601" lon="5.17487">
        <ele>326.4</ele>
        <time>2021-04-25T09:39:06Z</time>
      </trkpt>
      <trkpt lat="43.69603" lon="5.17487">
        <ele>325.8</ele>
        <time>2021-04-25T09:39:07Z</time>
      </trkpt>
      <trkpt lat="43.69605" lon="5.17489">
        <ele>324</ele>
        <time>2021-04-25T09:39:11Z</time>
      </trkpt>
      <trkpt lat="43.69603" lon="5.17497">
        <ele>321.8</ele>
        <time>2021-04-25T09:39:17Z</time>
      </trkpt>
      <trkpt lat="43.69602" lon="5.17499">
        <ele>321.2</ele>
        <time>2021-04-25T09:39:18Z</time>
      </trkpt>
      <trkpt lat="43.69597" lon="5.17511">
        <ele>319.4</ele>
        <time>2021-04-25T09:39:22Z</time>
      </trkpt>
      <trkpt lat="43.69605" lon="5.17517">
        <ele>318.2</ele>
        <time>2021-04-25T09:39:25Z</time>
      </trkpt>
      <trkpt lat="43.69619" lon="5.1751">
        <ele>316.8</ele>
        <time>2021-04-25T09:39:28Z</time>
      </trkpt>
      <trkpt lat="43.69628" lon="5.17508">
        <ele>315.2</ele>
        <time>2021-04-25T09:39:32Z</time>
      </trkpt>
      <trkpt lat="43.69622" lon="5.17529">
        <ele>311.8</ele>
        <time>2021-04-25T09:39:39Z</time>
      </trkpt>
      <trkpt lat="43.69625" lon="5.17531">
        <ele>311</ele>
        <time>2021-04-25T09:39:41Z</time>
      </trkpt>
      <trkpt lat="43.6963" lon="5.17528">
        <ele>309</ele>
        <time>2021-04-25T09:39:45Z</time>
      </trkpt>
      <trkpt lat="43.69644" lon="5.17532">
        <ele>306.2</ele>
        <time>2021-04-25T09:39:50Z</time>
      </trkpt>
      <trkpt lat="43.69657" lon="5.17526">
        <ele>304</ele>
        <time>2021-04-25T09:39:54Z</time>
      </trkpt>
      <trkpt lat="43.69673" lon="5.17527">
        <ele>300.4</ele>
        <time>2021-04-25T09:40:00Z</time>
      </trkpt>
      <trkpt lat="43.69721" lon="5.17472">
        <ele>293.2</ele>
        <time>2021-04-25T09:40:12Z</time>
      </trkpt>
      <trkpt lat="43.69725" lon="5.17468">
        <ele>292.6</ele>
        <time>2021-04-25T09:40:13Z</time>
      </trkpt>
      <trkpt lat="43.69736" lon="5.17456">
        <ele>291.2</ele>
        <time>2021-04-25T09:40:16Z</time>
      </trkpt>
      <trkpt lat="43.69757" lon="5.17424">
        <ele>287</ele>
        <time>2021-04-25T09:40:25Z</time>
      </trkpt>
      <trkpt lat="43.6977" lon="5.17408">
        <ele>285</ele>
        <time>2021-04-25T09:40:30Z</time>
      </trkpt>
      <trkpt lat="43.69799" lon="5.17366">
        <ele>281.4</ele>
        <time>2021-04-25T09:40:40Z</time>
      </trkpt>
      <trkpt lat="43.69811" lon="5.17351">
        <ele>280</ele>
        <time>2021-04-25T09:40:44Z</time>
      </trkpt>
      <trkpt lat="43.69827" lon="5.17347">
        <ele>278.4</ele>
        <time>2021-04-25T09:40:48Z</time>
      </trkpt>
      <trkpt lat="43.69841" lon="5.17338">
        <ele>277.4</ele>
        <time>2021-04-25T09:40:51Z</time>
      </trkpt>
      <trkpt lat="43.69855" lon="5.17328">
        <ele>276.2</ele>
        <time>2021-04-25T09:40:54Z</time>
      </trkpt>
      <trkpt lat="43.69867" lon="5.17313">
        <ele>274.8</ele>
        <time>2021-04-25T09:40:57Z</time>
      </trkpt>
      <trkpt lat="43.69875" lon="5.17308">
        <ele>274</ele>
        <time>2021-04-25T09:40:59Z</time>
      </trkpt>
      <trkpt lat="43.69895" lon="5.17313">
        <ele>271.4</ele>
        <time>2021-04-25T09:41:04Z</time>
      </trkpt>
      <trkpt lat="43.69902" lon="5.17322">
        <ele>270.2</ele>
        <time>2021-04-25T09:41:06Z</time>
      </trkpt>
      <trkpt lat="43.6991" lon="5.17335">
        <ele>269</ele>
        <time>2021-04-25T09:41:08Z</time>
      </trkpt>
      <trkpt lat="43.6992" lon="5.17368">
        <ele>266.6</ele>
        <time>2021-04-25T09:41:12Z</time>
      </trkpt>
      <trkpt lat="43.6992" lon="5.17379">
        <ele>265</ele>
        <time>2021-04-25T09:41:15Z</time>
      </trkpt>
      <trkpt lat="43.6992" lon="5.17381">
        <ele>264.4</ele>
        <time>2021-04-25T09:41:16Z</time>
      </trkpt>
      <trkpt lat="43.69926" lon="5.17392">
        <ele>260.2</ele>
        <time>2021-04-25T09:41:25Z</time>
      </trkpt>
      <trkpt lat="43.69955" lon="5.17422">
        <ele>255.8</ele>
        <time>2021-04-25T09:41:34Z</time>
      </trkpt>
      <trkpt lat="43.69982" lon="5.17454">
        <ele>252</ele>
        <time>2021-04-25T09:41:41Z</time>
      </trkpt>
      <trkpt lat="43.69995" lon="5.17451">
        <ele>250.6</ele>
        <time>2021-04-25T09:41:44Z</time>
      </trkpt>
      <trkpt lat="43.70009" lon="5.17451">
        <ele>249.2</ele>
        <time>2021-04-25T09:41:47Z</time>
      </trkpt>
      <trkpt lat="43.70015" lon="5.17454">
        <ele>248.2</ele>
        <time>2021-04-25T09:41:49Z</time>
      </trkpt>
      <trkpt lat="43.70028" lon="5.17453">
        <ele>246.6</ele>
        <time>2021-04-25T09:41:52Z</time>
      </trkpt>
      <trkpt lat="43.70044" lon="5.17457">
        <ele>243.8</ele>
        <time>2021-04-25T09:41:57Z</time>
      </trkpt>
      <trkpt lat="43.70048" lon="5.17459">
        <ele>242.2</ele>
        <time>2021-04-25T09:42:00Z</time>
      </trkpt>
      <trkpt lat="43.70056" lon="5.17464">
        <ele>239.4</ele>
        <time>2021-04-25T09:42:05Z</time>
      </trkpt>
      <trkpt lat="43.70061" lon="5.17464">
        <ele>237.8</ele>
        <time>2021-04-25T09:42:08Z</time>
      </trkpt>
      <trkpt lat="43.70065" lon="5.17468">
        <ele>235.6</ele>
        <time>2021-04-25T09:42:12Z</time>
      </trkpt>
      <trkpt lat="43.70069" lon="5.17481">
        <ele>232.8</ele>
        <time>2021-04-25T09:42:17Z</time>
      </trkpt>
      <trkpt lat="43.70094" lon="5.17508">
        <ele>227.8</ele>
        <time>2021-04-25T09:42:25Z</time>
      </trkpt>
      <trkpt lat="43.70098" lon="5.17512">
        <ele>227.2</ele>
        <time>2021-04-25T09:42:26Z</time>
      </trkpt>
      <trkpt lat="43.70115" lon="5.17521">
        <ele>225.2</ele>
        <time>2021-04-25T09:42:29Z</time>
      </trkpt>
      <trkpt lat="43.70137" lon="5.17514">
        <ele>222.4</ele>
        <time>2021-04-25T09:42:33Z</time>
      </trkpt>
      <trkpt lat="43.70147" lon="5.1751">
        <ele>221.2</ele>
        <time>2021-04-25T09:42:35Z</time>
      </trkpt>
      <trkpt lat="43.70158" lon="5.1751">
        <ele>219.2</ele>
        <time>2021-04-25T09:42:38Z</time>
      </trkpt>
      <trkpt lat="43.70182" lon="5.17512">
        <ele>216</ele>
        <time>2021-04-25T09:42:43Z</time>
      </trkpt>
      <trkpt lat="43.70191" lon="5.17511">
        <ele>214.6</ele>
        <time>2021-04-25T09:42:45Z</time>
      </trkpt>
      <trkpt lat="43.70211" lon="5.17503">
        <ele>211.2</ele>
        <time>2021-04-25T09:42:50Z</time>
      </trkpt>
      <trkpt lat="43.70227" lon="5.17496">
        <ele>208.6</ele>
        <time>2021-04-25T09:42:54Z</time>
      </trkpt>
      <trkpt lat="43.70234" lon="5.17495">
        <ele>207.4</ele>
        <time>2021-04-25T09:42:56Z</time>
      </trkpt>
      <trkpt lat="43.70238" lon="5.17498">
        <ele>206.2</ele>
        <time>2021-04-25T09:42:58Z</time>
      </trkpt>
      <trkpt lat="43.70242" lon="5.17521">
        <ele>202</ele>
        <time>2021-04-25T09:43:06Z</time>
      </trkpt>
      <trkpt lat="43.70243" lon="5.17538">
        <ele>198.4</ele>
        <time>2021-04-25T09:43:12Z</time>
      </trkpt>
      <trkpt lat="43.70252" lon="5.17574">
        <ele>192.2</ele>
        <time>2021-04-25T09:43:24Z</time>
      </trkpt>
      <trkpt lat="43.70262" lon="5.17622">
        <ele>187.6</ele>
        <time>2021-04-25T09:43:34Z</time>
      </trkpt>
      <trkpt lat="43.70265" lon="5.17634">
        <ele>187</ele>
        <time>2021-04-25T09:43:36Z</time>
      </trkpt>
      <trkpt lat="43.70272" lon="5.17667">
        <ele>184.6</ele>
        <time>2021-04-25T09:43:42Z</time>
      </trkpt>
      <trkpt lat="43.70289" lon="5.17729">
        <ele>180.8</ele>
        <time>2021-04-25T09:43:52Z</time>
      </trkpt>
      <trkpt lat="43.7029" lon="5.17748">
        <ele>179.6</ele>
        <time>2021-04-25T09:43:55Z</time>
      </trkpt>
      <trkpt lat="43.70286" lon="5.17796">
        <ele>176.4</ele>
        <time>2021-04-25T09:44:05Z</time>
      </trkpt>
      <trkpt lat="43.70299" lon="5.1786">
        <ele>172.8</ele>
        <time>2021-04-25T09:44:18Z</time>
      </trkpt>
      <trkpt lat="43.70308" lon="5.17895">
        <ele>172.4</ele>
        <time>2021-04-25T09:44:26Z</time>
      </trkpt>
      <trkpt lat="43.70308" lon="5.17948">
        <ele>172.2</ele>
        <time>2021-04-25T09:44:37Z</time>
      </trkpt>
      <trkpt lat="43.70281" lon="5.18007">
        <ele>172.8</ele>
        <time>2021-04-25T09:44:50Z</time>
      </trkpt>
      <trkpt lat="43.70274" lon="5.18019">
        <ele>173</ele>
        <time>2021-04-25T09:44:54Z</time>
      </trkpt>
      <trkpt lat="43.70245" lon="5.18043">
        <ele>174.4</ele>
        <time>2021-04-25T09:45:07Z</time>
      </trkpt>
      <trkpt lat="43.70243" lon="5.18074">
        <ele>175.8</ele>
        <time>2021-04-25T09:45:18Z</time>
      </trkpt>
      <trkpt lat="43.70235" lon="5.18088">
        <ele>176.6</ele>
        <time>2021-04-25T09:45:25Z</time>
      </trkpt>
      <trkpt lat="43.7022" lon="5.18107">
        <ele>178.2</ele>
        <time>2021-04-25T09:45:38Z</time>
      </trkpt>
      <trkpt lat="43.70215" lon="5.18119">
        <ele>179.2</ele>
        <time>2021-04-25T09:45:44Z</time>
      </trkpt>
      <trkpt lat="43.7021" lon="5.18151">
        <ele>180.8</ele>
        <time>2021-04-25T09:45:57Z</time>
      </trkpt>
      <trkpt lat="43.70204" lon="5.18167">
        <ele>181.2</ele>
        <time>2021-04-25T09:46:03Z</time>
      </trkpt>
      <trkpt lat="43.70183" lon="5.18198">
        <ele>183.6</ele>
        <time>2021-04-25T09:46:19Z</time>
      </trkpt>
      <trkpt lat="43.70171" lon="5.18207">
        <ele>184.8</ele>
        <time>2021-04-25T09:46:26Z</time>
      </trkpt>
      <trkpt lat="43.70162" lon="5.18203">
        <ele>185.4</ele>
        <time>2021-04-25T09:46:30Z</time>
      </trkpt>
      <trkpt lat="43.70136" lon="5.18174">
        <ele>189.4</ele>
        <time>2021-04-25T09:46:47Z</time>
      </trkpt>
      <trkpt lat="43.70121" lon="5.18151">
        <ele>192.4</ele>
        <time>2021-04-25T09:46:59Z</time>
      </trkpt>
      <trkpt lat="43.70111" lon="5.18141">
        <ele>193.8</ele>
        <time>2021-04-25T09:47:05Z</time>
      </trkpt>
      <trkpt lat="43.70089" lon="5.18116">
        <ele>196.6</ele>
        <time>2021-04-25T09:47:17Z</time>
      </trkpt>
      <trkpt lat="43.70053" lon="5.18102">
        <ele>199</ele>
        <time>2021-04-25T09:47:28Z</time>
      </trkpt>
      <trkpt lat="43.70038" lon="5.18101">
        <ele>200.2</ele>
        <time>2021-04-25T09:47:33Z</time>
      </trkpt>
      <trkpt lat="43.70018" lon="5.18097">
        <ele>202</ele>
        <time>2021-04-25T09:47:41Z</time>
      </trkpt>
      <trkpt lat="43.70002" lon="5.18095">
        <ele>203.6</ele>
        <time>2021-04-25T09:47:47Z</time>
      </trkpt>
      <trkpt lat="43.69991" lon="5.18087">
        <ele>204.6</ele>
        <time>2021-04-25T09:47:51Z</time>
      </trkpt>
      <trkpt lat="43.69958" lon="5.18066">
        <ele>208</ele>
        <time>2021-04-25T09:48:02Z</time>
      </trkpt>
      <trkpt lat="43.69926" lon="5.18037">
        <ele>212</ele>
        <time>2021-04-25T09:48:15Z</time>
      </trkpt>
      <trkpt lat="43.69914" lon="5.18032">
        <ele>213.4</ele>
        <time>2021-04-25T09:48:20Z</time>
      </trkpt>
      <trkpt lat="43.6988" lon="5.18012">
        <ele>216.6</ele>
        <time>2021-04-25T09:48:32Z</time>
      </trkpt>
      <trkpt lat="43.69864" lon="5.17994">
        <ele>217.6</ele>
        <time>2021-04-25T09:48:37Z</time>
      </trkpt>
      <trkpt lat="43.6986" lon="5.17991">
        <ele>217.8</ele>
        <time>2021-04-25T09:48:38Z</time>
      </trkpt>
      <trkpt lat="43.69844" lon="5.17978">
        <ele>218.8</ele>
        <time>2021-04-25T09:48:42Z</time>
      </trkpt>
      <trkpt lat="43.69823" lon="5.17968">
        <ele>219.8</ele>
        <time>2021-04-25T09:48:47Z</time>
      </trkpt>
      <trkpt lat="43.69815" lon="5.1796">
        <ele>220.2</ele>
        <time>2021-04-25T09:48:49Z</time>
      </trkpt>
      <trkpt lat="43.69805" lon="5.17948">
        <ele>220.6</ele>
        <time>2021-04-25T09:48:52Z</time>
      </trkpt>
      <trkpt lat="43.6977" lon="5.17912">
        <ele>222.4</ele>
        <time>2021-04-25T09:49:03Z</time>
      </trkpt>
      <trkpt lat="43.69757" lon="5.17887">
        <ele>223.4</ele>
        <time>2021-04-25T09:49:09Z</time>
      </trkpt>
      <trkpt lat="43.6975" lon="5.17844">
        <ele>225</ele>
        <time>2021-04-25T09:49:20Z</time>
      </trkpt>
      <trkpt lat="43.69747" lon="5.17833">
        <ele>225.4</ele>
        <time>2021-04-25T09:49:23Z</time>
      </trkpt>
      <trkpt lat="43.69742" lon="5.17827">
        <ele>226.4</ele>
        <time>2021-04-25T09:49:28Z</time>
      </trkpt>
      <trkpt lat="43.6974" lon="5.17828">
        <ele>228.2</ele>
        <time>2021-04-25T09:49:40Z</time>
      </trkpt>
      <trkpt lat="43.69732" lon="5.1783">
        <ele>229.6</ele>
        <time>2021-04-25T09:49:46Z</time>
      </trkpt>
      <trkpt lat="43.6973" lon="5.17825">
        <ele>229.8</ele>
        <time>2021-04-25T09:49:48Z</time>
      </trkpt>
      <trkpt lat="43.69715" lon="5.17797">
        <ele>231.8</ele>
        <time>2021-04-25T09:49:59Z</time>
      </trkpt>
      <trkpt lat="43.69698" lon="5.17767">
        <ele>234</ele>
        <time>2021-04-25T09:50:11Z</time>
      </trkpt>
      <trkpt lat="43.69689" lon="5.1775">
        <ele>235</ele>
        <time>2021-04-25T09:50:17Z</time>
      </trkpt>
      <trkpt lat="43.69684" lon="5.17735">
        <ele>235.8</ele>
        <time>2021-04-25T09:50:24Z</time>
      </trkpt>
      <trkpt lat="43.69674" lon="5.17722">
        <ele>236.8</ele>
        <time>2021-04-25T09:50:31Z</time>
      </trkpt>
      <trkpt lat="43.69672" lon="5.17715">
        <ele>237.2</ele>
        <time>2021-04-25T09:50:34Z</time>
      </trkpt>
      <trkpt lat="43.69666" lon="5.17708">
        <ele>237.8</ele>
        <time>2021-04-25T09:50:38Z</time>
      </trkpt>
      <trkpt lat="43.69658" lon="5.17691">
        <ele>239.2</ele>
        <time>2021-04-25T09:50:45Z</time>
      </trkpt>
      <trkpt lat="43.69658" lon="5.17688">
        <ele>239.6</ele>
        <time>2021-04-25T09:50:46Z</time>
      </trkpt>
      <trkpt lat="43.69652" lon="5.17677">
        <ele>240.8</ele>
        <time>2021-04-25T09:50:52Z</time>
      </trkpt>
      <trkpt lat="43.69647" lon="5.17667">
        <ele>241.6</ele>
        <time>2021-04-25T09:50:57Z</time>
      </trkpt>
      <trkpt lat="43.69646" lon="5.17663">
        <ele>242.2</ele>
        <time>2021-04-25T09:50:59Z</time>
      </trkpt>
      <trkpt lat="43.69635" lon="5.17663">
        <ele>243.2</ele>
        <time>2021-04-25T09:51:05Z</time>
      </trkpt>
      <trkpt lat="43.69625" lon="5.17665">
        <ele>244.4</ele>
        <time>2021-04-25T09:51:10Z</time>
      </trkpt>
      <trkpt lat="43.69621" lon="5.17663">
        <ele>245</ele>
        <time>2021-04-25T09:51:12Z</time>
      </trkpt>
      <trkpt lat="43.69615" lon="5.17655">
        <ele>246.2</ele>
        <time>2021-04-25T09:51:17Z</time>
      </trkpt>
      <trkpt lat="43.69609" lon="5.17649">
        <ele>247.2</ele>
        <time>2021-04-25T09:51:21Z</time>
      </trkpt>
      <trkpt lat="43.69609" lon="5.17637">
        <ele>248.2</ele>
        <time>2021-04-25T09:51:26Z</time>
      </trkpt>
      <trkpt lat="43.69608" lon="5.17636">
        <ele>248.6</ele>
        <time>2021-04-25T09:51:28Z</time>
      </trkpt>
      <trkpt lat="43.69608" lon="5.17635">
        <ele>251.8</ele>
        <time>2021-04-25T09:51:46Z</time>
      </trkpt>
      <trkpt lat="43.69608" lon="5.17636">
        <ele>255.2</ele>
        <time>2021-04-25T09:52:09Z</time>
      </trkpt>
      <trkpt lat="43.69606" lon="5.17634">
        <ele>256.4</ele>
        <time>2021-04-25T09:52:18Z</time>
      </trkpt>
      <trkpt lat="43.69605" lon="5.17628">
        <ele>257.4</ele>
        <time>2021-04-25T09:52:24Z</time>
      </trkpt>
      <trkpt lat="43.696" lon="5.17624">
        <ele>257.8</ele>
        <time>2021-04-25T09:52:28Z</time>
      </trkpt>
      <trkpt lat="43.69598" lon="5.17624">
        <ele>258</ele>
        <time>2021-04-25T09:52:29Z</time>
      </trkpt>
      <trkpt lat="43.69587" lon="5.1762">
        <ele>259.2</ele>
        <time>2021-04-25T09:52:35Z</time>
      </trkpt>
      <trkpt lat="43.6958" lon="5.17627">
        <ele>260</ele>
        <time>2021-04-25T09:52:40Z</time>
      </trkpt>
      <trkpt lat="43.69577" lon="5.17634">
        <ele>260.8</ele>
        <time>2021-04-25T09:52:44Z</time>
      </trkpt>
      <trkpt lat="43.69571" lon="5.17641">
        <ele>261.8</ele>
        <time>2021-04-25T09:52:52Z</time>
      </trkpt>
      <trkpt lat="43.69562" lon="5.17654">
        <ele>262.4</ele>
        <time>2021-04-25T09:53:00Z</time>
      </trkpt>
      <trkpt lat="43.6956" lon="5.17657">
        <ele>262.4</ele>
        <time>2021-04-25T09:53:02Z</time>
      </trkpt>
      <trkpt lat="43.69555" lon="5.17653">
        <ele>262.6</ele>
        <time>2021-04-25T09:53:05Z</time>
      </trkpt>
      <trkpt lat="43.69553" lon="5.17646">
        <ele>263</ele>
        <time>2021-04-25T09:53:09Z</time>
      </trkpt>
      <trkpt lat="43.6955" lon="5.17645">
        <ele>263.4</ele>
        <time>2021-04-25T09:53:11Z</time>
      </trkpt>
      <trkpt lat="43.69544" lon="5.17647">
        <ele>264.4</ele>
        <time>2021-04-25T09:53:17Z</time>
      </trkpt>
      <trkpt lat="43.69543" lon="5.17642">
        <ele>265.6</ele>
        <time>2021-04-25T09:53:28Z</time>
      </trkpt>
      <trkpt lat="43.69543" lon="5.17641">
        <ele>266.6</ele>
        <time>2021-04-25T09:53:37Z</time>
      </trkpt>
      <trkpt lat="43.69543" lon="5.17635">
        <ele>268.4</ele>
        <time>2021-04-25T09:53:52Z</time>
      </trkpt>
      <trkpt lat="43.69542" lon="5.17635">
        <ele>270</ele>
        <time>2021-04-25T09:54:05Z</time>
      </trkpt>
      <trkpt lat="43.6954" lon="5.17634">
        <ele>270.8</ele>
        <time>2021-04-25T09:54:12Z</time>
      </trkpt>
      <trkpt lat="43.69535" lon="5.17634">
        <ele>271.8</ele>
        <time>2021-04-25T09:54:18Z</time>
      </trkpt>
      <trkpt lat="43.69531" lon="5.17639">
        <ele>273.2</ele>
        <time>2021-04-25T09:54:27Z</time>
      </trkpt>
      <trkpt lat="43.69531" lon="5.17641">
        <ele>273.2</ele>
        <time>2021-04-25T09:54:28Z</time>
      </trkpt>
      <trkpt lat="43.69528" lon="5.17649">
        <ele>273.6</ele>
        <time>2021-04-25T09:54:32Z</time>
      </trkpt>
      <trkpt lat="43.69511" lon="5.17667">
        <ele>274.2</ele>
        <time>2021-04-25T09:54:41Z</time>
      </trkpt>
      <trkpt lat="43.69508" lon="5.17672">
        <ele>274.2</ele>
        <time>2021-04-25T09:54:43Z</time>
      </trkpt>
      <trkpt lat="43.69493" lon="5.17677">
        <ele>274.4</ele>
        <time>2021-04-25T09:54:49Z</time>
      </trkpt>
      <trkpt lat="43.69483" lon="5.17681">
        <ele>274.6</ele>
        <time>2021-04-25T09:54:54Z</time>
      </trkpt>
      <trkpt lat="43.69482" lon="5.17684">
        <ele>274.8</ele>
        <time>2021-04-25T09:54:56Z</time>
      </trkpt>
      <trkpt lat="43.69484" lon="5.17688">
        <ele>275.8</ele>
        <time>2021-04-25T09:55:17Z</time>
      </trkpt>
      <trkpt lat="43.69485" lon="5.17689">
        <ele>276.8</ele>
        <time>2021-04-25T09:55:40Z</time>
      </trkpt>
      <trkpt lat="43.69486" lon="5.1769">
        <ele>277</ele>
        <time>2021-04-25T09:55:41Z</time>
      </trkpt>
      <trkpt lat="43.69494" lon="5.17707">
        <ele>278.4</ele>
        <time>2021-04-25T09:55:51Z</time>
      </trkpt>
      <trkpt lat="43.69498" lon="5.17717">
        <ele>279.8</ele>
        <time>2021-04-25T09:56:09Z</time>
      </trkpt>
      <trkpt lat="43.69499" lon="5.17719">
        <ele>280</ele>
        <time>2021-04-25T09:56:10Z</time>
      </trkpt>
      <trkpt lat="43.69497" lon="5.17725">
        <ele>280.2</ele>
        <time>2021-04-25T09:56:13Z</time>
      </trkpt>
      <trkpt lat="43.69489" lon="5.17747">
        <ele>280.6</ele>
        <time>2021-04-25T09:56:24Z</time>
      </trkpt>
      <trkpt lat="43.69489" lon="5.17747">
        <ele>281.2</ele>
        <time>2021-04-25T09:56:36Z</time>
      </trkpt>
      <trkpt lat="43.69488" lon="5.17748">
        <ele>281.8</ele>
        <time>2021-04-25T09:56:54Z</time>
      </trkpt>
      <trkpt lat="43.6948" lon="5.17767">
        <ele>281</ele>
        <time>2021-04-25T09:57:00Z</time>
      </trkpt>
      <trkpt lat="43.69481" lon="5.17769">
        <ele>281.2</ele>
        <time>2021-04-25T09:57:01Z</time>
      </trkpt>
      <trkpt lat="43.69487" lon="5.17761">
        <ele>281</ele>
        <time>2021-04-25T09:57:06Z</time>
      </trkpt>
      <trkpt lat="43.69497" lon="5.17752">
        <ele>280.8</ele>
        <time>2021-04-25T09:57:10Z</time>
      </trkpt>
      <trkpt lat="43.69503" lon="5.1775">
        <ele>280.6</ele>
        <time>2021-04-25T09:57:12Z</time>
      </trkpt>
      <trkpt lat="43.69512" lon="5.17749">
        <ele>280</ele>
        <time>2021-04-25T09:57:15Z</time>
      </trkpt>
      <trkpt lat="43.69513" lon="5.17761">
        <ele>279.2</ele>
        <time>2021-04-25T09:57:18Z</time>
      </trkpt>
      <trkpt lat="43.6951" lon="5.17764">
        <ele>279</ele>
        <time>2021-04-25T09:57:19Z</time>
      </trkpt>
      <trkpt lat="43.69501" lon="5.1779">
        <ele>277.8</ele>
        <time>2021-04-25T09:57:24Z</time>
      </trkpt>
      <trkpt lat="43.69483" lon="5.17815">
        <ele>276</ele>
        <time>2021-04-25T09:57:30Z</time>
      </trkpt>
      <trkpt lat="43.69471" lon="5.17828">
        <ele>274.6</ele>
        <time>2021-04-25T09:57:36Z</time>
      </trkpt>
      <trkpt lat="43.6947" lon="5.17831">
        <ele>274.4</ele>
        <time>2021-04-25T09:57:37Z</time>
      </trkpt>
      <trkpt lat="43.69453" lon="5.17857">
        <ele>273</ele>
        <time>2021-04-25T09:57:43Z</time>
      </trkpt>
      <trkpt lat="43.69447" lon="5.17864">
        <ele>272.8</ele>
        <time>2021-04-25T09:57:45Z</time>
      </trkpt>
      <trkpt lat="43.69444" lon="5.17874">
        <ele>272.6</ele>
        <time>2021-04-25T09:57:47Z</time>
      </trkpt>
      <trkpt lat="43.69426" lon="5.17901">
        <ele>272</ele>
        <time>2021-04-25T09:57:54Z</time>
      </trkpt>
      <trkpt lat="43.69419" lon="5.1791">
        <ele>269.8</ele>
        <time>2021-04-25T09:58:12Z</time>
      </trkpt>
      <trkpt lat="43.69417" lon="5.17912">
        <ele>269.6</ele>
        <time>2021-04-25T09:58:15Z</time>
      </trkpt>
      <trkpt lat="43.69415" lon="5.17913">
        <ele>268.2</ele>
        <time>2021-04-25T09:58:31Z</time>
      </trkpt>
      <trkpt lat="43.69406" lon="5.17922">
        <ele>268</ele>
        <time>2021-04-25T09:58:42Z</time>
      </trkpt>
      <trkpt lat="43.69399" lon="5.17934">
        <ele>267.8</ele>
        <time>2021-04-25T09:58:47Z</time>
      </trkpt>
      <trkpt lat="43.69403" lon="5.17946">
        <ele>267.2</ele>
        <time>2021-04-25T09:58:51Z</time>
      </trkpt>
      <trkpt lat="43.69403" lon="5.17955">
        <ele>266.6</ele>
        <time>2021-04-25T09:58:57Z</time>
      </trkpt>
      <trkpt lat="43.69403" lon="5.17958">
        <ele>266.4</ele>
        <time>2021-04-25T09:58:58Z</time>
      </trkpt>
      <trkpt lat="43.69406" lon="5.17967">
        <ele>265.2</ele>
        <time>2021-04-25T09:59:13Z</time>
      </trkpt>
      <trkpt lat="43.69406" lon="5.17969">
        <ele>263.6</ele>
        <time>2021-04-25T09:59:33Z</time>
      </trkpt>
      <trkpt lat="43.69406" lon="5.17972">
        <ele>263.4</ele>
        <time>2021-04-25T09:59:35Z</time>
      </trkpt>
      <trkpt lat="43.69406" lon="5.17988">
        <ele>262.6</ele>
        <time>2021-04-25T09:59:44Z</time>
      </trkpt>
      <trkpt lat="43.69411" lon="5.18011">
        <ele>261</ele>
        <time>2021-04-25T09:59:49Z</time>
      </trkpt>
      <trkpt lat="43.69411" lon="5.18015">
        <ele>260.6</ele>
        <time>2021-04-25T09:59:50Z</time>
      </trkpt>
      <trkpt lat="43.69411" lon="5.18032">
        <ele>259.4</ele>
        <time>2021-04-25T09:59:54Z</time>
      </trkpt>
      <trkpt lat="43.69414" lon="5.18046">
        <ele>258</ele>
        <time>2021-04-25T09:59:58Z</time>
      </trkpt>
      <trkpt lat="43.69412" lon="5.18055">
        <ele>257</ele>
        <time>2021-04-25T10:00:01Z</time>
      </trkpt>
      <trkpt lat="43.69417" lon="5.18056">
        <ele>254.2</ele>
        <time>2021-04-25T10:00:12Z</time>
      </trkpt>
      <trkpt lat="43.69417" lon="5.18056">
        <ele>248.8</ele>
        <time>2021-04-25T10:00:43Z</time>
      </trkpt>
      <trkpt lat="43.69417" lon="5.18056">
        <ele>246.4</ele>
        <time>2021-04-25T10:01:00Z</time>
      </trkpt>
      <trkpt lat="43.69418" lon="5.18057">
        <ele>243.8</ele>
        <time>2021-04-25T10:01:32Z</time>
      </trkpt>
      <trkpt lat="43.69418" lon="5.18055">
        <ele>242.6</ele>
        <time>2021-04-25T10:01:50Z</time>
      </trkpt>
      <trkpt lat="43.69418" lon="5.18055">
        <ele>242.4</ele>
        <time>2021-04-25T10:01:54Z</time>
      </trkpt>
      <trkpt lat="43.69418" lon="5.18054">
        <ele>241.6</ele>
        <time>2021-04-25T10:02:11Z</time>
      </trkpt>
      <trkpt lat="43.69419" lon="5.18054">
        <ele>240.4</ele>
        <time>2021-04-25T10:02:48Z</time>
      </trkpt>
      <trkpt lat="43.6942" lon="5.18054">
        <ele>240.2</ele>
        <time>2021-04-25T10:02:56Z</time>
      </trkpt>
      <trkpt lat="43.69421" lon="5.18055">
        <ele>240</ele>
        <time>2021-04-25T10:03:02Z</time>
      </trkpt>
      <trkpt lat="43.69421" lon="5.18055">
        <ele>239.4</ele>
        <time>2021-04-25T10:03:25Z</time>
      </trkpt>
      <trkpt lat="43.69421" lon="5.18057">
        <ele>239.4</ele>
        <time>2021-04-25T10:03:31Z</time>
      </trkpt>
      <trkpt lat="43.69421" lon="5.18057">
        <ele>239.4</ele>
        <time>2021-04-25T10:04:00Z</time>
      </trkpt>
      <trkpt lat="43.69422" lon="5.18069">
        <ele>239.2</ele>
        <time>2021-04-25T10:04:03Z</time>
      </trkpt>
      <trkpt lat="43.69427" lon="5.18077">
        <ele>239</ele>
        <time>2021-04-25T10:04:05Z</time>
      </trkpt>
      <trkpt lat="43.69429" lon="5.1809">
        <ele>238.2</ele>
        <time>2021-04-25T10:04:08Z</time>
      </trkpt>
      <trkpt lat="43.69431" lon="5.18104">
        <ele>237.6</ele>
        <time>2021-04-25T10:04:11Z</time>
      </trkpt>
      <trkpt lat="43.69433" lon="5.18111">
        <ele>237.2</ele>
        <time>2021-04-25T10:04:12Z</time>
      </trkpt>
      <trkpt lat="43.69438" lon="5.18133">
        <ele>236.2</ele>
        <time>2021-04-25T10:04:17Z</time>
      </trkpt>
      <trkpt lat="43.69438" lon="5.18133">
        <ele>234.2</ele>
        <time>2021-04-25T10:04:40Z</time>
      </trkpt>
      <trkpt lat="43.69438" lon="5.18133">
        <ele>233.4</ele>
        <time>2021-04-25T10:04:50Z</time>
      </trkpt>
      <trkpt lat="43.69438" lon="5.18132">
        <ele>231.2</ele>
        <time>2021-04-25T10:05:15Z</time>
      </trkpt>
      <trkpt lat="43.69438" lon="5.18132">
        <ele>229.4</ele>
        <time>2021-04-25T10:05:48Z</time>
      </trkpt>
      <trkpt lat="43.69439" lon="5.18138">
        <ele>228.8</ele>
        <time>2021-04-25T10:05:53Z</time>
      </trkpt>
      <trkpt lat="43.69442" lon="5.18154">
        <ele>227.6</ele>
        <time>2021-04-25T10:06:09Z</time>
      </trkpt>
      <trkpt lat="43.69447" lon="5.18182">
        <ele>226.6</ele>
        <time>2021-04-25T10:06:17Z</time>
      </trkpt>
      <trkpt lat="43.69445" lon="5.18189">
        <ele>226.4</ele>
        <time>2021-04-25T10:06:19Z</time>
      </trkpt>
      <trkpt lat="43.69447" lon="5.18197">
        <ele>226.4</ele>
        <time>2021-04-25T10:06:21Z</time>
      </trkpt>
      <trkpt lat="43.6946" lon="5.18235">
        <ele>225.6</ele>
        <time>2021-04-25T10:06:30Z</time>
      </trkpt>
      <trkpt lat="43.69457" lon="5.18243">
        <ele>225.4</ele>
        <time>2021-04-25T10:06:32Z</time>
      </trkpt>
      <trkpt lat="43.6945" lon="5.18248">
        <ele>225.2</ele>
        <time>2021-04-25T10:06:34Z</time>
      </trkpt>
      <trkpt lat="43.69413" lon="5.18278">
        <ele>224.6</ele>
        <time>2021-04-25T10:06:47Z</time>
      </trkpt>
      <trkpt lat="43.69401" lon="5.1829">
        <ele>224.8</ele>
        <time>2021-04-25T10:06:53Z</time>
      </trkpt>
      <trkpt lat="43.69387" lon="5.18293">
        <ele>224.8</ele>
        <time>2021-04-25T10:06:59Z</time>
      </trkpt>
      <trkpt lat="43.69365" lon="5.18261">
        <ele>225.2</ele>
        <time>2021-04-25T10:07:11Z</time>
      </trkpt>
      <trkpt lat="43.69334" lon="5.18232">
        <ele>225.8</ele>
        <time>2021-04-25T10:07:24Z</time>
      </trkpt>
      <trkpt lat="43.69319" lon="5.18229">
        <ele>226.2</ele>
        <time>2021-04-25T10:07:30Z</time>
      </trkpt>
      <trkpt lat="43.69288" lon="5.18221">
        <ele>227.6</ele>
        <time>2021-04-25T10:07:42Z</time>
      </trkpt>
      <trkpt lat="43.69261" lon="5.18191">
        <ele>228.8</ele>
        <time>2021-04-25T10:07:54Z</time>
      </trkpt>
      <trkpt lat="43.69254" lon="5.18192">
        <ele>229</ele>
        <time>2021-04-25T10:07:56Z</time>
      </trkpt>
      <trkpt lat="43.6924" lon="5.1822">
        <ele>229.6</ele>
        <time>2021-04-25T10:08:04Z</time>
      </trkpt>
      <trkpt lat="43.69214" lon="5.1826">
        <ele>230</ele>
        <time>2021-04-25T10:08:13Z</time>
      </trkpt>
      <trkpt lat="43.69209" lon="5.18264">
        <ele>230</ele>
        <time>2021-04-25T10:08:14Z</time>
      </trkpt>
      <trkpt lat="43.69168" lon="5.1828">
        <ele>229.8</ele>
        <time>2021-04-25T10:08:21Z</time>
      </trkpt>
      <trkpt lat="43.69157" lon="5.18288">
        <ele>230</ele>
        <time>2021-04-25T10:08:23Z</time>
      </trkpt>
      <trkpt lat="43.69138" lon="5.18308">
        <ele>230</ele>
        <time>2021-04-25T10:08:27Z</time>
      </trkpt>
      <trkpt lat="43.69104" lon="5.1835">
        <ele>230</ele>
        <time>2021-04-25T10:08:35Z</time>
      </trkpt>
      <trkpt lat="43.69072" lon="5.18358">
        <ele>230.2</ele>
        <time>2021-04-25T10:08:42Z</time>
      </trkpt>
      <trkpt lat="43.69046" lon="5.18356">
        <ele>230.6</ele>
        <time>2021-04-25T10:08:48Z</time>
      </trkpt>
      <trkpt lat="43.69014" lon="5.18346">
        <ele>230.4</ele>
        <time>2021-04-25T10:08:54Z</time>
      </trkpt>
      <trkpt lat="43.68989" lon="5.18342">
        <ele>230.4</ele>
        <time>2021-04-25T10:08:58Z</time>
      </trkpt>
      <trkpt lat="43.68978" lon="5.18335">
        <ele>230.4</ele>
        <time>2021-04-25T10:09:00Z</time>
      </trkpt>
      <trkpt lat="43.68969" lon="5.18324">
        <ele>230.6</ele>
        <time>2021-04-25T10:09:02Z</time>
      </trkpt>
      <trkpt lat="43.68958" lon="5.18306">
        <ele>230</ele>
        <time>2021-04-25T10:09:05Z</time>
      </trkpt>
      <trkpt lat="43.68947" lon="5.18282">
        <ele>230</ele>
        <time>2021-04-25T10:09:10Z</time>
      </trkpt>
      <trkpt lat="43.68936" lon="5.18299">
        <ele>230</ele>
        <time>2021-04-25T10:09:15Z</time>
      </trkpt>
      <trkpt lat="43.68928" lon="5.18312">
        <ele>230</ele>
        <time>2021-04-25T10:09:18Z</time>
      </trkpt>
      <trkpt lat="43.68923" lon="5.18321">
        <ele>230</ele>
        <time>2021-04-25T10:09:20Z</time>
      </trkpt>
      <trkpt lat="43.68918" lon="5.18345">
        <ele>229.6</ele>
        <time>2021-04-25T10:09:24Z</time>
      </trkpt>
      <trkpt lat="43.68913" lon="5.18369">
        <ele>229.2</ele>
        <time>2021-04-25T10:09:31Z</time>
      </trkpt>
      <trkpt lat="43.68914" lon="5.18369">
        <ele>229</ele>
        <time>2021-04-25T10:09:37Z</time>
      </trkpt>
      <trkpt lat="43.68914" lon="5.18369">
        <ele>227.8</ele>
        <time>2021-04-25T10:10:13Z</time>
      </trkpt>
      <trkpt lat="43.68912" lon="5.18373">
        <ele>227.4</ele>
        <time>2021-04-25T10:10:34Z</time>
      </trkpt>
      <trkpt lat="43.68903" lon="5.18383">
        <ele>227</ele>
        <time>2021-04-25T10:10:39Z</time>
      </trkpt>
      <trkpt lat="43.68892" lon="5.18396">
        <ele>226.8</ele>
        <time>2021-04-25T10:10:43Z</time>
      </trkpt>
      <trkpt lat="43.68867" lon="5.18421">
        <ele>226.2</ele>
        <time>2021-04-25T10:10:48Z</time>
      </trkpt>
      <trkpt lat="43.6886" lon="5.18427">
        <ele>226.2</ele>
        <time>2021-04-25T10:10:50Z</time>
      </trkpt>
      <trkpt lat="43.68846" lon="5.18443">
        <ele>225.8</ele>
        <time>2021-04-25T10:10:55Z</time>
      </trkpt>
      <trkpt lat="43.68833" lon="5.18468">
        <ele>225.2</ele>
        <time>2021-04-25T10:11:00Z</time>
      </trkpt>
      <trkpt lat="43.68833" lon="5.18474">
        <ele>225.2</ele>
        <time>2021-04-25T10:11:01Z</time>
      </trkpt>
      <trkpt lat="43.6883" lon="5.18491">
        <ele>224.6</ele>
        <time>2021-04-25T10:11:04Z</time>
      </trkpt>
      <trkpt lat="43.68842" lon="5.18526">
        <ele>223.6</ele>
        <time>2021-04-25T10:11:11Z</time>
      </trkpt>
      <trkpt lat="43.68845" lon="5.1853">
        <ele>223.6</ele>
        <time>2021-04-25T10:11:12Z</time>
      </trkpt>
      <trkpt lat="43.68848" lon="5.18543">
        <ele>223.2</ele>
        <time>2021-04-25T10:11:15Z</time>
      </trkpt>
      <trkpt lat="43.68841" lon="5.18561">
        <ele>222.6</ele>
        <time>2021-04-25T10:11:18Z</time>
      </trkpt>
      <trkpt lat="43.68832" lon="5.18591">
        <ele>221.8</ele>
        <time>2021-04-25T10:11:22Z</time>
      </trkpt>
      <trkpt lat="43.68831" lon="5.18598">
        <ele>221.6</ele>
        <time>2021-04-25T10:11:23Z</time>
      </trkpt>
      <trkpt lat="43.68821" lon="5.1862">
        <ele>220.8</ele>
        <time>2021-04-25T10:11:26Z</time>
      </trkpt>
      <trkpt lat="43.68811" lon="5.18634">
        <ele>219.8</ele>
        <time>2021-04-25T10:11:29Z</time>
      </trkpt>
      <trkpt lat="43.68809" lon="5.18639">
        <ele>219.4</ele>
        <time>2021-04-25T10:11:30Z</time>
      </trkpt>
      <trkpt lat="43.68811" lon="5.1866">
        <ele>218.6</ele>
        <time>2021-04-25T10:11:33Z</time>
      </trkpt>
      <trkpt lat="43.68808" lon="5.18689">
        <ele>216.8</ele>
        <time>2021-04-25T10:11:38Z</time>
      </trkpt>
      <trkpt lat="43.68806" lon="5.18692">
        <ele>216.4</ele>
        <time>2021-04-25T10:11:39Z</time>
      </trkpt>
      <trkpt lat="43.68804" lon="5.18695">
        <ele>214.8</ele>
        <time>2021-04-25T10:11:45Z</time>
      </trkpt>
      <trkpt lat="43.68796" lon="5.18707">
        <ele>211</ele>
        <time>2021-04-25T10:11:59Z</time>
      </trkpt>
      <trkpt lat="43.68784" lon="5.18722">
        <ele>209.6</ele>
        <time>2021-04-25T10:12:03Z</time>
      </trkpt>
      <trkpt lat="43.68769" lon="5.18751">
        <ele>208.2</ele>
        <time>2021-04-25T10:12:07Z</time>
      </trkpt>
      <trkpt lat="43.68742" lon="5.18795">
        <ele>206.6</ele>
        <time>2021-04-25T10:12:13Z</time>
      </trkpt>
      <trkpt lat="43.68729" lon="5.18813">
        <ele>206</ele>
        <time>2021-04-25T10:12:16Z</time>
      </trkpt>
      <trkpt lat="43.68716" lon="5.18824">
        <ele>205.2</ele>
        <time>2021-04-25T10:12:19Z</time>
      </trkpt>
      <trkpt lat="43.68698" lon="5.18854">
        <ele>203.2</ele>
        <time>2021-04-25T10:12:25Z</time>
      </trkpt>
      <trkpt lat="43.6869" lon="5.18863">
        <ele>202.6</ele>
        <time>2021-04-25T10:12:27Z</time>
      </trkpt>
      <trkpt lat="43.68679" lon="5.18879">
        <ele>201.8</ele>
        <time>2021-04-25T10:12:30Z</time>
      </trkpt>
      <trkpt lat="43.6865" lon="5.18925">
        <ele>200</ele>
        <time>2021-04-25T10:12:37Z</time>
      </trkpt>
      <trkpt lat="43.68641" lon="5.18936">
        <ele>199.6</ele>
        <time>2021-04-25T10:12:39Z</time>
      </trkpt>
      <trkpt lat="43.68606" lon="5.18984">
        <ele>197.2</ele>
        <time>2021-04-25T10:12:48Z</time>
      </trkpt>
      <trkpt lat="43.68588" lon="5.1901">
        <ele>196</ele>
        <time>2021-04-25T10:12:53Z</time>
      </trkpt>
      <trkpt lat="43.68567" lon="5.19043">
        <ele>194.2</ele>
        <time>2021-04-25T10:12:59Z</time>
      </trkpt>
      <trkpt lat="43.68535" lon="5.19087">
        <ele>191.8</ele>
        <time>2021-04-25T10:13:08Z</time>
      </trkpt>
      <trkpt lat="43.68522" lon="5.19104">
        <ele>191</ele>
        <time>2021-04-25T10:13:11Z</time>
      </trkpt>
      <trkpt lat="43.68515" lon="5.19113">
        <ele>190.6</ele>
        <time>2021-04-25T10:13:13Z</time>
      </trkpt>
      <trkpt lat="43.68473" lon="5.19163">
        <ele>187.6</ele>
        <time>2021-04-25T10:13:23Z</time>
      </trkpt>
      <trkpt lat="43.68437" lon="5.19203">
        <ele>185.6</ele>
        <time>2021-04-25T10:13:31Z</time>
      </trkpt>
      <trkpt lat="43.68415" lon="5.19229">
        <ele>184.4</ele>
        <time>2021-04-25T10:13:36Z</time>
      </trkpt>
      <trkpt lat="43.68379" lon="5.19275">
        <ele>182.8</ele>
        <time>2021-04-25T10:13:46Z</time>
      </trkpt>
      <trkpt lat="43.6836" lon="5.19309">
        <ele>182.6</ele>
        <time>2021-04-25T10:13:55Z</time>
      </trkpt>
      <trkpt lat="43.68345" lon="5.19326">
        <ele>182.2</ele>
        <time>2021-04-25T10:14:00Z</time>
      </trkpt>
      <trkpt lat="43.68298" lon="5.19373">
        <ele>182</ele>
        <time>2021-04-25T10:14:13Z</time>
      </trkpt>
      <trkpt lat="43.68262" lon="5.19408">
        <ele>182.8</ele>
        <time>2021-04-25T10:14:24Z</time>
      </trkpt>
      <trkpt lat="43.68244" lon="5.19426">
        <ele>183.2</ele>
        <time>2021-04-25T10:14:30Z</time>
      </trkpt>
      <trkpt lat="43.68235" lon="5.19458">
        <ele>183.6</ele>
        <time>2021-04-25T10:14:39Z</time>
      </trkpt>
      <trkpt lat="43.68225" lon="5.195">
        <ele>185.2</ele>
        <time>2021-04-25T10:14:49Z</time>
      </trkpt>
      <trkpt lat="43.68225" lon="5.19526">
        <ele>185.8</ele>
        <time>2021-04-25T10:14:54Z</time>
      </trkpt>
      <trkpt lat="43.68211" lon="5.19561">
        <ele>187.2</ele>
        <time>2021-04-25T10:15:04Z</time>
      </trkpt>
      <trkpt lat="43.68173" lon="5.19575">
        <ele>189.6</ele>
        <time>2021-04-25T10:15:18Z</time>
      </trkpt>
      <trkpt lat="43.68162" lon="5.19561">
        <ele>190.6</ele>
        <time>2021-04-25T10:15:23Z</time>
      </trkpt>
      <trkpt lat="43.68137" lon="5.19519">
        <ele>192.4</ele>
        <time>2021-04-25T10:15:36Z</time>
      </trkpt>
      <trkpt lat="43.68111" lon="5.19478">
        <ele>193.6</ele>
        <time>2021-04-25T10:15:48Z</time>
      </trkpt>
      <trkpt lat="43.68092" lon="5.19463">
        <ele>194.6</ele>
        <time>2021-04-25T10:15:55Z</time>
      </trkpt>
      <trkpt lat="43.6805" lon="5.19439">
        <ele>196.8</ele>
        <time>2021-04-25T10:16:09Z</time>
      </trkpt>
      <trkpt lat="43.68007" lon="5.19401">
        <ele>199</ele>
        <time>2021-04-25T10:16:22Z</time>
      </trkpt>
      <trkpt lat="43.67978" lon="5.19371">
        <ele>199.8</ele>
        <time>2021-04-25T10:16:29Z</time>
      </trkpt>
      <trkpt lat="43.67929" lon="5.19323">
        <ele>201.6</ele>
        <time>2021-04-25T10:16:42Z</time>
      </trkpt>
      <trkpt lat="43.6791" lon="5.19301">
        <ele>202.6</ele>
        <time>2021-04-25T10:16:48Z</time>
      </trkpt>
      <trkpt lat="43.67896" lon="5.19291">
        <ele>203.2</ele>
        <time>2021-04-25T10:16:54Z</time>
      </trkpt>
      <trkpt lat="43.67892" lon="5.19294">
        <ele>203.8</ele>
        <time>2021-04-25T10:16:57Z</time>
      </trkpt>
      <trkpt lat="43.67886" lon="5.19295">
        <ele>204.4</ele>
        <time>2021-04-25T10:17:01Z</time>
      </trkpt>
      <trkpt lat="43.67875" lon="5.19291">
        <ele>205.4</ele>
        <time>2021-04-25T10:17:07Z</time>
      </trkpt>
      <trkpt lat="43.67873" lon="5.1929">
        <ele>205.6</ele>
        <time>2021-04-25T10:17:08Z</time>
      </trkpt>
      <trkpt lat="43.67857" lon="5.19271">
        <ele>206.4</ele>
        <time>2021-04-25T10:17:15Z</time>
      </trkpt>
      <trkpt lat="43.67833" lon="5.19257">
        <ele>208</ele>
        <time>2021-04-25T10:17:23Z</time>
      </trkpt>
      <trkpt lat="43.67818" lon="5.19243">
        <ele>209</ele>
        <time>2021-04-25T10:17:29Z</time>
      </trkpt>
      <trkpt lat="43.678" lon="5.19226">
        <ele>210.6</ele>
        <time>2021-04-25T10:17:37Z</time>
      </trkpt>
      <trkpt lat="43.67793" lon="5.19224">
        <ele>211.2</ele>
        <time>2021-04-25T10:17:40Z</time>
      </trkpt>
      <trkpt lat="43.67792" lon="5.19227">
        <ele>211.2</ele>
        <time>2021-04-25T10:17:41Z</time>
      </trkpt>
      <trkpt lat="43.67787" lon="5.19242">
        <ele>212.8</ele>
        <time>2021-04-25T10:17:48Z</time>
      </trkpt>
      <trkpt lat="43.67785" lon="5.19247">
        <ele>213.6</ele>
        <time>2021-04-25T10:17:52Z</time>
      </trkpt>
      <trkpt lat="43.67782" lon="5.19255">
        <ele>214.4</ele>
        <time>2021-04-25T10:17:55Z</time>
      </trkpt>
      <trkpt lat="43.67774" lon="5.1929">
        <ele>216.8</ele>
        <time>2021-04-25T10:18:07Z</time>
      </trkpt>
      <trkpt lat="43.67759" lon="5.19314">
        <ele>219.4</ele>
        <time>2021-04-25T10:18:19Z</time>
      </trkpt>
      <trkpt lat="43.67745" lon="5.19321">
        <ele>221.4</ele>
        <time>2021-04-25T10:18:26Z</time>
      </trkpt>
      <trkpt lat="43.67717" lon="5.19336">
        <ele>224.6</ele>
        <time>2021-04-25T10:18:40Z</time>
      </trkpt>
      <trkpt lat="43.67705" lon="5.19342">
        <ele>226</ele>
        <time>2021-04-25T10:18:46Z</time>
      </trkpt>
      <trkpt lat="43.67686" lon="5.19348">
        <ele>228</ele>
        <time>2021-04-25T10:18:54Z</time>
      </trkpt>
      <trkpt lat="43.67654" lon="5.19363">
        <ele>232</ele>
        <time>2021-04-25T10:19:10Z</time>
      </trkpt>
      <trkpt lat="43.67625" lon="5.19375">
        <ele>235.6</ele>
        <time>2021-04-25T10:19:24Z</time>
      </trkpt>
      <trkpt lat="43.67607" lon="5.19384">
        <ele>238</ele>
        <time>2021-04-25T10:19:33Z</time>
      </trkpt>
      <trkpt lat="43.67575" lon="5.19397">
        <ele>241.8</ele>
        <time>2021-04-25T10:19:48Z</time>
      </trkpt>
      <trkpt lat="43.67539" lon="5.19408">
        <ele>246</ele>
        <time>2021-04-25T10:20:05Z</time>
      </trkpt>
      <trkpt lat="43.67527" lon="5.19408">
        <ele>247.4</ele>
        <time>2021-04-25T10:20:10Z</time>
      </trkpt>
      <trkpt lat="43.67494" lon="5.19432">
        <ele>251.2</ele>
        <time>2021-04-25T10:20:26Z</time>
      </trkpt>
      <trkpt lat="43.67468" lon="5.19459">
        <ele>254.8</ele>
        <time>2021-04-25T10:20:40Z</time>
      </trkpt>
      <trkpt lat="43.67458" lon="5.19477">
        <ele>256.6</ele>
        <time>2021-04-25T10:20:47Z</time>
      </trkpt>
      <trkpt lat="43.67439" lon="5.19495">
        <ele>259.2</ele>
        <time>2021-04-25T10:20:58Z</time>
      </trkpt>
      <trkpt lat="43.67413" lon="5.19495">
        <ele>262.4</ele>
        <time>2021-04-25T10:21:10Z</time>
      </trkpt>
      <trkpt lat="43.67399" lon="5.19482">
        <ele>264.6</ele>
        <time>2021-04-25T10:21:18Z</time>
      </trkpt>
      <trkpt lat="43.67376" lon="5.19463">
        <ele>267.8</ele>
        <time>2021-04-25T10:21:30Z</time>
      </trkpt>
      <trkpt lat="43.67346" lon="5.19445">
        <ele>272.4</ele>
        <time>2021-04-25T10:21:46Z</time>
      </trkpt>
      <trkpt lat="43.67336" lon="5.19439">
        <ele>274</ele>
        <time>2021-04-25T10:21:51Z</time>
      </trkpt>
      <trkpt lat="43.67306" lon="5.19433">
        <ele>278.2</ele>
        <time>2021-04-25T10:22:05Z</time>
      </trkpt>
      <trkpt lat="43.67275" lon="5.19433">
        <ele>283.6</ele>
        <time>2021-04-25T10:22:20Z</time>
      </trkpt>
      <trkpt lat="43.67262" lon="5.19432">
        <ele>286</ele>
        <time>2021-04-25T10:22:27Z</time>
      </trkpt>
      <trkpt lat="43.67231" lon="5.19436">
        <ele>291.6</ele>
        <time>2021-04-25T10:22:43Z</time>
      </trkpt>
      <trkpt lat="43.67205" lon="5.19441">
        <ele>296.4</ele>
        <time>2021-04-25T10:22:57Z</time>
      </trkpt>
      <trkpt lat="43.67195" lon="5.19439">
        <ele>298.2</ele>
        <time>2021-04-25T10:23:03Z</time>
      </trkpt>
      <trkpt lat="43.67193" lon="5.19439">
        <ele>302</ele>
        <time>2021-04-25T10:23:18Z</time>
      </trkpt>
      <trkpt lat="43.67193" lon="5.1944">
        <ele>307.2</ele>
        <time>2021-04-25T10:23:42Z</time>
      </trkpt>
      <trkpt lat="43.6719" lon="5.19451">
        <ele>308</ele>
        <time>2021-04-25T10:23:47Z</time>
      </trkpt>
      <trkpt lat="43.67163" lon="5.19482">
        <ele>310</ele>
        <time>2021-04-25T10:24:00Z</time>
      </trkpt>
      <trkpt lat="43.67146" lon="5.19507">
        <ele>310.6</ele>
        <time>2021-04-25T10:24:06Z</time>
      </trkpt>
      <trkpt lat="43.67136" lon="5.19515">
        <ele>310.8</ele>
        <time>2021-04-25T10:24:09Z</time>
      </trkpt>
      <trkpt lat="43.67123" lon="5.19529">
        <ele>311.2</ele>
        <time>2021-04-25T10:24:13Z</time>
      </trkpt>
      <trkpt lat="43.67101" lon="5.19555">
        <ele>311.6</ele>
        <time>2021-04-25T10:24:19Z</time>
      </trkpt>
      <trkpt lat="43.67097" lon="5.19566">
        <ele>311.6</ele>
        <time>2021-04-25T10:24:21Z</time>
      </trkpt>
      <trkpt lat="43.67099" lon="5.19591">
        <ele>311.8</ele>
        <time>2021-04-25T10:24:25Z</time>
      </trkpt>
      <trkpt lat="43.67103" lon="5.19628">
        <ele>312</ele>
        <time>2021-04-25T10:24:31Z</time>
      </trkpt>
      <trkpt lat="43.67108" lon="5.19667">
        <ele>312</ele>
        <time>2021-04-25T10:24:36Z</time>
      </trkpt>
      <trkpt lat="43.67126" lon="5.19722">
        <ele>312.2</ele>
        <time>2021-04-25T10:24:42Z</time>
      </trkpt>
      <trkpt lat="43.67129" lon="5.1976">
        <ele>311.4</ele>
        <time>2021-04-25T10:24:46Z</time>
      </trkpt>
      <trkpt lat="43.67123" lon="5.19805">
        <ele>310.8</ele>
        <time>2021-04-25T10:24:51Z</time>
      </trkpt>
      <trkpt lat="43.67119" lon="5.19833">
        <ele>310.4</ele>
        <time>2021-04-25T10:24:54Z</time>
      </trkpt>
      <trkpt lat="43.6712" lon="5.19864">
        <ele>309.8</ele>
        <time>2021-04-25T10:24:57Z</time>
      </trkpt>
      <trkpt lat="43.67131" lon="5.199">
        <ele>308.8</ele>
        <time>2021-04-25T10:25:01Z</time>
      </trkpt>
      <trkpt lat="43.67137" lon="5.19907">
        <ele>308.6</ele>
        <time>2021-04-25T10:25:02Z</time>
      </trkpt>
      <trkpt lat="43.6718" lon="5.19956">
        <ele>306.2</ele>
        <time>2021-04-25T10:25:08Z</time>
      </trkpt>
      <trkpt lat="43.67211" lon="5.19972">
        <ele>305.2</ele>
        <time>2021-04-25T10:25:13Z</time>
      </trkpt>
      <trkpt lat="43.67228" lon="5.19986">
        <ele>304.6</ele>
        <time>2021-04-25T10:25:18Z</time>
      </trkpt>
      <trkpt lat="43.67254" lon="5.19989">
        <ele>304.2</ele>
        <time>2021-04-25T10:25:29Z</time>
      </trkpt>
      <trkpt lat="43.67282" lon="5.19996">
        <ele>303.4</ele>
        <time>2021-04-25T10:25:41Z</time>
      </trkpt>
      <trkpt lat="43.67305" lon="5.20007">
        <ele>303.8</ele>
        <time>2021-04-25T10:25:47Z</time>
      </trkpt>
      <trkpt lat="43.67353" lon="5.20021">
        <ele>303.8</ele>
        <time>2021-04-25T10:25:56Z</time>
      </trkpt>
      <trkpt lat="43.67366" lon="5.20031">
        <ele>303.6</ele>
        <time>2021-04-25T10:25:59Z</time>
      </trkpt>
      <trkpt lat="43.67369" lon="5.20036">
        <ele>303.6</ele>
        <time>2021-04-25T10:26:00Z</time>
      </trkpt>
      <trkpt lat="43.67392" lon="5.20069">
        <ele>303.2</ele>
        <time>2021-04-25T10:26:05Z</time>
      </trkpt>
      <trkpt lat="43.67408" lon="5.20097">
        <ele>302.4</ele>
        <time>2021-04-25T10:26:08Z</time>
      </trkpt>
      <trkpt lat="43.67416" lon="5.20102">
        <ele>302</ele>
        <time>2021-04-25T10:26:09Z</time>
      </trkpt>
      <trkpt lat="43.67436" lon="5.20105">
        <ele>301</ele>
        <time>2021-04-25T10:26:11Z</time>
      </trkpt>
      <trkpt lat="43.6749" lon="5.2009">
        <ele>299.6</ele>
        <time>2021-04-25T10:26:17Z</time>
      </trkpt>
      <trkpt lat="43.67502" lon="5.20098">
        <ele>299.6</ele>
        <time>2021-04-25T10:26:19Z</time>
      </trkpt>
      <trkpt lat="43.67512" lon="5.20126">
        <ele>299.6</ele>
        <time>2021-04-25T10:26:23Z</time>
      </trkpt>
      <trkpt lat="43.67516" lon="5.20156">
        <ele>299.6</ele>
        <time>2021-04-25T10:26:28Z</time>
      </trkpt>
      <trkpt lat="43.67513" lon="5.20167">
        <ele>299.4</ele>
        <time>2021-04-25T10:26:30Z</time>
      </trkpt>
      <trkpt lat="43.67507" lon="5.20177">
        <ele>299.2</ele>
        <time>2021-04-25T10:26:32Z</time>
      </trkpt>
      <trkpt lat="43.6748" lon="5.20238">
        <ele>297.8</ele>
        <time>2021-04-25T10:26:40Z</time>
      </trkpt>
      <trkpt lat="43.67475" lon="5.20247">
        <ele>297.6</ele>
        <time>2021-04-25T10:26:41Z</time>
      </trkpt>
      <trkpt lat="43.67428" lon="5.20297">
        <ele>294.4</ele>
        <time>2021-04-25T10:26:48Z</time>
      </trkpt>
      <trkpt lat="43.67422" lon="5.20305">
        <ele>290.8</ele>
        <time>2021-04-25T10:26:59Z</time>
      </trkpt>
      <trkpt lat="43.67421" lon="5.20306">
        <ele>288</ele>
        <time>2021-04-25T10:27:12Z</time>
      </trkpt>
      <trkpt lat="43.67413" lon="5.20316">
        <ele>283.4</ele>
        <time>2021-04-25T10:27:31Z</time>
      </trkpt>
      <trkpt lat="43.67403" lon="5.20331">
        <ele>281.2</ele>
        <time>2021-04-25T10:27:41Z</time>
      </trkpt>
      <trkpt lat="43.67394" lon="5.20345">
        <ele>280.2</ele>
        <time>2021-04-25T10:27:45Z</time>
      </trkpt>
      <trkpt lat="43.67392" lon="5.20343">
        <ele>277.8</ele>
        <time>2021-04-25T10:27:57Z</time>
      </trkpt>
      <trkpt lat="43.67392" lon="5.20343">
        <ele>273.8</ele>
        <time>2021-04-25T10:28:24Z</time>
      </trkpt>
      <trkpt lat="43.67392" lon="5.20343">
        <ele>272</ele>
        <time>2021-04-25T10:28:40Z</time>
      </trkpt>
      <trkpt lat="43.6739" lon="5.20341">
        <ele>271.6</ele>
        <time>2021-04-25T10:28:44Z</time>
      </trkpt>
      <trkpt lat="43.67387" lon="5.20338">
        <ele>270</ele>
        <time>2021-04-25T10:29:06Z</time>
      </trkpt>
      <trkpt lat="43.67376" lon="5.20323">
        <ele>269.4</ele>
        <time>2021-04-25T10:29:11Z</time>
      </trkpt>
      <trkpt lat="43.67355" lon="5.20352">
        <ele>268.6</ele>
        <time>2021-04-25T10:29:19Z</time>
      </trkpt>
      <trkpt lat="43.67328" lon="5.20397">
        <ele>267.2</ele>
        <time>2021-04-25T10:29:29Z</time>
      </trkpt>
      <trkpt lat="43.67324" lon="5.20403">
        <ele>267</ele>
        <time>2021-04-25T10:29:30Z</time>
      </trkpt>
      <trkpt lat="43.6731" lon="5.20419">
        <ele>266.6</ele>
        <time>2021-04-25T10:29:33Z</time>
      </trkpt>
      <trkpt lat="43.67272" lon="5.20461">
        <ele>264.8</ele>
        <time>2021-04-25T10:29:41Z</time>
      </trkpt>
      <trkpt lat="43.67266" lon="5.20462">
        <ele>264.6</ele>
        <time>2021-04-25T10:29:42Z</time>
      </trkpt>
      <trkpt lat="43.67238" lon="5.20468">
        <ele>263.8</ele>
        <time>2021-04-25T10:29:46Z</time>
      </trkpt>
      <trkpt lat="43.67212" lon="5.20489">
        <ele>262.8</ele>
        <time>2021-04-25T10:29:50Z</time>
      </trkpt>
      <trkpt lat="43.67191" lon="5.205">
        <ele>262.2</ele>
        <time>2021-04-25T10:29:53Z</time>
      </trkpt>
      <trkpt lat="43.67171" lon="5.20503">
        <ele>261.2</ele>
        <time>2021-04-25T10:29:56Z</time>
      </trkpt>
      <trkpt lat="43.67152" lon="5.20499">
        <ele>260.4</ele>
        <time>2021-04-25T10:29:59Z</time>
      </trkpt>
      <trkpt lat="43.67129" lon="5.20486">
        <ele>259.4</ele>
        <time>2021-04-25T10:30:03Z</time>
      </trkpt>
      <trkpt lat="43.67111" lon="5.20483">
        <ele>258.8</ele>
        <time>2021-04-25T10:30:06Z</time>
      </trkpt>
      <trkpt lat="43.67068" lon="5.20491">
        <ele>256.8</ele>
        <time>2021-04-25T10:30:14Z</time>
      </trkpt>
      <trkpt lat="43.67058" lon="5.20507">
        <ele>256.2</ele>
        <time>2021-04-25T10:30:17Z</time>
      </trkpt>
      <trkpt lat="43.67056" lon="5.20521">
        <ele>255.6</ele>
        <time>2021-04-25T10:30:19Z</time>
      </trkpt>
      <trkpt lat="43.6705" lon="5.2054">
        <ele>255</ele>
        <time>2021-04-25T10:30:22Z</time>
      </trkpt>
      <trkpt lat="43.67024" lon="5.20571">
        <ele>253.6</ele>
        <time>2021-04-25T10:30:28Z</time>
      </trkpt>
      <trkpt lat="43.67009" lon="5.20591">
        <ele>252.8</ele>
        <time>2021-04-25T10:30:32Z</time>
      </trkpt>
      <trkpt lat="43.66988" lon="5.20614">
        <ele>251.6</ele>
        <time>2021-04-25T10:30:38Z</time>
      </trkpt>
      <trkpt lat="43.66982" lon="5.20651">
        <ele>250.6</ele>
        <time>2021-04-25T10:30:47Z</time>
      </trkpt>
      <trkpt lat="43.6698" lon="5.20688">
        <ele>249.8</ele>
        <time>2021-04-25T10:30:55Z</time>
      </trkpt>
      <trkpt lat="43.66979" lon="5.20714">
        <ele>249.4</ele>
        <time>2021-04-25T10:31:00Z</time>
      </trkpt>
      <trkpt lat="43.66979" lon="5.20745">
        <ele>248.8</ele>
        <time>2021-04-25T10:31:05Z</time>
      </trkpt>
      <trkpt lat="43.66982" lon="5.20785">
        <ele>248.2</ele>
        <time>2021-04-25T10:31:12Z</time>
      </trkpt>
      <trkpt lat="43.6698" lon="5.20796">
        <ele>247.8</ele>
        <time>2021-04-25T10:31:17Z</time>
      </trkpt>
      <trkpt lat="43.66979" lon="5.20798">
        <ele>247.2</ele>
        <time>2021-04-25T10:31:25Z</time>
      </trkpt>
      <trkpt lat="43.6698" lon="5.20803">
        <ele>247</ele>
        <time>2021-04-25T10:31:27Z</time>
      </trkpt>
      <trkpt lat="43.66962" lon="5.2084">
        <ele>246.2</ele>
        <time>2021-04-25T10:31:34Z</time>
      </trkpt>
      <trkpt lat="43.66946" lon="5.20883">
        <ele>245.4</ele>
        <time>2021-04-25T10:31:40Z</time>
      </trkpt>
      <trkpt lat="43.66944" lon="5.20889">
        <ele>245.2</ele>
        <time>2021-04-25T10:31:41Z</time>
      </trkpt>
      <trkpt lat="43.66932" lon="5.20955">
        <ele>244.2</ele>
        <time>2021-04-25T10:31:50Z</time>
      </trkpt>
      <trkpt lat="43.66927" lon="5.20999">
        <ele>243.8</ele>
        <time>2021-04-25T10:31:57Z</time>
      </trkpt>
      <trkpt lat="43.66928" lon="5.21007">
        <ele>243.6</ele>
        <time>2021-04-25T10:31:58Z</time>
      </trkpt>
      <trkpt lat="43.66927" lon="5.21044">
        <ele>243.2</ele>
        <time>2021-04-25T10:32:02Z</time>
      </trkpt>
      <trkpt lat="43.66927" lon="5.21107">
        <ele>243</ele>
        <time>2021-04-25T10:32:09Z</time>
      </trkpt>
      <trkpt lat="43.66936" lon="5.21178">
        <ele>242.4</ele>
        <time>2021-04-25T10:32:17Z</time>
      </trkpt>
      <trkpt lat="43.66944" lon="5.2123">
        <ele>242</ele>
        <time>2021-04-25T10:32:23Z</time>
      </trkpt>
      <trkpt lat="43.66955" lon="5.21267">
        <ele>242</ele>
        <time>2021-04-25T10:32:28Z</time>
      </trkpt>
      <trkpt lat="43.6696" lon="5.21286">
        <ele>241.8</ele>
        <time>2021-04-25T10:32:31Z</time>
      </trkpt>
      <trkpt lat="43.66963" lon="5.21337">
        <ele>241.8</ele>
        <time>2021-04-25T10:32:38Z</time>
      </trkpt>
      <trkpt lat="43.66973" lon="5.21418">
        <ele>241.4</ele>
        <time>2021-04-25T10:32:47Z</time>
      </trkpt>
      <trkpt lat="43.6697" lon="5.21452">
        <ele>241.2</ele>
        <time>2021-04-25T10:32:50Z</time>
      </trkpt>
      <trkpt lat="43.66964" lon="5.21473">
        <ele>241</ele>
        <time>2021-04-25T10:32:52Z</time>
      </trkpt>
      <trkpt lat="43.66932" lon="5.21504">
        <ele>240.2</ele>
        <time>2021-04-25T10:32:57Z</time>
      </trkpt>
      <trkpt lat="43.66925" lon="5.21509">
        <ele>240.2</ele>
        <time>2021-04-25T10:32:58Z</time>
      </trkpt>
      <trkpt lat="43.66897" lon="5.21528">
        <ele>239.8</ele>
        <time>2021-04-25T10:33:03Z</time>
      </trkpt>
      <trkpt lat="43.66839" lon="5.21571">
        <ele>239</ele>
        <time>2021-04-25T10:33:15Z</time>
      </trkpt>
      <trkpt lat="43.66806" lon="5.21595">
        <ele>238.8</ele>
        <time>2021-04-25T10:33:22Z</time>
      </trkpt>
      <trkpt lat="43.66752" lon="5.21632">
        <ele>238.6</ele>
        <time>2021-04-25T10:33:35Z</time>
      </trkpt>
      <trkpt lat="43.66721" lon="5.21655">
        <ele>238.6</ele>
        <time>2021-04-25T10:33:43Z</time>
      </trkpt>
      <trkpt lat="43.66707" lon="5.21666">
        <ele>238.8</ele>
        <time>2021-04-25T10:33:47Z</time>
      </trkpt>
      <trkpt lat="43.66659" lon="5.21709">
        <ele>238.8</ele>
        <time>2021-04-25T10:33:58Z</time>
      </trkpt>
      <trkpt lat="43.66627" lon="5.21741">
        <ele>238.8</ele>
        <time>2021-04-25T10:34:06Z</time>
      </trkpt>
      <trkpt lat="43.66618" lon="5.21758">
        <ele>238.8</ele>
        <time>2021-04-25T10:34:10Z</time>
      </trkpt>
      <trkpt lat="43.666" lon="5.21776">
        <ele>239</ele>
        <time>2021-04-25T10:34:16Z</time>
      </trkpt>
      <trkpt lat="43.66591" lon="5.21768">
        <ele>238.8</ele>
        <time>2021-04-25T10:34:20Z</time>
      </trkpt>
      <trkpt lat="43.66582" lon="5.21773">
        <ele>239</ele>
        <time>2021-04-25T10:34:24Z</time>
      </trkpt>
      <trkpt lat="43.66578" lon="5.21776">
        <ele>239.2</ele>
        <time>2021-04-25T10:34:26Z</time>
      </trkpt>
      <trkpt lat="43.66563" lon="5.21787">
        <ele>239.2</ele>
        <time>2021-04-25T10:34:33Z</time>
      </trkpt>
      <trkpt lat="43.66543" lon="5.21804">
        <ele>239.2</ele>
        <time>2021-04-25T10:34:39Z</time>
      </trkpt>
      <trkpt lat="43.66534" lon="5.21813">
        <ele>239.4</ele>
        <time>2021-04-25T10:34:42Z</time>
      </trkpt>
      <trkpt lat="43.66508" lon="5.21833">
        <ele>239.8</ele>
        <time>2021-04-25T10:34:50Z</time>
      </trkpt>
      <trkpt lat="43.66494" lon="5.21844">
        <ele>240</ele>
        <time>2021-04-25T10:34:56Z</time>
      </trkpt>
      <trkpt lat="43.66489" lon="5.21848">
        <ele>240</ele>
        <time>2021-04-25T10:34:58Z</time>
      </trkpt>
      <trkpt lat="43.66451" lon="5.21879">
        <ele>240.4</ele>
        <time>2021-04-25T10:35:09Z</time>
      </trkpt>
      <trkpt lat="43.66438" lon="5.21888">
        <ele>240.6</ele>
        <time>2021-04-25T10:35:13Z</time>
      </trkpt>
      <trkpt lat="43.66431" lon="5.21893">
        <ele>240.6</ele>
        <time>2021-04-25T10:35:15Z</time>
      </trkpt>
      <trkpt lat="43.66412" lon="5.21907">
        <ele>240.6</ele>
        <time>2021-04-25T10:35:21Z</time>
      </trkpt>
      <trkpt lat="43.66389" lon="5.21925">
        <ele>240.2</ele>
        <time>2021-04-25T10:35:28Z</time>
      </trkpt>
      <trkpt lat="43.66374" lon="5.21934">
        <ele>240</ele>
        <time>2021-04-25T10:35:32Z</time>
      </trkpt>
      <trkpt lat="43.66352" lon="5.21949">
        <ele>240</ele>
        <time>2021-04-25T10:35:37Z</time>
      </trkpt>
      <trkpt lat="43.66321" lon="5.21961">
        <ele>239.4</ele>
        <time>2021-04-25T10:35:43Z</time>
      </trkpt>
      <trkpt lat="43.66312" lon="5.21965">
        <ele>239.2</ele>
        <time>2021-04-25T10:35:45Z</time>
      </trkpt>
      <trkpt lat="43.663" lon="5.21966">
        <ele>238.8</ele>
        <time>2021-04-25T10:35:47Z</time>
      </trkpt>
      <trkpt lat="43.66256" lon="5.22002">
        <ele>237.2</ele>
        <time>2021-04-25T10:35:54Z</time>
      </trkpt>
      <trkpt lat="43.6625" lon="5.22006">
        <ele>237</ele>
        <time>2021-04-25T10:35:55Z</time>
      </trkpt>
      <trkpt lat="43.66228" lon="5.22018">
        <ele>236</ele>
        <time>2021-04-25T10:35:59Z</time>
      </trkpt>
      <trkpt lat="43.66223" lon="5.22026">
        <ele>235.4</ele>
        <time>2021-04-25T10:36:02Z</time>
      </trkpt>
      <trkpt lat="43.66223" lon="5.22031">
        <ele>234.8</ele>
        <time>2021-04-25T10:36:05Z</time>
      </trkpt>
      <trkpt lat="43.66217" lon="5.22043">
        <ele>233.2</ele>
        <time>2021-04-25T10:36:10Z</time>
      </trkpt>
      <trkpt lat="43.66198" lon="5.22041">
        <ele>231.8</ele>
        <time>2021-04-25T10:36:15Z</time>
      </trkpt>
      <trkpt lat="43.66193" lon="5.22043">
        <ele>231.6</ele>
        <time>2021-04-25T10:36:16Z</time>
      </trkpt>
      <trkpt lat="43.6614" lon="5.22073">
        <ele>229</ele>
        <time>2021-04-25T10:36:26Z</time>
      </trkpt>
      <trkpt lat="43.66074" lon="5.22113">
        <ele>226.4</ele>
        <time>2021-04-25T10:36:40Z</time>
      </trkpt>
      <trkpt lat="43.66038" lon="5.22135">
        <ele>224.8</ele>
        <time>2021-04-25T10:36:47Z</time>
      </trkpt>
      <trkpt lat="43.65997" lon="5.22161">
        <ele>223.2</ele>
        <time>2021-04-25T10:36:55Z</time>
      </trkpt>
      <trkpt lat="43.6598" lon="5.22171">
        <ele>222.6</ele>
        <time>2021-04-25T10:36:58Z</time>
      </trkpt>
      <trkpt lat="43.65971" lon="5.22177">
        <ele>222.2</ele>
        <time>2021-04-25T10:37:00Z</time>
      </trkpt>
      <trkpt lat="43.65946" lon="5.22192">
        <ele>221.2</ele>
        <time>2021-04-25T10:37:05Z</time>
      </trkpt>
      <trkpt lat="43.65914" lon="5.22212">
        <ele>220.2</ele>
        <time>2021-04-25T10:37:11Z</time>
      </trkpt>
      <trkpt lat="43.65878" lon="5.22235">
        <ele>218.4</ele>
        <time>2021-04-25T10:37:16Z</time>
      </trkpt>
      <trkpt lat="43.6582" lon="5.22269">
        <ele>216</ele>
        <time>2021-04-25T10:37:23Z</time>
      </trkpt>
      <trkpt lat="43.65791" lon="5.22286">
        <ele>214.8</ele>
        <time>2021-04-25T10:37:28Z</time>
      </trkpt>
      <trkpt lat="43.65787" lon="5.22295">
        <ele>214.4</ele>
        <time>2021-04-25T10:37:30Z</time>
      </trkpt>
      <trkpt lat="43.65779" lon="5.223">
        <ele>213.4</ele>
        <time>2021-04-25T10:37:34Z</time>
      </trkpt>
      <trkpt lat="43.65776" lon="5.22293">
        <ele>212.4</ele>
        <time>2021-04-25T10:37:38Z</time>
      </trkpt>
      <trkpt lat="43.65776" lon="5.22288">
        <ele>212</ele>
        <time>2021-04-25T10:37:40Z</time>
      </trkpt>
      <trkpt lat="43.65775" lon="5.22283">
        <ele>211.6</ele>
        <time>2021-04-25T10:37:43Z</time>
      </trkpt>
      <trkpt lat="43.65766" lon="5.22285">
        <ele>210.2</ele>
        <time>2021-04-25T10:37:48Z</time>
      </trkpt>
      <trkpt lat="43.65756" lon="5.22292">
        <ele>209.6</ele>
        <time>2021-04-25T10:37:50Z</time>
      </trkpt>
      <trkpt lat="43.65725" lon="5.22304">
        <ele>209</ele>
        <time>2021-04-25T10:37:53Z</time>
      </trkpt>
      <trkpt lat="43.65661" lon="5.22333">
        <ele>206.6</ele>
        <time>2021-04-25T10:38:02Z</time>
      </trkpt>
      <trkpt lat="43.65657" lon="5.22338">
        <ele>206.2</ele>
        <time>2021-04-25T10:38:03Z</time>
      </trkpt>
      <trkpt lat="43.65652" lon="5.22358">
        <ele>205.4</ele>
        <time>2021-04-25T10:38:06Z</time>
      </trkpt>
      <trkpt lat="43.65649" lon="5.22381">
        <ele>204.6</ele>
        <time>2021-04-25T10:38:09Z</time>
      </trkpt>
      <trkpt lat="43.65647" lon="5.22387">
        <ele>204.4</ele>
        <time>2021-04-25T10:38:10Z</time>
      </trkpt>
      <trkpt lat="43.65636" lon="5.22397">
        <ele>203.6</ele>
        <time>2021-04-25T10:38:13Z</time>
      </trkpt>
      <trkpt lat="43.65613" lon="5.22422">
        <ele>202</ele>
        <time>2021-04-25T10:38:18Z</time>
      </trkpt>
      <trkpt lat="43.6558" lon="5.22432">
        <ele>200.2</ele>
        <time>2021-04-25T10:38:24Z</time>
      </trkpt>
      <trkpt lat="43.65575" lon="5.22434">
        <ele>200</ele>
        <time>2021-04-25T10:38:25Z</time>
      </trkpt>
      <trkpt lat="43.65543" lon="5.22445">
        <ele>198.4</ele>
        <time>2021-04-25T10:38:31Z</time>
      </trkpt>
      <trkpt lat="43.65505" lon="5.22459">
        <ele>196.6</ele>
        <time>2021-04-25T10:38:38Z</time>
      </trkpt>
      <trkpt lat="43.65493" lon="5.22464">
        <ele>196</ele>
        <time>2021-04-25T10:38:40Z</time>
      </trkpt>
      <trkpt lat="43.65476" lon="5.22468">
        <ele>195.2</ele>
        <time>2021-04-25T10:38:43Z</time>
      </trkpt>
      <trkpt lat="43.65415" lon="5.22472">
        <ele>192.2</ele>
        <time>2021-04-25T10:38:54Z</time>
      </trkpt>
      <trkpt lat="43.6541" lon="5.22474">
        <ele>191.8</ele>
        <time>2021-04-25T10:38:55Z</time>
      </trkpt>
      <trkpt lat="43.65394" lon="5.22477">
        <ele>191</ele>
        <time>2021-04-25T10:38:58Z</time>
      </trkpt>
      <trkpt lat="43.65364" lon="5.22483">
        <ele>189.8</ele>
        <time>2021-04-25T10:39:03Z</time>
      </trkpt>
      <trkpt lat="43.65348" lon="5.22485">
        <ele>189.2</ele>
        <time>2021-04-25T10:39:06Z</time>
      </trkpt>
      <trkpt lat="43.65326" lon="5.22485">
        <ele>188.4</ele>
        <time>2021-04-25T10:39:10Z</time>
      </trkpt>
      <trkpt lat="43.65301" lon="5.22488">
        <ele>187.6</ele>
        <time>2021-04-25T10:39:15Z</time>
      </trkpt>
      <trkpt lat="43.65291" lon="5.22491">
        <ele>187.2</ele>
        <time>2021-04-25T10:39:17Z</time>
      </trkpt>
      <trkpt lat="43.65261" lon="5.22514">
        <ele>185.6</ele>
        <time>2021-04-25T10:39:23Z</time>
      </trkpt>
      <trkpt lat="43.65227" lon="5.22531">
        <ele>184</ele>
        <time>2021-04-25T10:39:28Z</time>
      </trkpt>
      <trkpt lat="43.65204" lon="5.2254">
        <ele>182.6</ele>
        <time>2021-04-25T10:39:32Z</time>
      </trkpt>
      <trkpt lat="43.6518" lon="5.22549">
        <ele>181.2</ele>
        <time>2021-04-25T10:39:36Z</time>
      </trkpt>
      <trkpt lat="43.65157" lon="5.2256">
        <ele>180</ele>
        <time>2021-04-25T10:39:40Z</time>
      </trkpt>
      <trkpt lat="43.65149" lon="5.2257">
        <ele>179.4</ele>
        <time>2021-04-25T10:39:42Z</time>
      </trkpt>
      <trkpt lat="43.65147" lon="5.22619">
        <ele>177.8</ele>
        <time>2021-04-25T10:39:47Z</time>
      </trkpt>
      <trkpt lat="43.65143" lon="5.22648">
        <ele>177</ele>
        <time>2021-04-25T10:39:50Z</time>
      </trkpt>
      <trkpt lat="43.65138" lon="5.22654">
        <ele>176.6</ele>
        <time>2021-04-25T10:39:51Z</time>
      </trkpt>
      <trkpt lat="43.65117" lon="5.22653">
        <ele>175.8</ele>
        <time>2021-04-25T10:39:54Z</time>
      </trkpt>
      <trkpt lat="43.65096" lon="5.22643">
        <ele>174.6</ele>
        <time>2021-04-25T10:39:57Z</time>
      </trkpt>
      <trkpt lat="43.65089" lon="5.22644">
        <ele>174.2</ele>
        <time>2021-04-25T10:39:58Z</time>
      </trkpt>
      <trkpt lat="43.65078" lon="5.22659">
        <ele>173.6</ele>
        <time>2021-04-25T10:40:00Z</time>
      </trkpt>
      <trkpt lat="43.65073" lon="5.22688">
        <ele>172.6</ele>
        <time>2021-04-25T10:40:03Z</time>
      </trkpt>
      <trkpt lat="43.65072" lon="5.22704">
        <ele>172</ele>
        <time>2021-04-25T10:40:05Z</time>
      </trkpt>
      <trkpt lat="43.65059" lon="5.22721">
        <ele>170.6</ele>
        <time>2021-04-25T10:40:09Z</time>
      </trkpt>
      <trkpt lat="43.65048" lon="5.22725">
        <ele>170</ele>
        <time>2021-04-25T10:40:11Z</time>
      </trkpt>
      <trkpt lat="43.65036" lon="5.2273">
        <ele>169.2</ele>
        <time>2021-04-25T10:40:13Z</time>
      </trkpt>
      <trkpt lat="43.65026" lon="5.22738">
        <ele>168.4</ele>
        <time>2021-04-25T10:40:15Z</time>
      </trkpt>
      <trkpt lat="43.65012" lon="5.22732">
        <ele>166.8</ele>
        <time>2021-04-25T10:40:20Z</time>
      </trkpt>
      <trkpt lat="43.6501" lon="5.2272">
        <ele>166.2</ele>
        <time>2021-04-25T10:40:22Z</time>
      </trkpt>
      <trkpt lat="43.65006" lon="5.22669">
        <ele>164.2</ele>
        <time>2021-04-25T10:40:29Z</time>
      </trkpt>
      <trkpt lat="43.64999" lon="5.22658">
        <ele>163.6</ele>
        <time>2021-04-25T10:40:31Z</time>
      </trkpt>
      <trkpt lat="43.64986" lon="5.22653">
        <ele>163</ele>
        <time>2021-04-25T10:40:33Z</time>
      </trkpt>
      <trkpt lat="43.64924" lon="5.2264">
        <ele>161</ele>
        <time>2021-04-25T10:40:42Z</time>
      </trkpt>
      <trkpt lat="43.64906" lon="5.22647">
        <ele>160.4</ele>
        <time>2021-04-25T10:40:45Z</time>
      </trkpt>
      <trkpt lat="43.6489" lon="5.22659">
        <ele>159.8</ele>
        <time>2021-04-25T10:40:48Z</time>
      </trkpt>
      <trkpt lat="43.64867" lon="5.22684">
        <ele>158.8</ele>
        <time>2021-04-25T10:40:53Z</time>
      </trkpt>
      <trkpt lat="43.64843" lon="5.22714">
        <ele>157.8</ele>
        <time>2021-04-25T10:40:59Z</time>
      </trkpt>
      <trkpt lat="43.64828" lon="5.22735">
        <ele>157.2</ele>
        <time>2021-04-25T10:41:03Z</time>
      </trkpt>
      <trkpt lat="43.648" lon="5.22759">
        <ele>156.2</ele>
        <time>2021-04-25T10:41:10Z</time>
      </trkpt>
      <trkpt lat="43.64769" lon="5.22779">
        <ele>155.4</ele>
        <time>2021-04-25T10:41:16Z</time>
      </trkpt>
      <trkpt lat="43.6475" lon="5.22794">
        <ele>154.8</ele>
        <time>2021-04-25T10:41:20Z</time>
      </trkpt>
      <trkpt lat="43.64724" lon="5.22809">
        <ele>154.2</ele>
        <time>2021-04-25T10:41:25Z</time>
      </trkpt>
      <trkpt lat="43.64681" lon="5.22818">
        <ele>153.2</ele>
        <time>2021-04-25T10:41:34Z</time>
      </trkpt>
      <trkpt lat="43.64664" lon="5.2282">
        <ele>152.8</ele>
        <time>2021-04-25T10:41:38Z</time>
      </trkpt>
      <trkpt lat="43.64649" lon="5.22824">
        <ele>152.4</ele>
        <time>2021-04-25T10:41:43Z</time>
      </trkpt>
      <trkpt lat="43.64611" lon="5.22822">
        <ele>152.4</ele>
        <time>2021-04-25T10:41:54Z</time>
      </trkpt>
      <trkpt lat="43.64577" lon="5.22839">
        <ele>153</ele>
        <time>2021-04-25T10:42:06Z</time>
      </trkpt>
      <trkpt lat="43.64563" lon="5.22841">
        <ele>153.8</ele>
        <time>2021-04-25T10:42:13Z</time>
      </trkpt>
      <trkpt lat="43.64527" lon="5.22836">
        <ele>156.4</ele>
        <time>2021-04-25T10:42:28Z</time>
      </trkpt>
      <trkpt lat="43.64499" lon="5.22848">
        <ele>158.4</ele>
        <time>2021-04-25T10:42:40Z</time>
      </trkpt>
      <trkpt lat="43.64485" lon="5.22862">
        <ele>159.6</ele>
        <time>2021-04-25T10:42:47Z</time>
      </trkpt>
      <trkpt lat="43.64465" lon="5.22896">
        <ele>161.6</ele>
        <time>2021-04-25T10:42:58Z</time>
      </trkpt>
      <trkpt lat="43.64443" lon="5.22935">
        <ele>163.2</ele>
        <time>2021-04-25T10:43:09Z</time>
      </trkpt>
      <trkpt lat="43.64438" lon="5.2295">
        <ele>163.6</ele>
        <time>2021-04-25T10:43:13Z</time>
      </trkpt>
      <trkpt lat="43.64442" lon="5.23002">
        <ele>165</ele>
        <time>2021-04-25T10:43:25Z</time>
      </trkpt>
      <trkpt lat="43.64442" lon="5.23006">
        <ele>166.6</ele>
        <time>2021-04-25T10:43:43Z</time>
      </trkpt>
      <trkpt lat="43.64443" lon="5.23007">
        <ele>167.6</ele>
        <time>2021-04-25T10:43:56Z</time>
      </trkpt>
      <trkpt lat="43.64445" lon="5.23017">
        <ele>168</ele>
        <time>2021-04-25T10:44:01Z</time>
      </trkpt>
      <trkpt lat="43.6445" lon="5.23061">
        <ele>168.6</ele>
        <time>2021-04-25T10:44:12Z</time>
      </trkpt>
      <trkpt lat="43.64457" lon="5.23099">
        <ele>168.8</ele>
        <time>2021-04-25T10:44:19Z</time>
      </trkpt>
      <trkpt lat="43.64461" lon="5.2313">
        <ele>169</ele>
        <time>2021-04-25T10:44:24Z</time>
      </trkpt>
      <trkpt lat="43.64458" lon="5.23171">
        <ele>169.2</ele>
        <time>2021-04-25T10:44:30Z</time>
      </trkpt>
      <trkpt lat="43.64451" lon="5.23201">
        <ele>169.4</ele>
        <time>2021-04-25T10:44:35Z</time>
      </trkpt>
      <trkpt lat="43.64442" lon="5.23267">
        <ele>169.6</ele>
        <time>2021-04-25T10:44:45Z</time>
      </trkpt>
      <trkpt lat="43.64431" lon="5.23306">
        <ele>169.8</ele>
        <time>2021-04-25T10:44:51Z</time>
      </trkpt>
      <trkpt lat="43.6443" lon="5.23312">
        <ele>169.6</ele>
        <time>2021-04-25T10:44:52Z</time>
      </trkpt>
      <trkpt lat="43.64416" lon="5.23359">
        <ele>169.2</ele>
        <time>2021-04-25T10:44:59Z</time>
      </trkpt>
      <trkpt lat="43.64409" lon="5.23375">
        <ele>169.4</ele>
        <time>2021-04-25T10:45:02Z</time>
      </trkpt>
      <trkpt lat="43.64395" lon="5.23399">
        <ele>169.6</ele>
        <time>2021-04-25T10:45:07Z</time>
      </trkpt>
      <trkpt lat="43.64376" lon="5.23457">
        <ele>170.2</ele>
        <time>2021-04-25T10:45:17Z</time>
      </trkpt>
      <trkpt lat="43.6435" lon="5.23526">
        <ele>170.8</ele>
        <time>2021-04-25T10:45:28Z</time>
      </trkpt>
      <trkpt lat="43.64334" lon="5.23569">
        <ele>171.2</ele>
        <time>2021-04-25T10:45:35Z</time>
      </trkpt>
      <trkpt lat="43.64331" lon="5.23603">
        <ele>171.6</ele>
        <time>2021-04-25T10:45:40Z</time>
      </trkpt>
      <trkpt lat="43.64324" lon="5.23633">
        <ele>172</ele>
        <time>2021-04-25T10:45:45Z</time>
      </trkpt>
      <trkpt lat="43.64311" lon="5.23672">
        <ele>172.2</ele>
        <time>2021-04-25T10:45:52Z</time>
      </trkpt>
      <trkpt lat="43.64295" lon="5.23711">
        <ele>173.2</ele>
        <time>2021-04-25T10:46:01Z</time>
      </trkpt>
      <trkpt lat="43.64283" lon="5.23769">
        <ele>174.6</ele>
        <time>2021-04-25T10:46:15Z</time>
      </trkpt>
      <trkpt lat="43.64285" lon="5.23798">
        <ele>175.6</ele>
        <time>2021-04-25T10:46:22Z</time>
      </trkpt>
      <trkpt lat="43.64301" lon="5.23853">
        <ele>177.2</ele>
        <time>2021-04-25T10:46:34Z</time>
      </trkpt>
      <trkpt lat="43.64309" lon="5.23917">
        <ele>179</ele>
        <time>2021-04-25T10:46:47Z</time>
      </trkpt>
      <trkpt lat="43.6431" lon="5.23942">
        <ele>179.2</ele>
        <time>2021-04-25T10:46:51Z</time>
      </trkpt>
      <trkpt lat="43.64311" lon="5.23981">
        <ele>179.8</ele>
        <time>2021-04-25T10:46:56Z</time>
      </trkpt>
      <trkpt lat="43.64313" lon="5.24002">
        <ele>180</ele>
        <time>2021-04-25T10:46:59Z</time>
      </trkpt>
      <trkpt lat="43.64316" lon="5.24015">
        <ele>180.2</ele>
        <time>2021-04-25T10:47:01Z</time>
      </trkpt>
      <trkpt lat="43.64319" lon="5.24043">
        <ele>180.8</ele>
        <time>2021-04-25T10:47:05Z</time>
      </trkpt>
      <trkpt lat="43.64316" lon="5.24063">
        <ele>181.2</ele>
        <time>2021-04-25T10:47:08Z</time>
      </trkpt>
      <trkpt lat="43.64312" lon="5.24069">
        <ele>181.2</ele>
        <time>2021-04-25T10:47:09Z</time>
      </trkpt>
      <trkpt lat="43.64273" lon="5.24107">
        <ele>182.2</ele>
        <time>2021-04-25T10:47:18Z</time>
      </trkpt>
      <trkpt lat="43.64257" lon="5.24129">
        <ele>182.6</ele>
        <time>2021-04-25T10:47:23Z</time>
      </trkpt>
      <trkpt lat="43.64251" lon="5.24139">
        <ele>182.6</ele>
        <time>2021-04-25T10:47:25Z</time>
      </trkpt>
      <trkpt lat="43.64232" lon="5.24173">
        <ele>183</ele>
        <time>2021-04-25T10:47:33Z</time>
      </trkpt>
      <trkpt lat="43.64228" lon="5.24184">
        <ele>183.4</ele>
        <time>2021-04-25T10:47:39Z</time>
      </trkpt>
      <trkpt lat="43.64228" lon="5.24195">
        <ele>183.4</ele>
        <time>2021-04-25T10:47:42Z</time>
      </trkpt>
      <trkpt lat="43.64227" lon="5.24201">
        <ele>183.4</ele>
        <time>2021-04-25T10:47:43Z</time>
      </trkpt>
      <trkpt lat="43.64225" lon="5.2423">
        <ele>183.2</ele>
        <time>2021-04-25T10:47:47Z</time>
      </trkpt>
      <trkpt lat="43.64218" lon="5.2426">
        <ele>183.8</ele>
        <time>2021-04-25T10:47:51Z</time>
      </trkpt>
      <trkpt lat="43.64217" lon="5.24268">
        <ele>183.6</ele>
        <time>2021-04-25T10:47:52Z</time>
      </trkpt>
      <trkpt lat="43.64214" lon="5.24307">
        <ele>182.8</ele>
        <time>2021-04-25T10:47:57Z</time>
      </trkpt>
      <trkpt lat="43.64213" lon="5.2433">
        <ele>183</ele>
        <time>2021-04-25T10:48:00Z</time>
      </trkpt>
      <trkpt lat="43.64213" lon="5.24338">
        <ele>183</ele>
        <time>2021-04-25T10:48:01Z</time>
      </trkpt>
      <trkpt lat="43.64208" lon="5.24369">
        <ele>183</ele>
        <time>2021-04-25T10:48:05Z</time>
      </trkpt>
      <trkpt lat="43.64214" lon="5.24394">
        <ele>182.8</ele>
        <time>2021-04-25T10:48:08Z</time>
      </trkpt>
      <trkpt lat="43.64213" lon="5.24416">
        <ele>182.6</ele>
        <time>2021-04-25T10:48:11Z</time>
      </trkpt>
      <trkpt lat="43.64206" lon="5.24459">
        <ele>182.4</ele>
        <time>2021-04-25T10:48:17Z</time>
      </trkpt>
      <trkpt lat="43.642" lon="5.24477">
        <ele>182.4</ele>
        <time>2021-04-25T10:48:19Z</time>
      </trkpt>
      <trkpt lat="43.64198" lon="5.24492">
        <ele>182.4</ele>
        <time>2021-04-25T10:48:21Z</time>
      </trkpt>
      <trkpt lat="43.642" lon="5.24519">
        <ele>182.6</ele>
        <time>2021-04-25T10:48:25Z</time>
      </trkpt>
      <trkpt lat="43.64198" lon="5.24551">
        <ele>182.4</ele>
        <time>2021-04-25T10:48:29Z</time>
      </trkpt>
      <trkpt lat="43.64199" lon="5.24566">
        <ele>182.6</ele>
        <time>2021-04-25T10:48:31Z</time>
      </trkpt>
      <trkpt lat="43.64197" lon="5.2458">
        <ele>182.6</ele>
        <time>2021-04-25T10:48:33Z</time>
      </trkpt>
      <trkpt lat="43.64197" lon="5.24599">
        <ele>182.6</ele>
        <time>2021-04-25T10:48:36Z</time>
      </trkpt>
      <trkpt lat="43.64197" lon="5.24617">
        <ele>182.4</ele>
        <time>2021-04-25T10:48:39Z</time>
      </trkpt>
      <trkpt lat="43.64196" lon="5.24632">
        <ele>182.4</ele>
        <time>2021-04-25T10:48:41Z</time>
      </trkpt>
      <trkpt lat="43.64203" lon="5.24657">
        <ele>182.2</ele>
        <time>2021-04-25T10:48:45Z</time>
      </trkpt>
      <trkpt lat="43.64202" lon="5.2466">
        <ele>182.2</ele>
        <time>2021-04-25T10:48:46Z</time>
      </trkpt>
      <trkpt lat="43.64198" lon="5.2469">
        <ele>182</ele>
        <time>2021-04-25T10:48:52Z</time>
      </trkpt>
      <trkpt lat="43.64196" lon="5.24729">
        <ele>182</ele>
        <time>2021-04-25T10:48:58Z</time>
      </trkpt>
      <trkpt lat="43.64198" lon="5.24746">
        <ele>182</ele>
        <time>2021-04-25T10:49:01Z</time>
      </trkpt>
      <trkpt lat="43.64198" lon="5.24762">
        <ele>182</ele>
        <time>2021-04-25T10:49:04Z</time>
      </trkpt>
      <trkpt lat="43.64195" lon="5.2477">
        <ele>182</ele>
        <time>2021-04-25T10:49:06Z</time>
      </trkpt>
      <trkpt lat="43.64195" lon="5.24781">
        <ele>182</ele>
        <time>2021-04-25T10:49:08Z</time>
      </trkpt>
      <trkpt lat="43.64197" lon="5.24807">
        <ele>182.4</ele>
        <time>2021-04-25T10:49:13Z</time>
      </trkpt>
      <trkpt lat="43.64203" lon="5.24834">
        <ele>182.6</ele>
        <time>2021-04-25T10:49:22Z</time>
      </trkpt>
      <trkpt lat="43.64203" lon="5.24838">
        <ele>182.8</ele>
        <time>2021-04-25T10:49:23Z</time>
      </trkpt>
      <trkpt lat="43.64203" lon="5.24877">
        <ele>183.4</ele>
        <time>2021-04-25T10:49:34Z</time>
      </trkpt>
      <trkpt lat="43.64194" lon="5.24922">
        <ele>183.4</ele>
        <time>2021-04-25T10:49:43Z</time>
      </trkpt>
      <trkpt lat="43.64193" lon="5.24935">
        <ele>183.4</ele>
        <time>2021-04-25T10:49:46Z</time>
      </trkpt>
      <trkpt lat="43.64193" lon="5.24944">
        <ele>183.4</ele>
        <time>2021-04-25T10:49:48Z</time>
      </trkpt>
      <trkpt lat="43.64185" lon="5.24985">
        <ele>183.8</ele>
        <time>2021-04-25T10:49:56Z</time>
      </trkpt>
      <trkpt lat="43.64186" lon="5.25016">
        <ele>184.2</ele>
        <time>2021-04-25T10:50:02Z</time>
      </trkpt>
      <trkpt lat="43.64218" lon="5.25085">
        <ele>185</ele>
        <time>2021-04-25T10:50:16Z</time>
      </trkpt>
      <trkpt lat="43.64238" lon="5.25108">
        <ele>185</ele>
        <time>2021-04-25T10:50:21Z</time>
      </trkpt>
      <trkpt lat="43.64249" lon="5.25123">
        <ele>185.2</ele>
        <time>2021-04-25T10:50:24Z</time>
      </trkpt>
      <trkpt lat="43.64278" lon="5.25149">
        <ele>186</ele>
        <time>2021-04-25T10:50:33Z</time>
      </trkpt>
      <trkpt lat="43.64305" lon="5.25197">
        <ele>187.2</ele>
        <time>2021-04-25T10:50:46Z</time>
      </trkpt>
      <trkpt lat="43.64313" lon="5.25223">
        <ele>187.8</ele>
        <time>2021-04-25T10:50:52Z</time>
      </trkpt>
      <trkpt lat="43.64346" lon="5.25269">
        <ele>189.6</ele>
        <time>2021-04-25T10:51:05Z</time>
      </trkpt>
      <trkpt lat="43.6439" lon="5.25312">
        <ele>191.2</ele>
        <time>2021-04-25T10:51:19Z</time>
      </trkpt>
      <trkpt lat="43.64404" lon="5.25335">
        <ele>192.2</ele>
        <time>2021-04-25T10:51:26Z</time>
      </trkpt>
      <trkpt lat="43.64448" lon="5.25387">
        <ele>194.6</ele>
        <time>2021-04-25T10:51:44Z</time>
      </trkpt>
      <trkpt lat="43.64483" lon="5.25439">
        <ele>197</ele>
        <time>2021-04-25T10:52:02Z</time>
      </trkpt>
      <trkpt lat="43.64497" lon="5.25462">
        <ele>198.2</ele>
        <time>2021-04-25T10:52:11Z</time>
      </trkpt>
      <trkpt lat="43.64519" lon="5.25502">
        <ele>200</ele>
        <time>2021-04-25T10:52:25Z</time>
      </trkpt>
      <trkpt lat="43.64543" lon="5.25556">
        <ele>202.2</ele>
        <time>2021-04-25T10:52:40Z</time>
      </trkpt>
      <trkpt lat="43.64576" lon="5.25589">
        <ele>204</ele>
        <time>2021-04-25T10:52:52Z</time>
      </trkpt>
      <trkpt lat="43.64601" lon="5.2561">
        <ele>205.2</ele>
        <time>2021-04-25T10:53:00Z</time>
      </trkpt>
      <trkpt lat="43.64649" lon="5.2566">
        <ele>207.4</ele>
        <time>2021-04-25T10:53:16Z</time>
      </trkpt>
      <trkpt lat="43.64689" lon="5.25724">
        <ele>209.2</ele>
        <time>2021-04-25T10:53:31Z</time>
      </trkpt>
      <trkpt lat="43.64716" lon="5.25773">
        <ele>210.4</ele>
        <time>2021-04-25T10:53:40Z</time>
      </trkpt>
      <trkpt lat="43.64762" lon="5.25857">
        <ele>212.2</ele>
        <time>2021-04-25T10:53:56Z</time>
      </trkpt>
      <trkpt lat="43.64785" lon="5.2592">
        <ele>213.6</ele>
        <time>2021-04-25T10:54:07Z</time>
      </trkpt>
      <trkpt lat="43.64793" lon="5.25952">
        <ele>214.2</ele>
        <time>2021-04-25T10:54:12Z</time>
      </trkpt>
      <trkpt lat="43.64816" lon="5.26049">
        <ele>215.8</ele>
        <time>2021-04-25T10:54:27Z</time>
      </trkpt>
      <trkpt lat="43.64815" lon="5.26105">
        <ele>216.8</ele>
        <time>2021-04-25T10:54:35Z</time>
      </trkpt>
      <trkpt lat="43.64811" lon="5.26117">
        <ele>217</ele>
        <time>2021-04-25T10:54:37Z</time>
      </trkpt>
      <trkpt lat="43.64786" lon="5.26152">
        <ele>217.6</ele>
        <time>2021-04-25T10:54:44Z</time>
      </trkpt>
      <trkpt lat="43.64773" lon="5.26198">
        <ele>218.6</ele>
        <time>2021-04-25T10:54:54Z</time>
      </trkpt>
      <trkpt lat="43.64784" lon="5.26212">
        <ele>218.8</ele>
        <time>2021-04-25T10:54:58Z</time>
      </trkpt>
      <trkpt lat="43.64792" lon="5.26222">
        <ele>219.6</ele>
        <time>2021-04-25T10:55:08Z</time>
      </trkpt>
      <trkpt lat="43.64792" lon="5.26222">
        <ele>221.4</ele>
        <time>2021-04-25T10:55:34Z</time>
      </trkpt>
      <trkpt lat="43.64792" lon="5.26222">
        <ele>222</ele>
        <time>2021-04-25T10:55:47Z</time>
      </trkpt>
      <trkpt lat="43.64792" lon="5.26222">
        <ele>223</ele>
        <time>2021-04-25T10:56:11Z</time>
      </trkpt>
      <trkpt lat="43.64792" lon="5.26223">
        <ele>224</ele>
        <time>2021-04-25T10:56:37Z</time>
      </trkpt>
      <trkpt lat="43.64792" lon="5.26223">
        <ele>224.2</ele>
        <time>2021-04-25T10:56:47Z</time>
      </trkpt>
      <trkpt lat="43.64797" lon="5.26229">
        <ele>224.4</ele>
        <time>2021-04-25T10:56:55Z</time>
      </trkpt>
      <trkpt lat="43.64804" lon="5.26239">
        <ele>224.4</ele>
        <time>2021-04-25T10:57:03Z</time>
      </trkpt>
      <trkpt lat="43.64808" lon="5.26244">
        <ele>224.6</ele>
        <time>2021-04-25T10:57:05Z</time>
      </trkpt>
      <trkpt lat="43.64841" lon="5.26287">
        <ele>225</ele>
        <time>2021-04-25T10:57:17Z</time>
      </trkpt>
      <trkpt lat="43.64854" lon="5.2632">
        <ele>225.2</ele>
        <time>2021-04-25T10:57:23Z</time>
      </trkpt>
      <trkpt lat="43.64863" lon="5.26352">
        <ele>225.2</ele>
        <time>2021-04-25T10:57:28Z</time>
      </trkpt>
      <trkpt lat="43.64871" lon="5.26382">
        <ele>225.4</ele>
        <time>2021-04-25T10:57:33Z</time>
      </trkpt>
      <trkpt lat="43.6487" lon="5.26406">
        <ele>225.6</ele>
        <time>2021-04-25T10:57:37Z</time>
      </trkpt>
      <trkpt lat="43.64866" lon="5.26417">
        <ele>225.6</ele>
        <time>2021-04-25T10:57:39Z</time>
      </trkpt>
      <trkpt lat="43.64863" lon="5.26445">
        <ele>225.8</ele>
        <time>2021-04-25T10:57:44Z</time>
      </trkpt>
      <trkpt lat="43.64868" lon="5.26475">
        <ele>226</ele>
        <time>2021-04-25T10:57:49Z</time>
      </trkpt>
      <trkpt lat="43.64864" lon="5.26486">
        <ele>226.2</ele>
        <time>2021-04-25T10:57:51Z</time>
      </trkpt>
      <trkpt lat="43.6484" lon="5.26501">
        <ele>226.4</ele>
        <time>2021-04-25T10:57:57Z</time>
      </trkpt>
      <trkpt lat="43.64818" lon="5.26512">
        <ele>226.6</ele>
        <time>2021-04-25T10:58:02Z</time>
      </trkpt>
      <trkpt lat="43.64814" lon="5.26515">
        <ele>226.6</ele>
        <time>2021-04-25T10:58:03Z</time>
      </trkpt>
      <trkpt lat="43.64779" lon="5.2655">
        <ele>226.6</ele>
        <time>2021-04-25T10:58:14Z</time>
      </trkpt>
      <trkpt lat="43.64739" lon="5.26602">
        <ele>225.2</ele>
        <time>2021-04-25T10:58:26Z</time>
      </trkpt>
      <trkpt lat="43.64735" lon="5.26607">
        <ele>225</ele>
        <time>2021-04-25T10:58:27Z</time>
      </trkpt>
      <trkpt lat="43.64691" lon="5.26663">
        <ele>223.6</ele>
        <time>2021-04-25T10:58:36Z</time>
      </trkpt>
      <trkpt lat="43.64624" lon="5.26745">
        <ele>221.4</ele>
        <time>2021-04-25T10:58:49Z</time>
      </trkpt>
      <trkpt lat="43.64589" lon="5.26788">
        <ele>220</ele>
        <time>2021-04-25T10:58:56Z</time>
      </trkpt>
      <trkpt lat="43.64554" lon="5.26831">
        <ele>218.6</ele>
        <time>2021-04-25T10:59:04Z</time>
      </trkpt>
      <trkpt lat="43.64545" lon="5.26847">
        <ele>218</ele>
        <time>2021-04-25T10:59:07Z</time>
      </trkpt>
      <trkpt lat="43.64541" lon="5.2686">
        <ele>217.8</ele>
        <time>2021-04-25T10:59:09Z</time>
      </trkpt>
      <trkpt lat="43.64531" lon="5.26876">
        <ele>217.2</ele>
        <time>2021-04-25T10:59:12Z</time>
      </trkpt>
      <trkpt lat="43.64472" lon="5.2695">
        <ele>215.2</ele>
        <time>2021-04-25T10:59:24Z</time>
      </trkpt>
      <trkpt lat="43.64433" lon="5.27007">
        <ele>214</ele>
        <time>2021-04-25T10:59:31Z</time>
      </trkpt>
      <trkpt lat="43.64381" lon="5.27115">
        <ele>212</ele>
        <time>2021-04-25T10:59:42Z</time>
      </trkpt>
      <trkpt lat="43.64312" lon="5.27211">
        <ele>210</ele>
        <time>2021-04-25T10:59:54Z</time>
      </trkpt>
      <trkpt lat="43.64227" lon="5.27296">
        <ele>207.8</ele>
        <time>2021-04-25T11:00:07Z</time>
      </trkpt>
      <trkpt lat="43.64197" lon="5.27315">
        <ele>207.4</ele>
        <time>2021-04-25T11:00:12Z</time>
      </trkpt>
      <trkpt lat="43.6413" lon="5.2736">
        <ele>206.6</ele>
        <time>2021-04-25T11:00:27Z</time>
      </trkpt>
      <trkpt lat="43.64098" lon="5.274">
        <ele>206.6</ele>
        <time>2021-04-25T11:00:38Z</time>
      </trkpt>
      <trkpt lat="43.64081" lon="5.27422">
        <ele>206.6</ele>
        <time>2021-04-25T11:00:44Z</time>
      </trkpt>
      <trkpt lat="43.6406" lon="5.27448">
        <ele>206.8</ele>
        <time>2021-04-25T11:00:51Z</time>
      </trkpt>
      <trkpt lat="43.64042" lon="5.27462">
        <ele>206.6</ele>
        <time>2021-04-25T11:00:56Z</time>
      </trkpt>
      <trkpt lat="43.64029" lon="5.27472">
        <ele>206.6</ele>
        <time>2021-04-25T11:00:59Z</time>
      </trkpt>
      <trkpt lat="43.63996" lon="5.27495">
        <ele>206.4</ele>
        <time>2021-04-25T11:01:05Z</time>
      </trkpt>
      <trkpt lat="43.63976" lon="5.275">
        <ele>206.2</ele>
        <time>2021-04-25T11:01:08Z</time>
      </trkpt>
      <trkpt lat="43.63953" lon="5.27504">
        <ele>206</ele>
        <time>2021-04-25T11:01:12Z</time>
      </trkpt>
      <trkpt lat="43.63946" lon="5.27519">
        <ele>205.6</ele>
        <time>2021-04-25T11:01:16Z</time>
      </trkpt>
      <trkpt lat="43.63934" lon="5.2753">
        <ele>205</ele>
        <time>2021-04-25T11:01:19Z</time>
      </trkpt>
      <trkpt lat="43.63909" lon="5.27561">
        <ele>204.2</ele>
        <time>2021-04-25T11:01:24Z</time>
      </trkpt>
      <trkpt lat="43.63893" lon="5.2758">
        <ele>203.8</ele>
        <time>2021-04-25T11:01:27Z</time>
      </trkpt>
      <trkpt lat="43.63853" lon="5.27616">
        <ele>202.6</ele>
        <time>2021-04-25T11:01:34Z</time>
      </trkpt>
      <trkpt lat="43.63823" lon="5.2764">
        <ele>201.6</ele>
        <time>2021-04-25T11:01:38Z</time>
      </trkpt>
      <trkpt lat="43.6373" lon="5.27704">
        <ele>198.6</ele>
        <time>2021-04-25T11:01:50Z</time>
      </trkpt>
      <trkpt lat="43.63685" lon="5.27748">
        <ele>197</ele>
        <time>2021-04-25T11:01:58Z</time>
      </trkpt>
      <trkpt lat="43.63674" lon="5.27751">
        <ele>196.8</ele>
        <time>2021-04-25T11:02:00Z</time>
      </trkpt>
      <trkpt lat="43.63654" lon="5.27756">
        <ele>196</ele>
        <time>2021-04-25T11:02:04Z</time>
      </trkpt>
      <trkpt lat="43.63632" lon="5.27784">
        <ele>195</ele>
        <time>2021-04-25T11:02:09Z</time>
      </trkpt>
      <trkpt lat="43.6361" lon="5.27814">
        <ele>194</ele>
        <time>2021-04-25T11:02:13Z</time>
      </trkpt>
      <trkpt lat="43.63567" lon="5.27855">
        <ele>192.2</ele>
        <time>2021-04-25T11:02:21Z</time>
      </trkpt>
      <trkpt lat="43.63558" lon="5.27872">
        <ele>191.6</ele>
        <time>2021-04-25T11:02:24Z</time>
      </trkpt>
      <trkpt lat="43.63552" lon="5.27875">
        <ele>191.4</ele>
        <time>2021-04-25T11:02:25Z</time>
      </trkpt>
      <trkpt lat="43.63529" lon="5.27874">
        <ele>190.6</ele>
        <time>2021-04-25T11:02:29Z</time>
      </trkpt>
      <trkpt lat="43.63508" lon="5.27871">
        <ele>189.8</ele>
        <time>2021-04-25T11:02:33Z</time>
      </trkpt>
      <trkpt lat="43.63503" lon="5.27874">
        <ele>189.6</ele>
        <time>2021-04-25T11:02:34Z</time>
      </trkpt>
      <trkpt lat="43.63463" lon="5.27892">
        <ele>188.2</ele>
        <time>2021-04-25T11:02:41Z</time>
      </trkpt>
      <trkpt lat="43.63454" lon="5.279">
        <ele>188</ele>
        <time>2021-04-25T11:02:44Z</time>
      </trkpt>
      <trkpt lat="43.63446" lon="5.27909">
        <ele>187.6</ele>
        <time>2021-04-25T11:02:46Z</time>
      </trkpt>
      <trkpt lat="43.63431" lon="5.27932">
        <ele>187</ele>
        <time>2021-04-25T11:02:50Z</time>
      </trkpt>
      <trkpt lat="43.63402" lon="5.2797">
        <ele>186</ele>
        <time>2021-04-25T11:02:58Z</time>
      </trkpt>
      <trkpt lat="43.63384" lon="5.27985">
        <ele>185.4</ele>
        <time>2021-04-25T11:03:02Z</time>
      </trkpt>
      <trkpt lat="43.6336" lon="5.28004">
        <ele>184.8</ele>
        <time>2021-04-25T11:03:08Z</time>
      </trkpt>
      <trkpt lat="43.63332" lon="5.28015">
        <ele>184.2</ele>
        <time>2021-04-25T11:03:14Z</time>
      </trkpt>
      <trkpt lat="43.63319" lon="5.28022">
        <ele>183.8</ele>
        <time>2021-04-25T11:03:17Z</time>
      </trkpt>
      <trkpt lat="43.63303" lon="5.28037">
        <ele>183.4</ele>
        <time>2021-04-25T11:03:21Z</time>
      </trkpt>
      <trkpt lat="43.63287" lon="5.28055">
        <ele>183</ele>
        <time>2021-04-25T11:03:26Z</time>
      </trkpt>
      <trkpt lat="43.63282" lon="5.28065">
        <ele>182.8</ele>
        <time>2021-04-25T11:03:28Z</time>
      </trkpt>
      <trkpt lat="43.63271" lon="5.2813">
        <ele>182.4</ele>
        <time>2021-04-25T11:03:39Z</time>
      </trkpt>
      <trkpt lat="43.63264" lon="5.28166">
        <ele>182</ele>
        <time>2021-04-25T11:03:45Z</time>
      </trkpt>
      <trkpt lat="43.63254" lon="5.28197">
        <ele>181.8</ele>
        <time>2021-04-25T11:03:50Z</time>
      </trkpt>
      <trkpt lat="43.63243" lon="5.28257">
        <ele>181.6</ele>
        <time>2021-04-25T11:03:59Z</time>
      </trkpt>
      <trkpt lat="43.63238" lon="5.28275">
        <ele>181.4</ele>
        <time>2021-04-25T11:04:02Z</time>
      </trkpt>
      <trkpt lat="43.63235" lon="5.2828">
        <ele>181.4</ele>
        <time>2021-04-25T11:04:03Z</time>
      </trkpt>
      <trkpt lat="43.63212" lon="5.28309">
        <ele>181.4</ele>
        <time>2021-04-25T11:04:09Z</time>
      </trkpt>
      <trkpt lat="43.6317" lon="5.28347">
        <ele>181</ele>
        <time>2021-04-25T11:04:19Z</time>
      </trkpt>
      <trkpt lat="43.63128" lon="5.28386">
        <ele>180.6</ele>
        <time>2021-04-25T11:04:30Z</time>
      </trkpt>
      <trkpt lat="43.63125" lon="5.28389">
        <ele>180.8</ele>
        <time>2021-04-25T11:04:31Z</time>
      </trkpt>
      <trkpt lat="43.63097" lon="5.2841">
        <ele>180.8</ele>
        <time>2021-04-25T11:04:40Z</time>
      </trkpt>
      <trkpt lat="43.63072" lon="5.28442">
        <ele>180.8</ele>
        <time>2021-04-25T11:04:51Z</time>
      </trkpt>
      <trkpt lat="43.63054" lon="5.28467">
        <ele>180.6</ele>
        <time>2021-04-25T11:04:59Z</time>
      </trkpt>
      <trkpt lat="43.63017" lon="5.28518">
        <ele>180.8</ele>
        <time>2021-04-25T11:05:14Z</time>
      </trkpt>
      <trkpt lat="43.6298" lon="5.28567">
        <ele>181.2</ele>
        <time>2021-04-25T11:05:29Z</time>
      </trkpt>
      <trkpt lat="43.62963" lon="5.28587">
        <ele>181.2</ele>
        <time>2021-04-25T11:05:35Z</time>
      </trkpt>
      <trkpt lat="43.62936" lon="5.28644">
        <ele>182</ele>
        <time>2021-04-25T11:05:49Z</time>
      </trkpt>
      <trkpt lat="43.62918" lon="5.28686">
        <ele>182.8</ele>
        <time>2021-04-25T11:06:00Z</time>
      </trkpt>
      <trkpt lat="43.62904" lon="5.28714">
        <ele>183.2</ele>
        <time>2021-04-25T11:06:07Z</time>
      </trkpt>
      <trkpt lat="43.62879" lon="5.28754">
        <ele>184</ele>
        <time>2021-04-25T11:06:20Z</time>
      </trkpt>
      <trkpt lat="43.62852" lon="5.288">
        <ele>185</ele>
        <time>2021-04-25T11:06:34Z</time>
      </trkpt>
      <trkpt lat="43.62846" lon="5.28813">
        <ele>185.4</ele>
        <time>2021-04-25T11:06:38Z</time>
      </trkpt>
      <trkpt lat="43.62815" lon="5.28864">
        <ele>186.4</ele>
        <time>2021-04-25T11:06:54Z</time>
      </trkpt>
      <trkpt lat="43.62779" lon="5.28888">
        <ele>187.4</ele>
        <time>2021-04-25T11:07:07Z</time>
      </trkpt>
      <trkpt lat="43.62757" lon="5.28899">
        <ele>188.2</ele>
        <time>2021-04-25T11:07:15Z</time>
      </trkpt>
      <trkpt lat="43.62726" lon="5.28928">
        <ele>189.2</ele>
        <time>2021-04-25T11:07:27Z</time>
      </trkpt>
      <trkpt lat="43.62695" lon="5.28956">
        <ele>190.4</ele>
        <time>2021-04-25T11:07:40Z</time>
      </trkpt>
      <trkpt lat="43.62675" lon="5.28973">
        <ele>191</ele>
        <time>2021-04-25T11:07:48Z</time>
      </trkpt>
      <trkpt lat="43.62642" lon="5.29011">
        <ele>192.4</ele>
        <time>2021-04-25T11:08:03Z</time>
      </trkpt>
      <trkpt lat="43.62609" lon="5.29052">
        <ele>194</ele>
        <time>2021-04-25T11:08:18Z</time>
      </trkpt>
      <trkpt lat="43.62594" lon="5.29068">
        <ele>194.8</ele>
        <time>2021-04-25T11:08:25Z</time>
      </trkpt>
      <trkpt lat="43.62568" lon="5.291">
        <ele>196.2</ele>
        <time>2021-04-25T11:08:38Z</time>
      </trkpt>
      <trkpt lat="43.62546" lon="5.29125">
        <ele>197.4</ele>
        <time>2021-04-25T11:08:49Z</time>
      </trkpt>
      <trkpt lat="43.62535" lon="5.29137">
        <ele>198.2</ele>
        <time>2021-04-25T11:08:55Z</time>
      </trkpt>
      <trkpt lat="43.62517" lon="5.29175">
        <ele>199.6</ele>
        <time>2021-04-25T11:09:06Z</time>
      </trkpt>
      <trkpt lat="43.62503" lon="5.29207">
        <ele>200.6</ele>
        <time>2021-04-25T11:09:15Z</time>
      </trkpt>
      <trkpt lat="43.62492" lon="5.29226">
        <ele>201.2</ele>
        <time>2021-04-25T11:09:21Z</time>
      </trkpt>
      <trkpt lat="43.62458" lon="5.2928">
        <ele>202.8</ele>
        <time>2021-04-25T11:09:35Z</time>
      </trkpt>
      <trkpt lat="43.62421" lon="5.29341">
        <ele>203.8</ele>
        <time>2021-04-25T11:09:50Z</time>
      </trkpt>
      <trkpt lat="43.62399" lon="5.29378">
        <ele>204.6</ele>
        <time>2021-04-25T11:09:59Z</time>
      </trkpt>
      <trkpt lat="43.6237" lon="5.29427">
        <ele>205.2</ele>
        <time>2021-04-25T11:10:11Z</time>
      </trkpt>
      <trkpt lat="43.62346" lon="5.29449">
        <ele>205.4</ele>
        <time>2021-04-25T11:10:17Z</time>
      </trkpt>
      <trkpt lat="43.62339" lon="5.29455">
        <ele>205.4</ele>
        <time>2021-04-25T11:10:19Z</time>
      </trkpt>
      <trkpt lat="43.62324" lon="5.2947">
        <ele>205.6</ele>
        <time>2021-04-25T11:10:23Z</time>
      </trkpt>
      <trkpt lat="43.62288" lon="5.29498">
        <ele>206</ele>
        <time>2021-04-25T11:10:32Z</time>
      </trkpt>
      <trkpt lat="43.62272" lon="5.29513">
        <ele>206.2</ele>
        <time>2021-04-25T11:10:37Z</time>
      </trkpt>
      <trkpt lat="43.62271" lon="5.29514">
        <ele>206.6</ele>
        <time>2021-04-25T11:10:53Z</time>
      </trkpt>
      <trkpt lat="43.62268" lon="5.29515">
        <ele>206.8</ele>
        <time>2021-04-25T11:11:08Z</time>
      </trkpt>
      <trkpt lat="43.62266" lon="5.29518">
        <ele>206.8</ele>
        <time>2021-04-25T11:11:09Z</time>
      </trkpt>
      <trkpt lat="43.62238" lon="5.29544">
        <ele>207.2</ele>
        <time>2021-04-25T11:11:17Z</time>
      </trkpt>
      <trkpt lat="43.6222" lon="5.29552">
        <ele>207.2</ele>
        <time>2021-04-25T11:11:21Z</time>
      </trkpt>
      <trkpt lat="43.62215" lon="5.29549">
        <ele>207.2</ele>
        <time>2021-04-25T11:11:22Z</time>
      </trkpt>
      <trkpt lat="43.62208" lon="5.29531">
        <ele>207.2</ele>
        <time>2021-04-25T11:11:25Z</time>
      </trkpt>
      <trkpt lat="43.62192" lon="5.29523">
        <ele>207.2</ele>
        <time>2021-04-25T11:11:29Z</time>
      </trkpt>
      <trkpt lat="43.62177" lon="5.29524">
        <ele>206.8</ele>
        <time>2021-04-25T11:11:32Z</time>
      </trkpt>
      <trkpt lat="43.6216" lon="5.29528">
        <ele>206.4</ele>
        <time>2021-04-25T11:11:38Z</time>
      </trkpt>
      <trkpt lat="43.62141" lon="5.29563">
        <ele>206.4</ele>
        <time>2021-04-25T11:11:48Z</time>
      </trkpt>
      <trkpt lat="43.62135" lon="5.2957">
        <ele>206.4</ele>
        <time>2021-04-25T11:11:50Z</time>
      </trkpt>
      <trkpt lat="43.62123" lon="5.29561">
        <ele>206.2</ele>
        <time>2021-04-25T11:11:54Z</time>
      </trkpt>
      <trkpt lat="43.62104" lon="5.29547">
        <ele>206.2</ele>
        <time>2021-04-25T11:11:59Z</time>
      </trkpt>
      <trkpt lat="43.6207" lon="5.29534">
        <ele>205.2</ele>
        <time>2021-04-25T11:12:06Z</time>
      </trkpt>
      <trkpt lat="43.62064" lon="5.29534">
        <ele>205.2</ele>
        <time>2021-04-25T11:12:07Z</time>
      </trkpt>
      <trkpt lat="43.62044" lon="5.29538">
        <ele>205</ele>
        <time>2021-04-25T11:12:11Z</time>
      </trkpt>
      <trkpt lat="43.62034" lon="5.29548">
        <ele>204.8</ele>
        <time>2021-04-25T11:12:14Z</time>
      </trkpt>
      <trkpt lat="43.62023" lon="5.29565">
        <ele>204.6</ele>
        <time>2021-04-25T11:12:19Z</time>
      </trkpt>
      <trkpt lat="43.62007" lon="5.29612">
        <ele>204</ele>
        <time>2021-04-25T11:12:29Z</time>
      </trkpt>
      <trkpt lat="43.62002" lon="5.29644">
        <ele>203.4</ele>
        <time>2021-04-25T11:12:34Z</time>
      </trkpt>
      <trkpt lat="43.62001" lon="5.29658">
        <ele>203.2</ele>
        <time>2021-04-25T11:12:36Z</time>
      </trkpt>
      <trkpt lat="43.61983" lon="5.29683">
        <ele>202.8</ele>
        <time>2021-04-25T11:12:43Z</time>
      </trkpt>
      <trkpt lat="43.61956" lon="5.29676">
        <ele>202.6</ele>
        <time>2021-04-25T11:12:47Z</time>
      </trkpt>
      <trkpt lat="43.6195" lon="5.29676">
        <ele>202.6</ele>
        <time>2021-04-25T11:12:48Z</time>
      </trkpt>
      <trkpt lat="43.61936" lon="5.29681">
        <ele>202</ele>
        <time>2021-04-25T11:12:51Z</time>
      </trkpt>
      <trkpt lat="43.61929" lon="5.29696">
        <ele>201.8</ele>
        <time>2021-04-25T11:12:54Z</time>
      </trkpt>
      <trkpt lat="43.61926" lon="5.29708">
        <ele>201.8</ele>
        <time>2021-04-25T11:12:56Z</time>
      </trkpt>
      <trkpt lat="43.61922" lon="5.29733">
        <ele>201.6</ele>
        <time>2021-04-25T11:13:00Z</time>
      </trkpt>
      <trkpt lat="43.61919" lon="5.29752">
        <ele>201.4</ele>
        <time>2021-04-25T11:13:03Z</time>
      </trkpt>
      <trkpt lat="43.61917" lon="5.29765">
        <ele>201.4</ele>
        <time>2021-04-25T11:13:05Z</time>
      </trkpt>
      <trkpt lat="43.6191" lon="5.2979">
        <ele>201.2</ele>
        <time>2021-04-25T11:13:09Z</time>
      </trkpt>
      <trkpt lat="43.619" lon="5.29834">
        <ele>201.2</ele>
        <time>2021-04-25T11:13:17Z</time>
      </trkpt>
      <trkpt lat="43.61894" lon="5.29849">
        <ele>200.8</ele>
        <time>2021-04-25T11:13:21Z</time>
      </trkpt>
    </trkseg>
  </trk>
</gpx>